<?xml version="1.0" encoding="UTF-8" standalone="no" ?>
<gpx xmlns="http://www.topografix.com/GPX/1/1" xmlns:xsi="http://www.w3.org/2001/XMLSchema-instance" xsi:schemaLocation="http://www.topografix.com/GPX/1/1 http://www.topografix.com/GPX/1/1/gpx.xsd" version="1.1" creator="VisuGPX - https://www.visugpx.com">
  <metadata>
    <name>Cima Fournier</name>
    <desc><![CDATA[Bousson - Cima Fournier]]></desc>
  </metadata>
  <trk>
    <name><![CDATA[Cima_Fournier_2022-12-12]]></name>
    <trkseg>
      <trkpt lat="44.93183" lon="6.82067">
        <ele>1479.6</ele>
        <time>2022-12-12T07:58:10Z</time>
      </trkpt>
      <trkpt lat="44.93183" lon="6.82066">
        <ele>1479.2</ele>
        <time>2022-12-12T07:58:19Z</time>
      </trkpt>
      <trkpt lat="44.93182" lon="6.82062">
        <ele>1477.2</ele>
        <time>2022-12-12T07:58:28Z</time>
      </trkpt>
      <trkpt lat="44.93181" lon="6.82064">
        <ele>1474.31</ele>
        <time>2022-12-12T07:58:38Z</time>
      </trkpt>
      <trkpt lat="44.93181" lon="6.82065">
        <ele>1476.04</ele>
        <time>2022-12-12T07:58:53Z</time>
      </trkpt>
      <trkpt lat="44.93182" lon="6.8206">
        <ele>1482.49</ele>
        <time>2022-12-12T07:59:02Z</time>
      </trkpt>
      <trkpt lat="44.93181" lon="6.82063">
        <ele>1485.47</ele>
        <time>2022-12-12T07:59:12Z</time>
      </trkpt>
      <trkpt lat="44.93184" lon="6.82061">
        <ele>1486.48</ele>
        <time>2022-12-12T07:59:21Z</time>
      </trkpt>
      <trkpt lat="44.93183" lon="6.8206">
        <ele>1492.33</ele>
        <time>2022-12-12T07:59:31Z</time>
      </trkpt>
      <trkpt lat="44.93182" lon="6.8206">
        <ele>1494.02</ele>
        <time>2022-12-12T08:01:20Z</time>
      </trkpt>
      <trkpt lat="44.93181" lon="6.82061">
        <ele>1490.94</ele>
        <time>2022-12-12T08:02:32Z</time>
      </trkpt>
      <trkpt lat="44.9318" lon="6.82062">
        <ele>1489.37</ele>
        <time>2022-12-12T08:02:42Z</time>
      </trkpt>
      <trkpt lat="44.93181" lon="6.82062">
        <ele>1490.76</ele>
        <time>2022-12-12T08:02:51Z</time>
      </trkpt>
      <trkpt lat="44.93182" lon="6.8206">
        <ele>1492.04</ele>
        <time>2022-12-12T08:03:00Z</time>
      </trkpt>
      <trkpt lat="44.93182" lon="6.82059">
        <ele>1491.06</ele>
        <time>2022-12-12T08:03:14Z</time>
      </trkpt>
      <trkpt lat="44.93182" lon="6.8206">
        <ele>1491.18</ele>
        <time>2022-12-12T08:03:28Z</time>
      </trkpt>
      <trkpt lat="44.93181" lon="6.82061">
        <ele>1489.76</ele>
        <time>2022-12-12T08:03:48Z</time>
      </trkpt>
      <trkpt lat="44.9318" lon="6.82062">
        <ele>1489.7</ele>
        <time>2022-12-12T08:03:57Z</time>
      </trkpt>
      <trkpt lat="44.93181" lon="6.82062">
        <ele>1489.59</ele>
        <time>2022-12-12T08:04:13Z</time>
      </trkpt>
      <trkpt lat="44.9318" lon="6.82061">
        <ele>1489.27</ele>
        <time>2022-12-12T08:05:00Z</time>
      </trkpt>
      <trkpt lat="44.93179" lon="6.82061">
        <ele>1489.12</ele>
        <time>2022-12-12T08:05:10Z</time>
      </trkpt>
      <trkpt lat="44.9318" lon="6.82061">
        <ele>1487.77</ele>
        <time>2022-12-12T08:05:37Z</time>
      </trkpt>
      <trkpt lat="44.93181" lon="6.82062">
        <ele>1487.84</ele>
        <time>2022-12-12T08:05:46Z</time>
      </trkpt>
      <trkpt lat="44.93181" lon="6.8206">
        <ele>1487.7</ele>
        <time>2022-12-12T08:06:30Z</time>
      </trkpt>
      <trkpt lat="44.93181" lon="6.82062">
        <ele>1489.18</ele>
        <time>2022-12-12T08:06:51Z</time>
      </trkpt>
      <trkpt lat="44.93181" lon="6.82063">
        <ele>1488.75</ele>
        <time>2022-12-12T08:07:12Z</time>
      </trkpt>
      <trkpt lat="44.93182" lon="6.82061">
        <ele>1488.45</ele>
        <time>2022-12-12T08:07:22Z</time>
      </trkpt>
      <trkpt lat="44.93182" lon="6.82063">
        <ele>1488.27</ele>
        <time>2022-12-12T08:07:32Z</time>
      </trkpt>
      <trkpt lat="44.93183" lon="6.82063">
        <ele>1489.81</ele>
        <time>2022-12-12T08:07:41Z</time>
      </trkpt>
      <trkpt lat="44.93182" lon="6.82063">
        <ele>1490.04</ele>
        <time>2022-12-12T08:07:52Z</time>
      </trkpt>
      <trkpt lat="44.93182" lon="6.82062">
        <ele>1490.34</ele>
        <time>2022-12-12T08:08:10Z</time>
      </trkpt>
      <trkpt lat="44.93181" lon="6.8206">
        <ele>1490.1</ele>
        <time>2022-12-12T08:08:19Z</time>
      </trkpt>
      <trkpt lat="44.93182" lon="6.82059">
        <ele>1490.67</ele>
        <time>2022-12-12T08:08:28Z</time>
      </trkpt>
      <trkpt lat="44.93181" lon="6.8206">
        <ele>1490.71</ele>
        <time>2022-12-12T08:08:37Z</time>
      </trkpt>
      <trkpt lat="44.93181" lon="6.82059">
        <ele>1490.63</ele>
        <time>2022-12-12T08:08:57Z</time>
      </trkpt>
      <trkpt lat="44.93178" lon="6.82059">
        <ele>1490.18</ele>
        <time>2022-12-12T08:09:07Z</time>
      </trkpt>
      <trkpt lat="44.93172" lon="6.82058">
        <ele>1490.57</ele>
        <time>2022-12-12T08:09:16Z</time>
      </trkpt>
      <trkpt lat="44.9317" lon="6.82059">
        <ele>1491</ele>
        <time>2022-12-12T08:09:26Z</time>
      </trkpt>
      <trkpt lat="44.93169" lon="6.82058">
        <ele>1491.59</ele>
        <time>2022-12-12T08:09:37Z</time>
      </trkpt>
      <trkpt lat="44.93165" lon="6.82053">
        <ele>1491.18</ele>
        <time>2022-12-12T08:09:46Z</time>
      </trkpt>
      <trkpt lat="44.93164" lon="6.82041">
        <ele>1491.71</ele>
        <time>2022-12-12T08:09:56Z</time>
      </trkpt>
      <trkpt lat="44.93158" lon="6.82035">
        <ele>1492.23</ele>
        <time>2022-12-12T08:10:06Z</time>
      </trkpt>
      <trkpt lat="44.93158" lon="6.82034">
        <ele>1492.77</ele>
        <time>2022-12-12T08:10:16Z</time>
      </trkpt>
      <trkpt lat="44.93157" lon="6.82035">
        <ele>1492.04</ele>
        <time>2022-12-12T08:10:39Z</time>
      </trkpt>
      <trkpt lat="44.93156" lon="6.82035">
        <ele>1492.44</ele>
        <time>2022-12-12T08:11:35Z</time>
      </trkpt>
      <trkpt lat="44.93155" lon="6.82034">
        <ele>1492.09</ele>
        <time>2022-12-12T08:11:52Z</time>
      </trkpt>
      <trkpt lat="44.93149" lon="6.82033">
        <ele>1492.73</ele>
        <time>2022-12-12T08:12:01Z</time>
      </trkpt>
      <trkpt lat="44.93145" lon="6.82031">
        <ele>1492.68</ele>
        <time>2022-12-12T08:12:11Z</time>
      </trkpt>
      <trkpt lat="44.93145" lon="6.8203">
        <ele>1492.98</ele>
        <time>2022-12-12T08:12:27Z</time>
      </trkpt>
      <trkpt lat="44.93147" lon="6.8203">
        <ele>1493.19</ele>
        <time>2022-12-12T08:12:41Z</time>
      </trkpt>
      <trkpt lat="44.93146" lon="6.82029">
        <ele>1492.62</ele>
        <time>2022-12-12T08:13:08Z</time>
      </trkpt>
      <trkpt lat="44.93145" lon="6.82028">
        <ele>1492.65</ele>
        <time>2022-12-12T08:13:26Z</time>
      </trkpt>
      <trkpt lat="44.93138" lon="6.82026">
        <ele>1492.68</ele>
        <time>2022-12-12T08:13:35Z</time>
      </trkpt>
      <trkpt lat="44.93132" lon="6.82022">
        <ele>1493.55</ele>
        <time>2022-12-12T08:13:45Z</time>
      </trkpt>
      <trkpt lat="44.93127" lon="6.8202">
        <ele>1495.18</ele>
        <time>2022-12-12T08:13:54Z</time>
      </trkpt>
      <trkpt lat="44.93123" lon="6.82019">
        <ele>1495.55</ele>
        <time>2022-12-12T08:14:03Z</time>
      </trkpt>
      <trkpt lat="44.93116" lon="6.8202">
        <ele>1495.56</ele>
        <time>2022-12-12T08:14:12Z</time>
      </trkpt>
      <trkpt lat="44.9311" lon="6.82015">
        <ele>1495.45</ele>
        <time>2022-12-12T08:14:22Z</time>
      </trkpt>
      <trkpt lat="44.93107" lon="6.82015">
        <ele>1494.74</ele>
        <time>2022-12-12T08:14:31Z</time>
      </trkpt>
      <trkpt lat="44.93099" lon="6.82009">
        <ele>1494.85</ele>
        <time>2022-12-12T08:14:40Z</time>
      </trkpt>
      <trkpt lat="44.93093" lon="6.82008">
        <ele>1496.45</ele>
        <time>2022-12-12T08:14:49Z</time>
      </trkpt>
      <trkpt lat="44.93086" lon="6.82007">
        <ele>1496.84</ele>
        <time>2022-12-12T08:14:58Z</time>
      </trkpt>
      <trkpt lat="44.9308" lon="6.82005">
        <ele>1497.41</ele>
        <time>2022-12-12T08:15:08Z</time>
      </trkpt>
      <trkpt lat="44.93073" lon="6.82003">
        <ele>1499.48</ele>
        <time>2022-12-12T08:15:17Z</time>
      </trkpt>
      <trkpt lat="44.93064" lon="6.82">
        <ele>1498.64</ele>
        <time>2022-12-12T08:15:26Z</time>
      </trkpt>
      <trkpt lat="44.93058" lon="6.81997">
        <ele>1499.3</ele>
        <time>2022-12-12T08:15:35Z</time>
      </trkpt>
      <trkpt lat="44.93051" lon="6.81993">
        <ele>1500.05</ele>
        <time>2022-12-12T08:15:44Z</time>
      </trkpt>
      <trkpt lat="44.93046" lon="6.8199">
        <ele>1500.35</ele>
        <time>2022-12-12T08:15:53Z</time>
      </trkpt>
      <trkpt lat="44.93041" lon="6.81986">
        <ele>1500.31</ele>
        <time>2022-12-12T08:16:02Z</time>
      </trkpt>
      <trkpt lat="44.93035" lon="6.81982">
        <ele>1501.77</ele>
        <time>2022-12-12T08:16:12Z</time>
      </trkpt>
      <trkpt lat="44.93029" lon="6.81978">
        <ele>1503.45</ele>
        <time>2022-12-12T08:16:21Z</time>
      </trkpt>
      <trkpt lat="44.93023" lon="6.81973">
        <ele>1503.37</ele>
        <time>2022-12-12T08:16:30Z</time>
      </trkpt>
      <trkpt lat="44.93019" lon="6.81967">
        <ele>1502.58</ele>
        <time>2022-12-12T08:16:39Z</time>
      </trkpt>
      <trkpt lat="44.93017" lon="6.81958">
        <ele>1504.38</ele>
        <time>2022-12-12T08:16:49Z</time>
      </trkpt>
      <trkpt lat="44.93016" lon="6.81948">
        <ele>1506.24</ele>
        <time>2022-12-12T08:16:58Z</time>
      </trkpt>
      <trkpt lat="44.93014" lon="6.81941">
        <ele>1510.08</ele>
        <time>2022-12-12T08:17:08Z</time>
      </trkpt>
      <trkpt lat="44.93013" lon="6.8194">
        <ele>1509.99</ele>
        <time>2022-12-12T08:17:18Z</time>
      </trkpt>
      <trkpt lat="44.93016" lon="6.8193">
        <ele>1507.03</ele>
        <time>2022-12-12T08:17:27Z</time>
      </trkpt>
      <trkpt lat="44.9302" lon="6.81924">
        <ele>1505.95</ele>
        <time>2022-12-12T08:17:37Z</time>
      </trkpt>
      <trkpt lat="44.93027" lon="6.81921">
        <ele>1503.9</ele>
        <time>2022-12-12T08:17:46Z</time>
      </trkpt>
      <trkpt lat="44.93031" lon="6.81915">
        <ele>1507.71</ele>
        <time>2022-12-12T08:17:55Z</time>
      </trkpt>
      <trkpt lat="44.93034" lon="6.81911">
        <ele>1507.91</ele>
        <time>2022-12-12T08:18:04Z</time>
      </trkpt>
      <trkpt lat="44.93038" lon="6.81907">
        <ele>1511.84</ele>
        <time>2022-12-12T08:18:14Z</time>
      </trkpt>
      <trkpt lat="44.93042" lon="6.81901">
        <ele>1521.15</ele>
        <time>2022-12-12T08:18:23Z</time>
      </trkpt>
      <trkpt lat="44.93045" lon="6.81892">
        <ele>1521.9</ele>
        <time>2022-12-12T08:18:32Z</time>
      </trkpt>
      <trkpt lat="44.93049" lon="6.81887">
        <ele>1513.27</ele>
        <time>2022-12-12T08:18:41Z</time>
      </trkpt>
      <trkpt lat="44.93052" lon="6.8188">
        <ele>1515.66</ele>
        <time>2022-12-12T08:18:51Z</time>
      </trkpt>
      <trkpt lat="44.93055" lon="6.81873">
        <ele>1516.27</ele>
        <time>2022-12-12T08:19:00Z</time>
      </trkpt>
      <trkpt lat="44.93059" lon="6.81865">
        <ele>1516.91</ele>
        <time>2022-12-12T08:19:09Z</time>
      </trkpt>
      <trkpt lat="44.93062" lon="6.81857">
        <ele>1516.41</ele>
        <time>2022-12-12T08:19:18Z</time>
      </trkpt>
      <trkpt lat="44.93065" lon="6.8185">
        <ele>1515.73</ele>
        <time>2022-12-12T08:19:28Z</time>
      </trkpt>
      <trkpt lat="44.93069" lon="6.81836">
        <ele>1515.25</ele>
        <time>2022-12-12T08:19:37Z</time>
      </trkpt>
      <trkpt lat="44.93067" lon="6.81833">
        <ele>1513.65</ele>
        <time>2022-12-12T08:19:46Z</time>
      </trkpt>
      <trkpt lat="44.93069" lon="6.81834">
        <ele>1513.94</ele>
        <time>2022-12-12T08:19:56Z</time>
      </trkpt>
      <trkpt lat="44.93073" lon="6.81829">
        <ele>1515.36</ele>
        <time>2022-12-12T08:20:05Z</time>
      </trkpt>
      <trkpt lat="44.93077" lon="6.8182">
        <ele>1516.37</ele>
        <time>2022-12-12T08:20:15Z</time>
      </trkpt>
      <trkpt lat="44.9308" lon="6.81815">
        <ele>1519.24</ele>
        <time>2022-12-12T08:20:24Z</time>
      </trkpt>
      <trkpt lat="44.93081" lon="6.81812">
        <ele>1521.02</ele>
        <time>2022-12-12T08:20:33Z</time>
      </trkpt>
      <trkpt lat="44.93083" lon="6.81808">
        <ele>1521.48</ele>
        <time>2022-12-12T08:20:42Z</time>
      </trkpt>
      <trkpt lat="44.93085" lon="6.81801">
        <ele>1522.5</ele>
        <time>2022-12-12T08:20:52Z</time>
      </trkpt>
      <trkpt lat="44.93087" lon="6.81796">
        <ele>1524.31</ele>
        <time>2022-12-12T08:21:01Z</time>
      </trkpt>
      <trkpt lat="44.93089" lon="6.81791">
        <ele>1528.09</ele>
        <time>2022-12-12T08:21:10Z</time>
      </trkpt>
      <trkpt lat="44.93091" lon="6.81786">
        <ele>1526.03</ele>
        <time>2022-12-12T08:21:19Z</time>
      </trkpt>
      <trkpt lat="44.93095" lon="6.81781">
        <ele>1528.26</ele>
        <time>2022-12-12T08:21:29Z</time>
      </trkpt>
      <trkpt lat="44.93101" lon="6.81775">
        <ele>1527.05</ele>
        <time>2022-12-12T08:21:38Z</time>
      </trkpt>
      <trkpt lat="44.93103" lon="6.8177">
        <ele>1527.69</ele>
        <time>2022-12-12T08:21:47Z</time>
      </trkpt>
      <trkpt lat="44.93105" lon="6.81764">
        <ele>1528.6</ele>
        <time>2022-12-12T08:21:56Z</time>
      </trkpt>
      <trkpt lat="44.93105" lon="6.81758">
        <ele>1530.67</ele>
        <time>2022-12-12T08:22:06Z</time>
      </trkpt>
      <trkpt lat="44.93106" lon="6.81751">
        <ele>1531.83</ele>
        <time>2022-12-12T08:22:16Z</time>
      </trkpt>
      <trkpt lat="44.93108" lon="6.81745">
        <ele>1532.85</ele>
        <time>2022-12-12T08:22:25Z</time>
      </trkpt>
      <trkpt lat="44.93109" lon="6.81739">
        <ele>1529.47</ele>
        <time>2022-12-12T08:22:34Z</time>
      </trkpt>
      <trkpt lat="44.93111" lon="6.81733">
        <ele>1529.71</ele>
        <time>2022-12-12T08:22:43Z</time>
      </trkpt>
      <trkpt lat="44.93111" lon="6.81729">
        <ele>1531.27</ele>
        <time>2022-12-12T08:22:52Z</time>
      </trkpt>
      <trkpt lat="44.9311" lon="6.81724">
        <ele>1535.94</ele>
        <time>2022-12-12T08:23:02Z</time>
      </trkpt>
      <trkpt lat="44.93108" lon="6.8172">
        <ele>1537.99</ele>
        <time>2022-12-12T08:23:12Z</time>
      </trkpt>
      <trkpt lat="44.93104" lon="6.81718">
        <ele>1538.24</ele>
        <time>2022-12-12T08:23:21Z</time>
      </trkpt>
      <trkpt lat="44.931" lon="6.81717">
        <ele>1536.92</ele>
        <time>2022-12-12T08:23:30Z</time>
      </trkpt>
      <trkpt lat="44.93093" lon="6.81715">
        <ele>1538.42</ele>
        <time>2022-12-12T08:23:39Z</time>
      </trkpt>
      <trkpt lat="44.93086" lon="6.81715">
        <ele>1541.07</ele>
        <time>2022-12-12T08:23:49Z</time>
      </trkpt>
      <trkpt lat="44.93083" lon="6.81714">
        <ele>1542.3</ele>
        <time>2022-12-12T08:23:59Z</time>
      </trkpt>
      <trkpt lat="44.9308" lon="6.81711">
        <ele>1537.4</ele>
        <time>2022-12-12T08:24:08Z</time>
      </trkpt>
      <trkpt lat="44.93074" lon="6.81712">
        <ele>1542.75</ele>
        <time>2022-12-12T08:24:17Z</time>
      </trkpt>
      <trkpt lat="44.93071" lon="6.81712">
        <ele>1531.3</ele>
        <time>2022-12-12T08:24:26Z</time>
      </trkpt>
      <trkpt lat="44.93065" lon="6.8171">
        <ele>1537.28</ele>
        <time>2022-12-12T08:24:36Z</time>
      </trkpt>
      <trkpt lat="44.93066" lon="6.81706">
        <ele>1544.59</ele>
        <time>2022-12-12T08:24:45Z</time>
      </trkpt>
      <trkpt lat="44.93062" lon="6.81704">
        <ele>1545.35</ele>
        <time>2022-12-12T08:24:54Z</time>
      </trkpt>
      <trkpt lat="44.93058" lon="6.81703">
        <ele>1546.07</ele>
        <time>2022-12-12T08:25:04Z</time>
      </trkpt>
      <trkpt lat="44.93053" lon="6.81703">
        <ele>1546.83</ele>
        <time>2022-12-12T08:25:13Z</time>
      </trkpt>
      <trkpt lat="44.93049" lon="6.81702">
        <ele>1540.75</ele>
        <time>2022-12-12T08:25:22Z</time>
      </trkpt>
      <trkpt lat="44.93044" lon="6.81703">
        <ele>1542.39</ele>
        <time>2022-12-12T08:25:32Z</time>
      </trkpt>
      <trkpt lat="44.9304" lon="6.81702">
        <ele>1542.89</ele>
        <time>2022-12-12T08:25:41Z</time>
      </trkpt>
      <trkpt lat="44.93034" lon="6.81701">
        <ele>1545.96</ele>
        <time>2022-12-12T08:25:50Z</time>
      </trkpt>
      <trkpt lat="44.93028" lon="6.81701">
        <ele>1548.8</ele>
        <time>2022-12-12T08:26:00Z</time>
      </trkpt>
      <trkpt lat="44.93023" lon="6.81698">
        <ele>1549.37</ele>
        <time>2022-12-12T08:26:09Z</time>
      </trkpt>
      <trkpt lat="44.93018" lon="6.81696">
        <ele>1546.9</ele>
        <time>2022-12-12T08:26:18Z</time>
      </trkpt>
      <trkpt lat="44.93014" lon="6.81694">
        <ele>1554.05</ele>
        <time>2022-12-12T08:26:28Z</time>
      </trkpt>
      <trkpt lat="44.93007" lon="6.81692">
        <ele>1546.54</ele>
        <time>2022-12-12T08:26:38Z</time>
      </trkpt>
      <trkpt lat="44.93002" lon="6.81691">
        <ele>1555.45</ele>
        <time>2022-12-12T08:26:47Z</time>
      </trkpt>
      <trkpt lat="44.92997" lon="6.8169">
        <ele>1553.33</ele>
        <time>2022-12-12T08:26:57Z</time>
      </trkpt>
      <trkpt lat="44.92993" lon="6.81688">
        <ele>1556.21</ele>
        <time>2022-12-12T08:27:06Z</time>
      </trkpt>
      <trkpt lat="44.92988" lon="6.81686">
        <ele>1558.52</ele>
        <time>2022-12-12T08:27:15Z</time>
      </trkpt>
      <trkpt lat="44.92982" lon="6.81684">
        <ele>1559.48</ele>
        <time>2022-12-12T08:27:25Z</time>
      </trkpt>
      <trkpt lat="44.92978" lon="6.81682">
        <ele>1560.58</ele>
        <time>2022-12-12T08:27:34Z</time>
      </trkpt>
      <trkpt lat="44.92974" lon="6.8168">
        <ele>1560.47</ele>
        <time>2022-12-12T08:27:44Z</time>
      </trkpt>
      <trkpt lat="44.92968" lon="6.81677">
        <ele>1557.32</ele>
        <time>2022-12-12T08:27:53Z</time>
      </trkpt>
      <trkpt lat="44.92964" lon="6.81675">
        <ele>1560.17</ele>
        <time>2022-12-12T08:28:02Z</time>
      </trkpt>
      <trkpt lat="44.92961" lon="6.81674">
        <ele>1560.18</ele>
        <time>2022-12-12T08:28:11Z</time>
      </trkpt>
      <trkpt lat="44.92957" lon="6.81672">
        <ele>1552.5</ele>
        <time>2022-12-12T08:28:20Z</time>
      </trkpt>
      <trkpt lat="44.92951" lon="6.81671">
        <ele>1562.8</ele>
        <time>2022-12-12T08:28:30Z</time>
      </trkpt>
      <trkpt lat="44.92946" lon="6.8167">
        <ele>1563.57</ele>
        <time>2022-12-12T08:28:39Z</time>
      </trkpt>
      <trkpt lat="44.92942" lon="6.81668">
        <ele>1563.73</ele>
        <time>2022-12-12T08:28:48Z</time>
      </trkpt>
      <trkpt lat="44.92937" lon="6.81665">
        <ele>1556.32</ele>
        <time>2022-12-12T08:28:58Z</time>
      </trkpt>
      <trkpt lat="44.92931" lon="6.81663">
        <ele>1558.05</ele>
        <time>2022-12-12T08:29:07Z</time>
      </trkpt>
      <trkpt lat="44.92926" lon="6.81661">
        <ele>1565.12</ele>
        <time>2022-12-12T08:29:17Z</time>
      </trkpt>
      <trkpt lat="44.92923" lon="6.81657">
        <ele>1568.6</ele>
        <time>2022-12-12T08:29:26Z</time>
      </trkpt>
      <trkpt lat="44.92919" lon="6.81653">
        <ele>1569.9</ele>
        <time>2022-12-12T08:29:35Z</time>
      </trkpt>
      <trkpt lat="44.92915" lon="6.81649">
        <ele>1570.91</ele>
        <time>2022-12-12T08:29:44Z</time>
      </trkpt>
      <trkpt lat="44.9291" lon="6.81644">
        <ele>1571.3</ele>
        <time>2022-12-12T08:29:54Z</time>
      </trkpt>
      <trkpt lat="44.92904" lon="6.81639">
        <ele>1572.12</ele>
        <time>2022-12-12T08:30:03Z</time>
      </trkpt>
      <trkpt lat="44.92897" lon="6.81634">
        <ele>1572.16</ele>
        <time>2022-12-12T08:30:13Z</time>
      </trkpt>
      <trkpt lat="44.92892" lon="6.8163">
        <ele>1573.81</ele>
        <time>2022-12-12T08:30:22Z</time>
      </trkpt>
      <trkpt lat="44.92883" lon="6.81624">
        <ele>1562.18</ele>
        <time>2022-12-12T08:30:31Z</time>
      </trkpt>
      <trkpt lat="44.92872" lon="6.81617">
        <ele>1583.34</ele>
        <time>2022-12-12T08:30:41Z</time>
      </trkpt>
      <trkpt lat="44.92866" lon="6.81609">
        <ele>1589.84</ele>
        <time>2022-12-12T08:30:50Z</time>
      </trkpt>
      <trkpt lat="44.9286" lon="6.81603">
        <ele>1588.05</ele>
        <time>2022-12-12T08:30:59Z</time>
      </trkpt>
      <trkpt lat="44.92855" lon="6.81596">
        <ele>1587.91</ele>
        <time>2022-12-12T08:31:09Z</time>
      </trkpt>
      <trkpt lat="44.92852" lon="6.81593">
        <ele>1588.16</ele>
        <time>2022-12-12T08:31:18Z</time>
      </trkpt>
      <trkpt lat="44.92852" lon="6.8159">
        <ele>1590.43</ele>
        <time>2022-12-12T08:31:27Z</time>
      </trkpt>
      <trkpt lat="44.9285" lon="6.81587">
        <ele>1592.51</ele>
        <time>2022-12-12T08:31:37Z</time>
      </trkpt>
      <trkpt lat="44.92846" lon="6.81584">
        <ele>1594.4</ele>
        <time>2022-12-12T08:31:46Z</time>
      </trkpt>
      <trkpt lat="44.92842" lon="6.81581">
        <ele>1595.8</ele>
        <time>2022-12-12T08:31:55Z</time>
      </trkpt>
      <trkpt lat="44.92837" lon="6.81578">
        <ele>1596.69</ele>
        <time>2022-12-12T08:32:04Z</time>
      </trkpt>
      <trkpt lat="44.92833" lon="6.81573">
        <ele>1580.86</ele>
        <time>2022-12-12T08:32:13Z</time>
      </trkpt>
      <trkpt lat="44.92829" lon="6.81567">
        <ele>1581.67</ele>
        <time>2022-12-12T08:32:23Z</time>
      </trkpt>
      <trkpt lat="44.92826" lon="6.8156">
        <ele>1572.06</ele>
        <time>2022-12-12T08:32:32Z</time>
      </trkpt>
      <trkpt lat="44.92825" lon="6.81555">
        <ele>1569.1</ele>
        <time>2022-12-12T08:32:41Z</time>
      </trkpt>
      <trkpt lat="44.92823" lon="6.81552">
        <ele>1579.92</ele>
        <time>2022-12-12T08:32:50Z</time>
      </trkpt>
      <trkpt lat="44.92819" lon="6.81549">
        <ele>1582.8</ele>
        <time>2022-12-12T08:33:00Z</time>
      </trkpt>
      <trkpt lat="44.9281" lon="6.81548">
        <ele>1569.47</ele>
        <time>2022-12-12T08:33:09Z</time>
      </trkpt>
      <trkpt lat="44.92806" lon="6.81547">
        <ele>1569.13</ele>
        <time>2022-12-12T08:33:19Z</time>
      </trkpt>
      <trkpt lat="44.92803" lon="6.81546">
        <ele>1587.41</ele>
        <time>2022-12-12T08:33:28Z</time>
      </trkpt>
      <trkpt lat="44.92799" lon="6.81548">
        <ele>1606.56</ele>
        <time>2022-12-12T08:33:37Z</time>
      </trkpt>
      <trkpt lat="44.92796" lon="6.81546">
        <ele>1588.41</ele>
        <time>2022-12-12T08:33:46Z</time>
      </trkpt>
      <trkpt lat="44.92789" lon="6.81548">
        <ele>1588.14</ele>
        <time>2022-12-12T08:33:56Z</time>
      </trkpt>
      <trkpt lat="44.92783" lon="6.81546">
        <ele>1588.56</ele>
        <time>2022-12-12T08:34:05Z</time>
      </trkpt>
      <trkpt lat="44.92778" lon="6.81544">
        <ele>1581.02</ele>
        <time>2022-12-12T08:34:14Z</time>
      </trkpt>
      <trkpt lat="44.92773" lon="6.81544">
        <ele>1591.31</ele>
        <time>2022-12-12T08:34:23Z</time>
      </trkpt>
      <trkpt lat="44.92767" lon="6.81543">
        <ele>1591.62</ele>
        <time>2022-12-12T08:34:33Z</time>
      </trkpt>
      <trkpt lat="44.92762" lon="6.81543">
        <ele>1592.36</ele>
        <time>2022-12-12T08:34:42Z</time>
      </trkpt>
      <trkpt lat="44.92757" lon="6.81542">
        <ele>1592.9</ele>
        <time>2022-12-12T08:34:51Z</time>
      </trkpt>
      <trkpt lat="44.92752" lon="6.81542">
        <ele>1594.35</ele>
        <time>2022-12-12T08:35:00Z</time>
      </trkpt>
      <trkpt lat="44.92746" lon="6.81541">
        <ele>1594.82</ele>
        <time>2022-12-12T08:35:09Z</time>
      </trkpt>
      <trkpt lat="44.92739" lon="6.81543">
        <ele>1578.89</ele>
        <time>2022-12-12T08:35:19Z</time>
      </trkpt>
      <trkpt lat="44.92733" lon="6.81546">
        <ele>1595.97</ele>
        <time>2022-12-12T08:35:28Z</time>
      </trkpt>
      <trkpt lat="44.92728" lon="6.81549">
        <ele>1593.71</ele>
        <time>2022-12-12T08:35:37Z</time>
      </trkpt>
      <trkpt lat="44.92723" lon="6.81554">
        <ele>1593.31</ele>
        <time>2022-12-12T08:35:46Z</time>
      </trkpt>
      <trkpt lat="44.92719" lon="6.81559">
        <ele>1592.29</ele>
        <time>2022-12-12T08:35:55Z</time>
      </trkpt>
      <trkpt lat="44.92715" lon="6.81564">
        <ele>1590.93</ele>
        <time>2022-12-12T08:36:05Z</time>
      </trkpt>
      <trkpt lat="44.92711" lon="6.81567">
        <ele>1589.71</ele>
        <time>2022-12-12T08:36:14Z</time>
      </trkpt>
      <trkpt lat="44.92706" lon="6.8157">
        <ele>1592.38</ele>
        <time>2022-12-12T08:36:23Z</time>
      </trkpt>
      <trkpt lat="44.92701" lon="6.81573">
        <ele>1613.64</ele>
        <time>2022-12-12T08:36:32Z</time>
      </trkpt>
      <trkpt lat="44.92695" lon="6.81576">
        <ele>1617.05</ele>
        <time>2022-12-12T08:36:41Z</time>
      </trkpt>
      <trkpt lat="44.92688" lon="6.81578">
        <ele>1618.22</ele>
        <time>2022-12-12T08:36:51Z</time>
      </trkpt>
      <trkpt lat="44.92683" lon="6.8158">
        <ele>1619.36</ele>
        <time>2022-12-12T08:37:00Z</time>
      </trkpt>
      <trkpt lat="44.92677" lon="6.81582">
        <ele>1620.49</ele>
        <time>2022-12-12T08:37:09Z</time>
      </trkpt>
      <trkpt lat="44.9267" lon="6.81582">
        <ele>1621.68</ele>
        <time>2022-12-12T08:37:19Z</time>
      </trkpt>
      <trkpt lat="44.92664" lon="6.81583">
        <ele>1623.06</ele>
        <time>2022-12-12T08:37:28Z</time>
      </trkpt>
      <trkpt lat="44.92656" lon="6.81584">
        <ele>1619.52</ele>
        <time>2022-12-12T08:37:37Z</time>
      </trkpt>
      <trkpt lat="44.92645" lon="6.81583">
        <ele>1620.15</ele>
        <time>2022-12-12T08:37:46Z</time>
      </trkpt>
      <trkpt lat="44.92636" lon="6.8158">
        <ele>1620.94</ele>
        <time>2022-12-12T08:37:56Z</time>
      </trkpt>
      <trkpt lat="44.92629" lon="6.81578">
        <ele>1621.58</ele>
        <time>2022-12-12T08:38:05Z</time>
      </trkpt>
      <trkpt lat="44.92623" lon="6.81577">
        <ele>1622.42</ele>
        <time>2022-12-12T08:38:15Z</time>
      </trkpt>
      <trkpt lat="44.92617" lon="6.81574">
        <ele>1621.33</ele>
        <time>2022-12-12T08:38:24Z</time>
      </trkpt>
      <trkpt lat="44.92611" lon="6.81572">
        <ele>1622.69</ele>
        <time>2022-12-12T08:38:33Z</time>
      </trkpt>
      <trkpt lat="44.92605" lon="6.81568">
        <ele>1623.94</ele>
        <time>2022-12-12T08:38:43Z</time>
      </trkpt>
      <trkpt lat="44.926" lon="6.81566">
        <ele>1624.58</ele>
        <time>2022-12-12T08:38:52Z</time>
      </trkpt>
      <trkpt lat="44.92593" lon="6.81563">
        <ele>1616.64</ele>
        <time>2022-12-12T08:39:01Z</time>
      </trkpt>
      <trkpt lat="44.92587" lon="6.8156">
        <ele>1620.5</ele>
        <time>2022-12-12T08:39:10Z</time>
      </trkpt>
      <trkpt lat="44.9258" lon="6.81556">
        <ele>1625.6</ele>
        <time>2022-12-12T08:39:20Z</time>
      </trkpt>
      <trkpt lat="44.92575" lon="6.81553">
        <ele>1626.42</ele>
        <time>2022-12-12T08:39:29Z</time>
      </trkpt>
      <trkpt lat="44.92571" lon="6.81549">
        <ele>1627.51</ele>
        <time>2022-12-12T08:39:38Z</time>
      </trkpt>
      <trkpt lat="44.92566" lon="6.81544">
        <ele>1629.18</ele>
        <time>2022-12-12T08:39:48Z</time>
      </trkpt>
      <trkpt lat="44.92561" lon="6.81539">
        <ele>1630.4</ele>
        <time>2022-12-12T08:39:57Z</time>
      </trkpt>
      <trkpt lat="44.92554" lon="6.81536">
        <ele>1631.74</ele>
        <time>2022-12-12T08:40:07Z</time>
      </trkpt>
      <trkpt lat="44.92548" lon="6.81531">
        <ele>1631.76</ele>
        <time>2022-12-12T08:40:16Z</time>
      </trkpt>
      <trkpt lat="44.92542" lon="6.81524">
        <ele>1632.27</ele>
        <time>2022-12-12T08:40:26Z</time>
      </trkpt>
      <trkpt lat="44.92537" lon="6.81514">
        <ele>1632.16</ele>
        <time>2022-12-12T08:40:36Z</time>
      </trkpt>
      <trkpt lat="44.92532" lon="6.81507">
        <ele>1634.13</ele>
        <time>2022-12-12T08:40:45Z</time>
      </trkpt>
      <trkpt lat="44.92527" lon="6.81499">
        <ele>1629.86</ele>
        <time>2022-12-12T08:40:55Z</time>
      </trkpt>
      <trkpt lat="44.92523" lon="6.8149">
        <ele>1636.95</ele>
        <time>2022-12-12T08:41:05Z</time>
      </trkpt>
      <trkpt lat="44.92519" lon="6.81482">
        <ele>1606.16</ele>
        <time>2022-12-12T08:41:15Z</time>
      </trkpt>
      <trkpt lat="44.92518" lon="6.81476">
        <ele>1628.05</ele>
        <time>2022-12-12T08:41:24Z</time>
      </trkpt>
      <trkpt lat="44.92515" lon="6.81465">
        <ele>1627.59</ele>
        <time>2022-12-12T08:41:33Z</time>
      </trkpt>
      <trkpt lat="44.92509" lon="6.81457">
        <ele>1627.12</ele>
        <time>2022-12-12T08:41:42Z</time>
      </trkpt>
      <trkpt lat="44.92506" lon="6.81449">
        <ele>1631.72</ele>
        <time>2022-12-12T08:41:51Z</time>
      </trkpt>
      <trkpt lat="44.92503" lon="6.81443">
        <ele>1635.46</ele>
        <time>2022-12-12T08:42:01Z</time>
      </trkpt>
      <trkpt lat="44.925" lon="6.81434">
        <ele>1635.03</ele>
        <time>2022-12-12T08:42:10Z</time>
      </trkpt>
      <trkpt lat="44.92495" lon="6.81424">
        <ele>1629.32</ele>
        <time>2022-12-12T08:42:19Z</time>
      </trkpt>
      <trkpt lat="44.92491" lon="6.81417">
        <ele>1635.84</ele>
        <time>2022-12-12T08:42:28Z</time>
      </trkpt>
      <trkpt lat="44.92488" lon="6.81409">
        <ele>1637.33</ele>
        <time>2022-12-12T08:42:38Z</time>
      </trkpt>
      <trkpt lat="44.92483" lon="6.81402">
        <ele>1637.34</ele>
        <time>2022-12-12T08:42:47Z</time>
      </trkpt>
      <trkpt lat="44.92479" lon="6.81395">
        <ele>1638.43</ele>
        <time>2022-12-12T08:42:56Z</time>
      </trkpt>
      <trkpt lat="44.92474" lon="6.81389">
        <ele>1639.62</ele>
        <time>2022-12-12T08:43:05Z</time>
      </trkpt>
      <trkpt lat="44.92468" lon="6.81382">
        <ele>1639.31</ele>
        <time>2022-12-12T08:43:14Z</time>
      </trkpt>
      <trkpt lat="44.92458" lon="6.81375">
        <ele>1632.79</ele>
        <time>2022-12-12T08:43:24Z</time>
      </trkpt>
      <trkpt lat="44.92452" lon="6.81369">
        <ele>1638.98</ele>
        <time>2022-12-12T08:43:33Z</time>
      </trkpt>
      <trkpt lat="44.92447" lon="6.81365">
        <ele>1640.23</ele>
        <time>2022-12-12T08:43:42Z</time>
      </trkpt>
      <trkpt lat="44.9244" lon="6.81361">
        <ele>1640.58</ele>
        <time>2022-12-12T08:43:52Z</time>
      </trkpt>
      <trkpt lat="44.92435" lon="6.81358">
        <ele>1641.06</ele>
        <time>2022-12-12T08:44:01Z</time>
      </trkpt>
      <trkpt lat="44.9243" lon="6.81356">
        <ele>1641.16</ele>
        <time>2022-12-12T08:44:10Z</time>
      </trkpt>
      <trkpt lat="44.92425" lon="6.81353">
        <ele>1641.03</ele>
        <time>2022-12-12T08:44:19Z</time>
      </trkpt>
      <trkpt lat="44.9242" lon="6.8135">
        <ele>1642.36</ele>
        <time>2022-12-12T08:44:29Z</time>
      </trkpt>
      <trkpt lat="44.92417" lon="6.81347">
        <ele>1636.02</ele>
        <time>2022-12-12T08:44:38Z</time>
      </trkpt>
      <trkpt lat="44.92412" lon="6.81344">
        <ele>1642.35</ele>
        <time>2022-12-12T08:44:47Z</time>
      </trkpt>
      <trkpt lat="44.92407" lon="6.8134">
        <ele>1644.18</ele>
        <time>2022-12-12T08:44:57Z</time>
      </trkpt>
      <trkpt lat="44.92403" lon="6.81336">
        <ele>1643.86</ele>
        <time>2022-12-12T08:45:06Z</time>
      </trkpt>
      <trkpt lat="44.92398" lon="6.81332">
        <ele>1643.21</ele>
        <time>2022-12-12T08:45:15Z</time>
      </trkpt>
      <trkpt lat="44.92396" lon="6.81327">
        <ele>1636.27</ele>
        <time>2022-12-12T08:45:24Z</time>
      </trkpt>
      <trkpt lat="44.92393" lon="6.81322">
        <ele>1644.03</ele>
        <time>2022-12-12T08:45:34Z</time>
      </trkpt>
      <trkpt lat="44.92389" lon="6.8132">
        <ele>1637.2</ele>
        <time>2022-12-12T08:45:43Z</time>
      </trkpt>
      <trkpt lat="44.92385" lon="6.81315">
        <ele>1643.26</ele>
        <time>2022-12-12T08:45:52Z</time>
      </trkpt>
      <trkpt lat="44.9238" lon="6.8131">
        <ele>1643.57</ele>
        <time>2022-12-12T08:46:01Z</time>
      </trkpt>
      <trkpt lat="44.92376" lon="6.81304">
        <ele>1636.97</ele>
        <time>2022-12-12T08:46:10Z</time>
      </trkpt>
      <trkpt lat="44.92374" lon="6.813">
        <ele>1644.53</ele>
        <time>2022-12-12T08:46:20Z</time>
      </trkpt>
      <trkpt lat="44.92372" lon="6.81296">
        <ele>1638.41</ele>
        <time>2022-12-12T08:46:29Z</time>
      </trkpt>
      <trkpt lat="44.92369" lon="6.81292">
        <ele>1640.28</ele>
        <time>2022-12-12T08:46:38Z</time>
      </trkpt>
      <trkpt lat="44.92368" lon="6.81286">
        <ele>1641.98</ele>
        <time>2022-12-12T08:46:48Z</time>
      </trkpt>
      <trkpt lat="44.92367" lon="6.81278">
        <ele>1642.42</ele>
        <time>2022-12-12T08:46:57Z</time>
      </trkpt>
      <trkpt lat="44.92363" lon="6.81272">
        <ele>1636.99</ele>
        <time>2022-12-12T08:47:06Z</time>
      </trkpt>
      <trkpt lat="44.92359" lon="6.81271">
        <ele>1644.86</ele>
        <time>2022-12-12T08:47:16Z</time>
      </trkpt>
      <trkpt lat="44.92353" lon="6.81267">
        <ele>1644.42</ele>
        <time>2022-12-12T08:47:25Z</time>
      </trkpt>
      <trkpt lat="44.92349" lon="6.81263">
        <ele>1645.06</ele>
        <time>2022-12-12T08:47:35Z</time>
      </trkpt>
      <trkpt lat="44.92345" lon="6.81261">
        <ele>1646.03</ele>
        <time>2022-12-12T08:47:45Z</time>
      </trkpt>
      <trkpt lat="44.92342" lon="6.81257">
        <ele>1646.83</ele>
        <time>2022-12-12T08:47:54Z</time>
      </trkpt>
      <trkpt lat="44.9234" lon="6.81252">
        <ele>1644.5</ele>
        <time>2022-12-12T08:48:04Z</time>
      </trkpt>
      <trkpt lat="44.92339" lon="6.81248">
        <ele>1640.35</ele>
        <time>2022-12-12T08:48:13Z</time>
      </trkpt>
      <trkpt lat="44.92337" lon="6.81244">
        <ele>1649.84</ele>
        <time>2022-12-12T08:48:22Z</time>
      </trkpt>
      <trkpt lat="44.92336" lon="6.8124">
        <ele>1651.27</ele>
        <time>2022-12-12T08:48:31Z</time>
      </trkpt>
      <trkpt lat="44.92334" lon="6.81236">
        <ele>1644.48</ele>
        <time>2022-12-12T08:48:41Z</time>
      </trkpt>
      <trkpt lat="44.92331" lon="6.81233">
        <ele>1648.24</ele>
        <time>2022-12-12T08:48:50Z</time>
      </trkpt>
      <trkpt lat="44.92328" lon="6.81229">
        <ele>1645.6</ele>
        <time>2022-12-12T08:49:00Z</time>
      </trkpt>
      <trkpt lat="44.92326" lon="6.81227">
        <ele>1656.96</ele>
        <time>2022-12-12T08:49:09Z</time>
      </trkpt>
      <trkpt lat="44.92323" lon="6.81223">
        <ele>1653.63</ele>
        <time>2022-12-12T08:49:19Z</time>
      </trkpt>
      <trkpt lat="44.92318" lon="6.81217">
        <ele>1647.29</ele>
        <time>2022-12-12T08:49:29Z</time>
      </trkpt>
      <trkpt lat="44.92317" lon="6.81215">
        <ele>1655.3</ele>
        <time>2022-12-12T08:49:38Z</time>
      </trkpt>
      <trkpt lat="44.92315" lon="6.8121">
        <ele>1660.23</ele>
        <time>2022-12-12T08:49:48Z</time>
      </trkpt>
      <trkpt lat="44.92312" lon="6.81207">
        <ele>1662.14</ele>
        <time>2022-12-12T08:49:57Z</time>
      </trkpt>
      <trkpt lat="44.92309" lon="6.81203">
        <ele>1662.82</ele>
        <time>2022-12-12T08:50:07Z</time>
      </trkpt>
      <trkpt lat="44.92306" lon="6.81202">
        <ele>1664.76</ele>
        <time>2022-12-12T08:50:16Z</time>
      </trkpt>
      <trkpt lat="44.92302" lon="6.81198">
        <ele>1665.31</ele>
        <time>2022-12-12T08:50:26Z</time>
      </trkpt>
      <trkpt lat="44.923" lon="6.81194">
        <ele>1667.27</ele>
        <time>2022-12-12T08:50:35Z</time>
      </trkpt>
      <trkpt lat="44.92296" lon="6.81189">
        <ele>1658.83</ele>
        <time>2022-12-12T08:50:45Z</time>
      </trkpt>
      <trkpt lat="44.92285" lon="6.81182">
        <ele>1656.66</ele>
        <time>2022-12-12T08:50:54Z</time>
      </trkpt>
      <trkpt lat="44.92275" lon="6.81174">
        <ele>1664.71</ele>
        <time>2022-12-12T08:51:04Z</time>
      </trkpt>
      <trkpt lat="44.9227" lon="6.81171">
        <ele>1662.58</ele>
        <time>2022-12-12T08:51:13Z</time>
      </trkpt>
      <trkpt lat="44.92268" lon="6.81168">
        <ele>1662.94</ele>
        <time>2022-12-12T08:51:22Z</time>
      </trkpt>
      <trkpt lat="44.92266" lon="6.81167">
        <ele>1664.56</ele>
        <time>2022-12-12T08:51:31Z</time>
      </trkpt>
      <trkpt lat="44.92262" lon="6.81166">
        <ele>1661.29</ele>
        <time>2022-12-12T08:51:41Z</time>
      </trkpt>
      <trkpt lat="44.9226" lon="6.81164">
        <ele>1657.36</ele>
        <time>2022-12-12T08:51:50Z</time>
      </trkpt>
      <trkpt lat="44.92259" lon="6.81161">
        <ele>1657.24</ele>
        <time>2022-12-12T08:52:00Z</time>
      </trkpt>
      <trkpt lat="44.92258" lon="6.81156">
        <ele>1670.81</ele>
        <time>2022-12-12T08:52:09Z</time>
      </trkpt>
      <trkpt lat="44.92257" lon="6.81151">
        <ele>1673.43</ele>
        <time>2022-12-12T08:52:18Z</time>
      </trkpt>
      <trkpt lat="44.92256" lon="6.81146">
        <ele>1673.85</ele>
        <time>2022-12-12T08:52:27Z</time>
      </trkpt>
      <trkpt lat="44.92256" lon="6.8114">
        <ele>1660.27</ele>
        <time>2022-12-12T08:52:36Z</time>
      </trkpt>
      <trkpt lat="44.92256" lon="6.81134">
        <ele>1672.8</ele>
        <time>2022-12-12T08:52:46Z</time>
      </trkpt>
      <trkpt lat="44.92255" lon="6.8113">
        <ele>1661.64</ele>
        <time>2022-12-12T08:52:56Z</time>
      </trkpt>
      <trkpt lat="44.92252" lon="6.81125">
        <ele>1672.51</ele>
        <time>2022-12-12T08:53:05Z</time>
      </trkpt>
      <trkpt lat="44.92248" lon="6.81123">
        <ele>1676.65</ele>
        <time>2022-12-12T08:53:14Z</time>
      </trkpt>
      <trkpt lat="44.92245" lon="6.81119">
        <ele>1677.74</ele>
        <time>2022-12-12T08:53:24Z</time>
      </trkpt>
      <trkpt lat="44.92242" lon="6.81114">
        <ele>1679.03</ele>
        <time>2022-12-12T08:53:33Z</time>
      </trkpt>
      <trkpt lat="44.9224" lon="6.8111">
        <ele>1665.77</ele>
        <time>2022-12-12T08:53:42Z</time>
      </trkpt>
      <trkpt lat="44.92237" lon="6.81103">
        <ele>1679.12</ele>
        <time>2022-12-12T08:53:52Z</time>
      </trkpt>
      <trkpt lat="44.92235" lon="6.81098">
        <ele>1680.51</ele>
        <time>2022-12-12T08:54:02Z</time>
      </trkpt>
      <trkpt lat="44.92234" lon="6.81091">
        <ele>1679.4</ele>
        <time>2022-12-12T08:54:11Z</time>
      </trkpt>
      <trkpt lat="44.92232" lon="6.81087">
        <ele>1681.62</ele>
        <time>2022-12-12T08:54:20Z</time>
      </trkpt>
      <trkpt lat="44.92228" lon="6.81083">
        <ele>1668.63</ele>
        <time>2022-12-12T08:54:29Z</time>
      </trkpt>
      <trkpt lat="44.92224" lon="6.81079">
        <ele>1674.97</ele>
        <time>2022-12-12T08:54:39Z</time>
      </trkpt>
      <trkpt lat="44.9222" lon="6.81079">
        <ele>1666.03</ele>
        <time>2022-12-12T08:54:48Z</time>
      </trkpt>
      <trkpt lat="44.92219" lon="6.81081">
        <ele>1666.57</ele>
        <time>2022-12-12T08:54:57Z</time>
      </trkpt>
      <trkpt lat="44.92216" lon="6.81084">
        <ele>1666.59</ele>
        <time>2022-12-12T08:55:06Z</time>
      </trkpt>
      <trkpt lat="44.92215" lon="6.81084">
        <ele>1683.44</ele>
        <time>2022-12-12T08:55:15Z</time>
      </trkpt>
      <trkpt lat="44.92214" lon="6.81079">
        <ele>1685.73</ele>
        <time>2022-12-12T08:55:25Z</time>
      </trkpt>
      <trkpt lat="44.92216" lon="6.81074">
        <ele>1678.36</ele>
        <time>2022-12-12T08:55:34Z</time>
      </trkpt>
      <trkpt lat="44.92215" lon="6.81065">
        <ele>1679.84</ele>
        <time>2022-12-12T08:55:43Z</time>
      </trkpt>
      <trkpt lat="44.92212" lon="6.81063">
        <ele>1690.44</ele>
        <time>2022-12-12T08:55:53Z</time>
      </trkpt>
      <trkpt lat="44.92209" lon="6.81059">
        <ele>1690.77</ele>
        <time>2022-12-12T08:56:02Z</time>
      </trkpt>
      <trkpt lat="44.92208" lon="6.81055">
        <ele>1692.16</ele>
        <time>2022-12-12T08:56:11Z</time>
      </trkpt>
      <trkpt lat="44.92209" lon="6.81054">
        <ele>1678.81</ele>
        <time>2022-12-12T08:56:21Z</time>
      </trkpt>
      <trkpt lat="44.92209" lon="6.81053">
        <ele>1675.28</ele>
        <time>2022-12-12T08:56:34Z</time>
      </trkpt>
      <trkpt lat="44.92208" lon="6.81054">
        <ele>1675.57</ele>
        <time>2022-12-12T08:56:43Z</time>
      </trkpt>
      <trkpt lat="44.92205" lon="6.81052">
        <ele>1676.06</ele>
        <time>2022-12-12T08:56:53Z</time>
      </trkpt>
      <trkpt lat="44.922" lon="6.81046">
        <ele>1689.99</ele>
        <time>2022-12-12T08:57:02Z</time>
      </trkpt>
      <trkpt lat="44.92196" lon="6.81041">
        <ele>1693.54</ele>
        <time>2022-12-12T08:57:11Z</time>
      </trkpt>
      <trkpt lat="44.92189" lon="6.81042">
        <ele>1693.36</ele>
        <time>2022-12-12T08:57:20Z</time>
      </trkpt>
      <trkpt lat="44.92183" lon="6.81042">
        <ele>1694.1</ele>
        <time>2022-12-12T08:57:29Z</time>
      </trkpt>
      <trkpt lat="44.9218" lon="6.81042">
        <ele>1679.45</ele>
        <time>2022-12-12T08:57:39Z</time>
      </trkpt>
      <trkpt lat="44.92177" lon="6.8104">
        <ele>1679.73</ele>
        <time>2022-12-12T08:57:48Z</time>
      </trkpt>
      <trkpt lat="44.92175" lon="6.81033">
        <ele>1691.39</ele>
        <time>2022-12-12T08:57:57Z</time>
      </trkpt>
      <trkpt lat="44.92172" lon="6.81028">
        <ele>1698.25</ele>
        <time>2022-12-12T08:58:07Z</time>
      </trkpt>
      <trkpt lat="44.9217" lon="6.81021">
        <ele>1697.9</ele>
        <time>2022-12-12T08:58:16Z</time>
      </trkpt>
      <trkpt lat="44.92167" lon="6.81017">
        <ele>1697.93</ele>
        <time>2022-12-12T08:58:25Z</time>
      </trkpt>
      <trkpt lat="44.92165" lon="6.81015">
        <ele>1698.07</ele>
        <time>2022-12-12T08:58:35Z</time>
      </trkpt>
      <trkpt lat="44.92161" lon="6.81013">
        <ele>1680.86</ele>
        <time>2022-12-12T08:58:44Z</time>
      </trkpt>
      <trkpt lat="44.92156" lon="6.81014">
        <ele>1681.14</ele>
        <time>2022-12-12T08:58:53Z</time>
      </trkpt>
      <trkpt lat="44.92153" lon="6.81015">
        <ele>1681.53</ele>
        <time>2022-12-12T08:59:02Z</time>
      </trkpt>
      <trkpt lat="44.9215" lon="6.81013">
        <ele>1689.07</ele>
        <time>2022-12-12T08:59:12Z</time>
      </trkpt>
      <trkpt lat="44.92147" lon="6.81011">
        <ele>1683.77</ele>
        <time>2022-12-12T08:59:22Z</time>
      </trkpt>
      <trkpt lat="44.92144" lon="6.8101">
        <ele>1685</ele>
        <time>2022-12-12T08:59:31Z</time>
      </trkpt>
      <trkpt lat="44.92141" lon="6.81008">
        <ele>1685.67</ele>
        <time>2022-12-12T08:59:41Z</time>
      </trkpt>
      <trkpt lat="44.92139" lon="6.81003">
        <ele>1687.74</ele>
        <time>2022-12-12T08:59:50Z</time>
      </trkpt>
      <trkpt lat="44.92137" lon="6.80999">
        <ele>1686.99</ele>
        <time>2022-12-12T08:59:59Z</time>
      </trkpt>
      <trkpt lat="44.92135" lon="6.80996">
        <ele>1706.98</ele>
        <time>2022-12-12T09:00:09Z</time>
      </trkpt>
      <trkpt lat="44.92132" lon="6.80995">
        <ele>1688.12</ele>
        <time>2022-12-12T09:00:18Z</time>
      </trkpt>
      <trkpt lat="44.92127" lon="6.80996">
        <ele>1688.43</ele>
        <time>2022-12-12T09:00:27Z</time>
      </trkpt>
      <trkpt lat="44.92125" lon="6.80997">
        <ele>1708.72</ele>
        <time>2022-12-12T09:00:37Z</time>
      </trkpt>
      <trkpt lat="44.92121" lon="6.80998">
        <ele>1709.94</ele>
        <time>2022-12-12T09:00:46Z</time>
      </trkpt>
      <trkpt lat="44.92118" lon="6.80996">
        <ele>1710.35</ele>
        <time>2022-12-12T09:00:55Z</time>
      </trkpt>
      <trkpt lat="44.92115" lon="6.80995">
        <ele>1691.92</ele>
        <time>2022-12-12T09:01:05Z</time>
      </trkpt>
      <trkpt lat="44.92112" lon="6.80995">
        <ele>1711.73</ele>
        <time>2022-12-12T09:01:14Z</time>
      </trkpt>
      <trkpt lat="44.92108" lon="6.80994">
        <ele>1694.13</ele>
        <time>2022-12-12T09:01:24Z</time>
      </trkpt>
      <trkpt lat="44.92104" lon="6.80992">
        <ele>1694.41</ele>
        <time>2022-12-12T09:01:33Z</time>
      </trkpt>
      <trkpt lat="44.92103" lon="6.80987">
        <ele>1713.54</ele>
        <time>2022-12-12T09:01:43Z</time>
      </trkpt>
      <trkpt lat="44.92101" lon="6.80981">
        <ele>1714.43</ele>
        <time>2022-12-12T09:01:52Z</time>
      </trkpt>
      <trkpt lat="44.92099" lon="6.80979">
        <ele>1714.63</ele>
        <time>2022-12-12T09:02:01Z</time>
      </trkpt>
      <trkpt lat="44.92095" lon="6.80979">
        <ele>1715.92</ele>
        <time>2022-12-12T09:02:10Z</time>
      </trkpt>
      <trkpt lat="44.92091" lon="6.80978">
        <ele>1717.59</ele>
        <time>2022-12-12T09:02:19Z</time>
      </trkpt>
      <trkpt lat="44.92086" lon="6.80976">
        <ele>1697.87</ele>
        <time>2022-12-12T09:02:29Z</time>
      </trkpt>
      <trkpt lat="44.92081" lon="6.80973">
        <ele>1698.07</ele>
        <time>2022-12-12T09:02:38Z</time>
      </trkpt>
      <trkpt lat="44.92079" lon="6.80972">
        <ele>1721.63</ele>
        <time>2022-12-12T09:02:47Z</time>
      </trkpt>
      <trkpt lat="44.92075" lon="6.8097">
        <ele>1723.92</ele>
        <time>2022-12-12T09:02:56Z</time>
      </trkpt>
      <trkpt lat="44.92072" lon="6.80966">
        <ele>1702.51</ele>
        <time>2022-12-12T09:03:05Z</time>
      </trkpt>
      <trkpt lat="44.92069" lon="6.80962">
        <ele>1724.09</ele>
        <time>2022-12-12T09:03:15Z</time>
      </trkpt>
      <trkpt lat="44.92066" lon="6.80958">
        <ele>1723.82</ele>
        <time>2022-12-12T09:03:24Z</time>
      </trkpt>
      <trkpt lat="44.92061" lon="6.80956">
        <ele>1716.5</ele>
        <time>2022-12-12T09:03:33Z</time>
      </trkpt>
      <trkpt lat="44.92058" lon="6.80955">
        <ele>1702.45</ele>
        <time>2022-12-12T09:03:43Z</time>
      </trkpt>
      <trkpt lat="44.92056" lon="6.80951">
        <ele>1701.35</ele>
        <time>2022-12-12T09:03:52Z</time>
      </trkpt>
      <trkpt lat="44.92054" lon="6.80949">
        <ele>1726.74</ele>
        <time>2022-12-12T09:04:01Z</time>
      </trkpt>
      <trkpt lat="44.92052" lon="6.80945">
        <ele>1703.8</ele>
        <time>2022-12-12T09:04:10Z</time>
      </trkpt>
      <trkpt lat="44.9205" lon="6.80942">
        <ele>1706.51</ele>
        <time>2022-12-12T09:04:19Z</time>
      </trkpt>
      <trkpt lat="44.92048" lon="6.80938">
        <ele>1719.09</ele>
        <time>2022-12-12T09:04:29Z</time>
      </trkpt>
      <trkpt lat="44.92046" lon="6.80934">
        <ele>1704.94</ele>
        <time>2022-12-12T09:04:38Z</time>
      </trkpt>
      <trkpt lat="44.92044" lon="6.80931">
        <ele>1704.99</ele>
        <time>2022-12-12T09:04:47Z</time>
      </trkpt>
      <trkpt lat="44.92041" lon="6.80927">
        <ele>1713.26</ele>
        <time>2022-12-12T09:04:56Z</time>
      </trkpt>
      <trkpt lat="44.92038" lon="6.80923">
        <ele>1705.84</ele>
        <time>2022-12-12T09:05:06Z</time>
      </trkpt>
      <trkpt lat="44.92035" lon="6.80918">
        <ele>1706.86</ele>
        <time>2022-12-12T09:05:15Z</time>
      </trkpt>
      <trkpt lat="44.92032" lon="6.80913">
        <ele>1731.8</ele>
        <time>2022-12-12T09:05:24Z</time>
      </trkpt>
      <trkpt lat="44.9203" lon="6.80907">
        <ele>1732.67</ele>
        <time>2022-12-12T09:05:34Z</time>
      </trkpt>
      <trkpt lat="44.92029" lon="6.80902">
        <ele>1735.08</ele>
        <time>2022-12-12T09:05:43Z</time>
      </trkpt>
      <trkpt lat="44.92028" lon="6.80895">
        <ele>1710.72</ele>
        <time>2022-12-12T09:05:52Z</time>
      </trkpt>
      <trkpt lat="44.92026" lon="6.8089">
        <ele>1736.35</ele>
        <time>2022-12-12T09:06:01Z</time>
      </trkpt>
      <trkpt lat="44.92023" lon="6.80884">
        <ele>1735.72</ele>
        <time>2022-12-12T09:06:10Z</time>
      </trkpt>
      <trkpt lat="44.92019" lon="6.80877">
        <ele>1710.12</ele>
        <time>2022-12-12T09:06:20Z</time>
      </trkpt>
      <trkpt lat="44.92019" lon="6.80873">
        <ele>1717.94</ele>
        <time>2022-12-12T09:06:29Z</time>
      </trkpt>
      <trkpt lat="44.92018" lon="6.80867">
        <ele>1737.27</ele>
        <time>2022-12-12T09:06:38Z</time>
      </trkpt>
      <trkpt lat="44.92016" lon="6.80863">
        <ele>1730.13</ele>
        <time>2022-12-12T09:06:47Z</time>
      </trkpt>
      <trkpt lat="44.92014" lon="6.80857">
        <ele>1715.28</ele>
        <time>2022-12-12T09:06:57Z</time>
      </trkpt>
      <trkpt lat="44.92013" lon="6.80852">
        <ele>1735.33</ele>
        <time>2022-12-12T09:07:06Z</time>
      </trkpt>
      <trkpt lat="44.92011" lon="6.80846">
        <ele>1741.01</ele>
        <time>2022-12-12T09:07:16Z</time>
      </trkpt>
      <trkpt lat="44.92008" lon="6.8084">
        <ele>1741.05</ele>
        <time>2022-12-12T09:07:25Z</time>
      </trkpt>
      <trkpt lat="44.92003" lon="6.80836">
        <ele>1716.59</ele>
        <time>2022-12-12T09:07:35Z</time>
      </trkpt>
      <trkpt lat="44.92001" lon="6.80832">
        <ele>1740.58</ele>
        <time>2022-12-12T09:07:44Z</time>
      </trkpt>
      <trkpt lat="44.91999" lon="6.8083">
        <ele>1726.76</ele>
        <time>2022-12-12T09:07:53Z</time>
      </trkpt>
      <trkpt lat="44.91997" lon="6.80827">
        <ele>1743.34</ele>
        <time>2022-12-12T09:08:03Z</time>
      </trkpt>
      <trkpt lat="44.91993" lon="6.80822">
        <ele>1718.45</ele>
        <time>2022-12-12T09:08:12Z</time>
      </trkpt>
      <trkpt lat="44.9199" lon="6.80818">
        <ele>1745.19</ele>
        <time>2022-12-12T09:08:22Z</time>
      </trkpt>
      <trkpt lat="44.91988" lon="6.80814">
        <ele>1746.91</ele>
        <time>2022-12-12T09:08:31Z</time>
      </trkpt>
      <trkpt lat="44.91985" lon="6.80808">
        <ele>1747.81</ele>
        <time>2022-12-12T09:08:40Z</time>
      </trkpt>
      <trkpt lat="44.91984" lon="6.80806">
        <ele>1748.04</ele>
        <time>2022-12-12T09:08:50Z</time>
      </trkpt>
      <trkpt lat="44.91985" lon="6.80806">
        <ele>1721.93</ele>
        <time>2022-12-12T09:09:00Z</time>
      </trkpt>
      <trkpt lat="44.91986" lon="6.80806">
        <ele>1748.03</ele>
        <time>2022-12-12T09:09:31Z</time>
      </trkpt>
      <trkpt lat="44.91985" lon="6.80808">
        <ele>1749.72</ele>
        <time>2022-12-12T09:11:59Z</time>
      </trkpt>
      <trkpt lat="44.91984" lon="6.80808">
        <ele>1748.62</ele>
        <time>2022-12-12T09:12:18Z</time>
      </trkpt>
      <trkpt lat="44.91983" lon="6.80808">
        <ele>1722.98</ele>
        <time>2022-12-12T09:12:28Z</time>
      </trkpt>
      <trkpt lat="44.91983" lon="6.80807">
        <ele>1751.01</ele>
        <time>2022-12-12T09:12:38Z</time>
      </trkpt>
      <trkpt lat="44.9198" lon="6.80801">
        <ele>1747.68</ele>
        <time>2022-12-12T09:12:47Z</time>
      </trkpt>
      <trkpt lat="44.91975" lon="6.80797">
        <ele>1725.61</ele>
        <time>2022-12-12T09:12:57Z</time>
      </trkpt>
      <trkpt lat="44.91971" lon="6.80794">
        <ele>1723.6</ele>
        <time>2022-12-12T09:13:06Z</time>
      </trkpt>
      <trkpt lat="44.91969" lon="6.80793">
        <ele>1753.82</ele>
        <time>2022-12-12T09:13:15Z</time>
      </trkpt>
      <trkpt lat="44.91966" lon="6.80791">
        <ele>1755.09</ele>
        <time>2022-12-12T09:13:24Z</time>
      </trkpt>
      <trkpt lat="44.91964" lon="6.80787">
        <ele>1728.83</ele>
        <time>2022-12-12T09:13:34Z</time>
      </trkpt>
      <trkpt lat="44.91961" lon="6.80781">
        <ele>1753.57</ele>
        <time>2022-12-12T09:13:43Z</time>
      </trkpt>
      <trkpt lat="44.91959" lon="6.80777">
        <ele>1727.19</ele>
        <time>2022-12-12T09:13:52Z</time>
      </trkpt>
      <trkpt lat="44.91956" lon="6.80774">
        <ele>1752</ele>
        <time>2022-12-12T09:14:01Z</time>
      </trkpt>
      <trkpt lat="44.91951" lon="6.80774">
        <ele>1737.59</ele>
        <time>2022-12-12T09:14:11Z</time>
      </trkpt>
      <trkpt lat="44.91949" lon="6.80772">
        <ele>1755.19</ele>
        <time>2022-12-12T09:14:20Z</time>
      </trkpt>
      <trkpt lat="44.91947" lon="6.80769">
        <ele>1755.77</ele>
        <time>2022-12-12T09:14:29Z</time>
      </trkpt>
      <trkpt lat="44.91942" lon="6.80764">
        <ele>1747.54</ele>
        <time>2022-12-12T09:14:38Z</time>
      </trkpt>
      <trkpt lat="44.91937" lon="6.8076">
        <ele>1757.64</ele>
        <time>2022-12-12T09:14:48Z</time>
      </trkpt>
      <trkpt lat="44.91934" lon="6.80759">
        <ele>1727.04</ele>
        <time>2022-12-12T09:14:57Z</time>
      </trkpt>
      <trkpt lat="44.9193" lon="6.80759">
        <ele>1747.57</ele>
        <time>2022-12-12T09:15:07Z</time>
      </trkpt>
      <trkpt lat="44.91925" lon="6.8076">
        <ele>1728.87</ele>
        <time>2022-12-12T09:15:17Z</time>
      </trkpt>
      <trkpt lat="44.91921" lon="6.80759">
        <ele>1733.19</ele>
        <time>2022-12-12T09:15:26Z</time>
      </trkpt>
      <trkpt lat="44.91919" lon="6.80759">
        <ele>1759.32</ele>
        <time>2022-12-12T09:15:35Z</time>
      </trkpt>
      <trkpt lat="44.91917" lon="6.80761">
        <ele>1761.08</ele>
        <time>2022-12-12T09:15:45Z</time>
      </trkpt>
      <trkpt lat="44.91913" lon="6.80761">
        <ele>1761.95</ele>
        <time>2022-12-12T09:15:54Z</time>
      </trkpt>
      <trkpt lat="44.91909" lon="6.8076">
        <ele>1761.76</ele>
        <time>2022-12-12T09:16:03Z</time>
      </trkpt>
      <trkpt lat="44.91905" lon="6.80759">
        <ele>1763.15</ele>
        <time>2022-12-12T09:16:13Z</time>
      </trkpt>
      <trkpt lat="44.919" lon="6.80759">
        <ele>1734.93</ele>
        <time>2022-12-12T09:16:22Z</time>
      </trkpt>
      <trkpt lat="44.91895" lon="6.80759">
        <ele>1764.79</ele>
        <time>2022-12-12T09:16:31Z</time>
      </trkpt>
      <trkpt lat="44.91891" lon="6.80758">
        <ele>1767.37</ele>
        <time>2022-12-12T09:16:41Z</time>
      </trkpt>
      <trkpt lat="44.91886" lon="6.80758">
        <ele>1738.54</ele>
        <time>2022-12-12T09:16:50Z</time>
      </trkpt>
      <trkpt lat="44.9188" lon="6.80759">
        <ele>1764.91</ele>
        <time>2022-12-12T09:16:59Z</time>
      </trkpt>
      <trkpt lat="44.91875" lon="6.80758">
        <ele>1737.79</ele>
        <time>2022-12-12T09:17:08Z</time>
      </trkpt>
      <trkpt lat="44.91868" lon="6.80761">
        <ele>1734.73</ele>
        <time>2022-12-12T09:17:18Z</time>
      </trkpt>
      <trkpt lat="44.91864" lon="6.80763">
        <ele>1747.24</ele>
        <time>2022-12-12T09:17:27Z</time>
      </trkpt>
      <trkpt lat="44.9186" lon="6.80765">
        <ele>1760.59</ele>
        <time>2022-12-12T09:17:36Z</time>
      </trkpt>
      <trkpt lat="44.91856" lon="6.80764">
        <ele>1767.01</ele>
        <time>2022-12-12T09:17:45Z</time>
      </trkpt>
      <trkpt lat="44.91851" lon="6.80763">
        <ele>1768.31</ele>
        <time>2022-12-12T09:17:54Z</time>
      </trkpt>
      <trkpt lat="44.91846" lon="6.80763">
        <ele>1806.41</ele>
        <time>2022-12-12T09:18:04Z</time>
      </trkpt>
      <trkpt lat="44.91842" lon="6.80766">
        <ele>1812.38</ele>
        <time>2022-12-12T09:18:13Z</time>
      </trkpt>
      <trkpt lat="44.91838" lon="6.80766">
        <ele>1815.96</ele>
        <time>2022-12-12T09:18:23Z</time>
      </trkpt>
      <trkpt lat="44.91834" lon="6.80765">
        <ele>1818.09</ele>
        <time>2022-12-12T09:18:32Z</time>
      </trkpt>
      <trkpt lat="44.91827" lon="6.80762">
        <ele>1815.96</ele>
        <time>2022-12-12T09:18:41Z</time>
      </trkpt>
      <trkpt lat="44.91824" lon="6.8076">
        <ele>1819.19</ele>
        <time>2022-12-12T09:18:51Z</time>
      </trkpt>
      <trkpt lat="44.91819" lon="6.80759">
        <ele>1821.17</ele>
        <time>2022-12-12T09:19:00Z</time>
      </trkpt>
      <trkpt lat="44.91815" lon="6.80758">
        <ele>1824.6</ele>
        <time>2022-12-12T09:19:09Z</time>
      </trkpt>
      <trkpt lat="44.91809" lon="6.80756">
        <ele>1826.4</ele>
        <time>2022-12-12T09:19:18Z</time>
      </trkpt>
      <trkpt lat="44.91805" lon="6.80756">
        <ele>1827.64</ele>
        <time>2022-12-12T09:19:27Z</time>
      </trkpt>
      <trkpt lat="44.918" lon="6.80757">
        <ele>1828.5</ele>
        <time>2022-12-12T09:19:36Z</time>
      </trkpt>
      <trkpt lat="44.91794" lon="6.80756">
        <ele>1828.61</ele>
        <time>2022-12-12T09:19:46Z</time>
      </trkpt>
      <trkpt lat="44.91789" lon="6.80758">
        <ele>1828.73</ele>
        <time>2022-12-12T09:19:55Z</time>
      </trkpt>
      <trkpt lat="44.91783" lon="6.80757">
        <ele>1826.83</ele>
        <time>2022-12-12T09:20:04Z</time>
      </trkpt>
      <trkpt lat="44.91781" lon="6.80759">
        <ele>1823.75</ele>
        <time>2022-12-12T09:20:14Z</time>
      </trkpt>
      <trkpt lat="44.91776" lon="6.80757">
        <ele>1826.84</ele>
        <time>2022-12-12T09:20:24Z</time>
      </trkpt>
      <trkpt lat="44.91771" lon="6.80755">
        <ele>1828.6</ele>
        <time>2022-12-12T09:20:34Z</time>
      </trkpt>
      <trkpt lat="44.91765" lon="6.80753">
        <ele>1826.84</ele>
        <time>2022-12-12T09:20:43Z</time>
      </trkpt>
      <trkpt lat="44.91758" lon="6.8075">
        <ele>1825.99</ele>
        <time>2022-12-12T09:20:53Z</time>
      </trkpt>
      <trkpt lat="44.91753" lon="6.80748">
        <ele>1830.32</ele>
        <time>2022-12-12T09:21:02Z</time>
      </trkpt>
      <trkpt lat="44.91746" lon="6.80749">
        <ele>1826.72</ele>
        <time>2022-12-12T09:21:11Z</time>
      </trkpt>
      <trkpt lat="44.91739" lon="6.80747">
        <ele>1827.33</ele>
        <time>2022-12-12T09:21:20Z</time>
      </trkpt>
      <trkpt lat="44.91735" lon="6.80745">
        <ele>1831.64</ele>
        <time>2022-12-12T09:21:29Z</time>
      </trkpt>
      <trkpt lat="44.91731" lon="6.80744">
        <ele>1831.88</ele>
        <time>2022-12-12T09:21:39Z</time>
      </trkpt>
      <trkpt lat="44.91726" lon="6.80741">
        <ele>1832.82</ele>
        <time>2022-12-12T09:21:49Z</time>
      </trkpt>
      <trkpt lat="44.91721" lon="6.80738">
        <ele>1834.01</ele>
        <time>2022-12-12T09:21:58Z</time>
      </trkpt>
      <trkpt lat="44.91717" lon="6.80735">
        <ele>1828.77</ele>
        <time>2022-12-12T09:22:07Z</time>
      </trkpt>
      <trkpt lat="44.91712" lon="6.80734">
        <ele>1833.73</ele>
        <time>2022-12-12T09:22:16Z</time>
      </trkpt>
      <trkpt lat="44.91706" lon="6.80734">
        <ele>1833.51</ele>
        <time>2022-12-12T09:22:26Z</time>
      </trkpt>
      <trkpt lat="44.91701" lon="6.80732">
        <ele>1828.69</ele>
        <time>2022-12-12T09:22:35Z</time>
      </trkpt>
      <trkpt lat="44.91696" lon="6.8073">
        <ele>1827.96</ele>
        <time>2022-12-12T09:22:44Z</time>
      </trkpt>
      <trkpt lat="44.9169" lon="6.80728">
        <ele>1827.51</ele>
        <time>2022-12-12T09:22:54Z</time>
      </trkpt>
      <trkpt lat="44.91686" lon="6.80726">
        <ele>1828.27</ele>
        <time>2022-12-12T09:23:03Z</time>
      </trkpt>
      <trkpt lat="44.9168" lon="6.80724">
        <ele>1828.54</ele>
        <time>2022-12-12T09:23:12Z</time>
      </trkpt>
      <trkpt lat="44.91676" lon="6.80721">
        <ele>1835.9</ele>
        <time>2022-12-12T09:23:21Z</time>
      </trkpt>
      <trkpt lat="44.91673" lon="6.80717">
        <ele>1837.26</ele>
        <time>2022-12-12T09:23:31Z</time>
      </trkpt>
      <trkpt lat="44.9167" lon="6.80714">
        <ele>1838.38</ele>
        <time>2022-12-12T09:23:40Z</time>
      </trkpt>
      <trkpt lat="44.91667" lon="6.80711">
        <ele>1837.25</ele>
        <time>2022-12-12T09:23:49Z</time>
      </trkpt>
      <trkpt lat="44.91661" lon="6.80705">
        <ele>1833.85</ele>
        <time>2022-12-12T09:23:58Z</time>
      </trkpt>
      <trkpt lat="44.91657" lon="6.807">
        <ele>1837.45</ele>
        <time>2022-12-12T09:24:08Z</time>
      </trkpt>
      <trkpt lat="44.91653" lon="6.80697">
        <ele>1838.65</ele>
        <time>2022-12-12T09:24:17Z</time>
      </trkpt>
      <trkpt lat="44.91651" lon="6.80693">
        <ele>1834.57</ele>
        <time>2022-12-12T09:24:27Z</time>
      </trkpt>
      <trkpt lat="44.9165" lon="6.80689">
        <ele>1835.01</ele>
        <time>2022-12-12T09:24:36Z</time>
      </trkpt>
      <trkpt lat="44.91647" lon="6.80685">
        <ele>1842.97</ele>
        <time>2022-12-12T09:24:45Z</time>
      </trkpt>
      <trkpt lat="44.91643" lon="6.80681">
        <ele>1843.45</ele>
        <time>2022-12-12T09:24:55Z</time>
      </trkpt>
      <trkpt lat="44.91639" lon="6.80677">
        <ele>1843.45</ele>
        <time>2022-12-12T09:25:04Z</time>
      </trkpt>
      <trkpt lat="44.91633" lon="6.80674">
        <ele>1843.23</ele>
        <time>2022-12-12T09:25:14Z</time>
      </trkpt>
      <trkpt lat="44.91627" lon="6.80671">
        <ele>1847.1</ele>
        <time>2022-12-12T09:25:23Z</time>
      </trkpt>
      <trkpt lat="44.91622" lon="6.80667">
        <ele>1849.77</ele>
        <time>2022-12-12T09:25:32Z</time>
      </trkpt>
      <trkpt lat="44.91618" lon="6.80664">
        <ele>1844.5</ele>
        <time>2022-12-12T09:25:42Z</time>
      </trkpt>
      <trkpt lat="44.91611" lon="6.8066">
        <ele>1844.44</ele>
        <time>2022-12-12T09:25:51Z</time>
      </trkpt>
      <trkpt lat="44.91606" lon="6.80656">
        <ele>1846.62</ele>
        <time>2022-12-12T09:26:00Z</time>
      </trkpt>
      <trkpt lat="44.91605" lon="6.80651">
        <ele>1850.58</ele>
        <time>2022-12-12T09:26:09Z</time>
      </trkpt>
      <trkpt lat="44.91602" lon="6.80646">
        <ele>1852.7</ele>
        <time>2022-12-12T09:26:18Z</time>
      </trkpt>
      <trkpt lat="44.91596" lon="6.80642">
        <ele>1848.99</ele>
        <time>2022-12-12T09:26:27Z</time>
      </trkpt>
      <trkpt lat="44.91589" lon="6.80636">
        <ele>1852.57</ele>
        <time>2022-12-12T09:26:37Z</time>
      </trkpt>
      <trkpt lat="44.91582" lon="6.8063">
        <ele>1840.32</ele>
        <time>2022-12-12T09:26:46Z</time>
      </trkpt>
      <trkpt lat="44.91575" lon="6.80625">
        <ele>1849.47</ele>
        <time>2022-12-12T09:26:55Z</time>
      </trkpt>
      <trkpt lat="44.91568" lon="6.80622">
        <ele>1848.49</ele>
        <time>2022-12-12T09:27:04Z</time>
      </trkpt>
      <trkpt lat="44.91565" lon="6.80617">
        <ele>1850.55</ele>
        <time>2022-12-12T09:27:13Z</time>
      </trkpt>
      <trkpt lat="44.91562" lon="6.80614">
        <ele>1853.93</ele>
        <time>2022-12-12T09:27:22Z</time>
      </trkpt>
      <trkpt lat="44.91557" lon="6.80612">
        <ele>1849.16</ele>
        <time>2022-12-12T09:27:32Z</time>
      </trkpt>
      <trkpt lat="44.91553" lon="6.80609">
        <ele>1849.29</ele>
        <time>2022-12-12T09:27:42Z</time>
      </trkpt>
      <trkpt lat="44.9155" lon="6.80605">
        <ele>1841.49</ele>
        <time>2022-12-12T09:27:51Z</time>
      </trkpt>
      <trkpt lat="44.91547" lon="6.806">
        <ele>1826.84</ele>
        <time>2022-12-12T09:28:00Z</time>
      </trkpt>
      <trkpt lat="44.91543" lon="6.80594">
        <ele>1841.5</ele>
        <time>2022-12-12T09:28:10Z</time>
      </trkpt>
      <trkpt lat="44.91541" lon="6.80589">
        <ele>1841.95</ele>
        <time>2022-12-12T09:28:19Z</time>
      </trkpt>
      <trkpt lat="44.91539" lon="6.80585">
        <ele>1825.7</ele>
        <time>2022-12-12T09:28:28Z</time>
      </trkpt>
      <trkpt lat="44.91536" lon="6.8058">
        <ele>1844.95</ele>
        <time>2022-12-12T09:28:38Z</time>
      </trkpt>
      <trkpt lat="44.91532" lon="6.80574">
        <ele>1824.82</ele>
        <time>2022-12-12T09:28:47Z</time>
      </trkpt>
      <trkpt lat="44.91528" lon="6.80569">
        <ele>1845.1</ele>
        <time>2022-12-12T09:28:56Z</time>
      </trkpt>
      <trkpt lat="44.91525" lon="6.80562">
        <ele>1833.02</ele>
        <time>2022-12-12T09:29:06Z</time>
      </trkpt>
      <trkpt lat="44.91521" lon="6.80556">
        <ele>1848.49</ele>
        <time>2022-12-12T09:29:15Z</time>
      </trkpt>
      <trkpt lat="44.91516" lon="6.8055">
        <ele>1857.49</ele>
        <time>2022-12-12T09:29:25Z</time>
      </trkpt>
      <trkpt lat="44.91512" lon="6.80545">
        <ele>1869.66</ele>
        <time>2022-12-12T09:29:34Z</time>
      </trkpt>
      <trkpt lat="44.91509" lon="6.80541">
        <ele>1870.54</ele>
        <time>2022-12-12T09:29:43Z</time>
      </trkpt>
      <trkpt lat="44.91505" lon="6.80536">
        <ele>1873.12</ele>
        <time>2022-12-12T09:29:52Z</time>
      </trkpt>
      <trkpt lat="44.91501" lon="6.80531">
        <ele>1872.01</ele>
        <time>2022-12-12T09:30:01Z</time>
      </trkpt>
      <trkpt lat="44.91498" lon="6.80526">
        <ele>1874.32</ele>
        <time>2022-12-12T09:30:11Z</time>
      </trkpt>
      <trkpt lat="44.91494" lon="6.80521">
        <ele>1874.73</ele>
        <time>2022-12-12T09:30:20Z</time>
      </trkpt>
      <trkpt lat="44.91489" lon="6.80515">
        <ele>1874.07</ele>
        <time>2022-12-12T09:30:29Z</time>
      </trkpt>
      <trkpt lat="44.91486" lon="6.8051">
        <ele>1874.43</ele>
        <time>2022-12-12T09:30:38Z</time>
      </trkpt>
      <trkpt lat="44.91482" lon="6.80505">
        <ele>1867.38</ele>
        <time>2022-12-12T09:30:48Z</time>
      </trkpt>
      <trkpt lat="44.91476" lon="6.80497">
        <ele>1856.45</ele>
        <time>2022-12-12T09:30:57Z</time>
      </trkpt>
      <trkpt lat="44.91473" lon="6.80491">
        <ele>1857.42</ele>
        <time>2022-12-12T09:31:06Z</time>
      </trkpt>
      <trkpt lat="44.91471" lon="6.80485">
        <ele>1865.13</ele>
        <time>2022-12-12T09:31:16Z</time>
      </trkpt>
      <trkpt lat="44.91467" lon="6.8048">
        <ele>1865.39</ele>
        <time>2022-12-12T09:31:25Z</time>
      </trkpt>
      <trkpt lat="44.91463" lon="6.80475">
        <ele>1864.87</ele>
        <time>2022-12-12T09:31:34Z</time>
      </trkpt>
      <trkpt lat="44.91462" lon="6.8047">
        <ele>1866.5</ele>
        <time>2022-12-12T09:31:44Z</time>
      </trkpt>
      <trkpt lat="44.91461" lon="6.80464">
        <ele>1867.85</ele>
        <time>2022-12-12T09:31:53Z</time>
      </trkpt>
      <trkpt lat="44.91459" lon="6.80458">
        <ele>1873.88</ele>
        <time>2022-12-12T09:32:02Z</time>
      </trkpt>
      <trkpt lat="44.91458" lon="6.80455">
        <ele>1870.24</ele>
        <time>2022-12-12T09:32:11Z</time>
      </trkpt>
      <trkpt lat="44.91456" lon="6.8045">
        <ele>1873.46</ele>
        <time>2022-12-12T09:32:20Z</time>
      </trkpt>
      <trkpt lat="44.91454" lon="6.80445">
        <ele>1874.55</ele>
        <time>2022-12-12T09:32:29Z</time>
      </trkpt>
      <trkpt lat="44.91451" lon="6.80439">
        <ele>1875.4</ele>
        <time>2022-12-12T09:32:39Z</time>
      </trkpt>
      <trkpt lat="44.91448" lon="6.80435">
        <ele>1871.02</ele>
        <time>2022-12-12T09:32:48Z</time>
      </trkpt>
      <trkpt lat="44.91446" lon="6.8043">
        <ele>1873.92</ele>
        <time>2022-12-12T09:32:57Z</time>
      </trkpt>
      <trkpt lat="44.91445" lon="6.80426">
        <ele>1876.83</ele>
        <time>2022-12-12T09:33:07Z</time>
      </trkpt>
      <trkpt lat="44.91445" lon="6.80422">
        <ele>1873.1</ele>
        <time>2022-12-12T09:33:16Z</time>
      </trkpt>
      <trkpt lat="44.91445" lon="6.80417">
        <ele>1874.27</ele>
        <time>2022-12-12T09:33:25Z</time>
      </trkpt>
      <trkpt lat="44.91445" lon="6.80412">
        <ele>1874.52</ele>
        <time>2022-12-12T09:33:34Z</time>
      </trkpt>
      <trkpt lat="44.91444" lon="6.80406">
        <ele>1872.18</ele>
        <time>2022-12-12T09:33:44Z</time>
      </trkpt>
      <trkpt lat="44.91444" lon="6.80401">
        <ele>1876.83</ele>
        <time>2022-12-12T09:33:53Z</time>
      </trkpt>
      <trkpt lat="44.91442" lon="6.80398">
        <ele>1886.75</ele>
        <time>2022-12-12T09:34:02Z</time>
      </trkpt>
      <trkpt lat="44.91441" lon="6.80391">
        <ele>1888.1</ele>
        <time>2022-12-12T09:34:11Z</time>
      </trkpt>
      <trkpt lat="44.91441" lon="6.80384">
        <ele>1887.13</ele>
        <time>2022-12-12T09:34:21Z</time>
      </trkpt>
      <trkpt lat="44.91439" lon="6.80377">
        <ele>1889.96</ele>
        <time>2022-12-12T09:34:30Z</time>
      </trkpt>
      <trkpt lat="44.91438" lon="6.80369">
        <ele>1882.43</ele>
        <time>2022-12-12T09:34:40Z</time>
      </trkpt>
      <trkpt lat="44.91436" lon="6.80362">
        <ele>1893.34</ele>
        <time>2022-12-12T09:34:49Z</time>
      </trkpt>
      <trkpt lat="44.91429" lon="6.80346">
        <ele>1880.63</ele>
        <time>2022-12-12T09:34:59Z</time>
      </trkpt>
      <trkpt lat="44.91424" lon="6.80338">
        <ele>1876.37</ele>
        <time>2022-12-12T09:35:08Z</time>
      </trkpt>
      <trkpt lat="44.91418" lon="6.80329">
        <ele>1873.77</ele>
        <time>2022-12-12T09:35:18Z</time>
      </trkpt>
      <trkpt lat="44.91414" lon="6.80321">
        <ele>1878.96</ele>
        <time>2022-12-12T09:35:27Z</time>
      </trkpt>
      <trkpt lat="44.91412" lon="6.80316">
        <ele>1874.95</ele>
        <time>2022-12-12T09:35:36Z</time>
      </trkpt>
      <trkpt lat="44.91414" lon="6.8031">
        <ele>1876.45</ele>
        <time>2022-12-12T09:35:45Z</time>
      </trkpt>
      <trkpt lat="44.91415" lon="6.80304">
        <ele>1886.76</ele>
        <time>2022-12-12T09:35:55Z</time>
      </trkpt>
      <trkpt lat="44.91419" lon="6.80296">
        <ele>1890.96</ele>
        <time>2022-12-12T09:36:04Z</time>
      </trkpt>
      <trkpt lat="44.91421" lon="6.80288">
        <ele>1903.04</ele>
        <time>2022-12-12T09:36:13Z</time>
      </trkpt>
      <trkpt lat="44.91418" lon="6.80279">
        <ele>1901.02</ele>
        <time>2022-12-12T09:36:23Z</time>
      </trkpt>
      <trkpt lat="44.91414" lon="6.80274">
        <ele>1904.59</ele>
        <time>2022-12-12T09:36:33Z</time>
      </trkpt>
      <trkpt lat="44.91411" lon="6.80265">
        <ele>1906.36</ele>
        <time>2022-12-12T09:36:43Z</time>
      </trkpt>
      <trkpt lat="44.91408" lon="6.80258">
        <ele>1910.57</ele>
        <time>2022-12-12T09:36:53Z</time>
      </trkpt>
      <trkpt lat="44.91408" lon="6.80252">
        <ele>1907.78</ele>
        <time>2022-12-12T09:37:02Z</time>
      </trkpt>
      <trkpt lat="44.91405" lon="6.80248">
        <ele>1912</ele>
        <time>2022-12-12T09:37:12Z</time>
      </trkpt>
      <trkpt lat="44.91402" lon="6.80244">
        <ele>1910.28</ele>
        <time>2022-12-12T09:37:21Z</time>
      </trkpt>
      <trkpt lat="44.91398" lon="6.80236">
        <ele>1904.27</ele>
        <time>2022-12-12T09:37:31Z</time>
      </trkpt>
      <trkpt lat="44.91394" lon="6.80228">
        <ele>1907.33</ele>
        <time>2022-12-12T09:37:40Z</time>
      </trkpt>
      <trkpt lat="44.91395" lon="6.80226">
        <ele>1910.35</ele>
        <time>2022-12-12T09:37:49Z</time>
      </trkpt>
      <trkpt lat="44.91394" lon="6.80219">
        <ele>1911.24</ele>
        <time>2022-12-12T09:37:58Z</time>
      </trkpt>
      <trkpt lat="44.91392" lon="6.80215">
        <ele>1911.45</ele>
        <time>2022-12-12T09:38:08Z</time>
      </trkpt>
      <trkpt lat="44.91392" lon="6.8021">
        <ele>1919.88</ele>
        <time>2022-12-12T09:38:17Z</time>
      </trkpt>
      <trkpt lat="44.91391" lon="6.80206">
        <ele>1922.8</ele>
        <time>2022-12-12T09:38:26Z</time>
      </trkpt>
      <trkpt lat="44.9139" lon="6.80202">
        <ele>1924.44</ele>
        <time>2022-12-12T09:38:35Z</time>
      </trkpt>
      <trkpt lat="44.91388" lon="6.80199">
        <ele>1924.11</ele>
        <time>2022-12-12T09:38:45Z</time>
      </trkpt>
      <trkpt lat="44.91385" lon="6.80195">
        <ele>1924.68</ele>
        <time>2022-12-12T09:38:54Z</time>
      </trkpt>
      <trkpt lat="44.91385" lon="6.8019">
        <ele>1924.34</ele>
        <time>2022-12-12T09:39:03Z</time>
      </trkpt>
      <trkpt lat="44.91384" lon="6.80186">
        <ele>1924.63</ele>
        <time>2022-12-12T09:39:13Z</time>
      </trkpt>
      <trkpt lat="44.91383" lon="6.80182">
        <ele>1925.75</ele>
        <time>2022-12-12T09:39:23Z</time>
      </trkpt>
      <trkpt lat="44.91382" lon="6.80179">
        <ele>1924.7</ele>
        <time>2022-12-12T09:39:32Z</time>
      </trkpt>
      <trkpt lat="44.9138" lon="6.80176">
        <ele>1809.31</ele>
        <time>2022-12-12T09:39:42Z</time>
      </trkpt>
      <trkpt lat="44.91377" lon="6.80173">
        <ele>1926.5</ele>
        <time>2022-12-12T09:39:51Z</time>
      </trkpt>
      <trkpt lat="44.91373" lon="6.80169">
        <ele>1926.75</ele>
        <time>2022-12-12T09:40:01Z</time>
      </trkpt>
      <trkpt lat="44.9137" lon="6.80165">
        <ele>1926.5</ele>
        <time>2022-12-12T09:40:10Z</time>
      </trkpt>
      <trkpt lat="44.91367" lon="6.80162">
        <ele>1928.18</ele>
        <time>2022-12-12T09:40:20Z</time>
      </trkpt>
      <trkpt lat="44.91363" lon="6.80162">
        <ele>1927.22</ele>
        <time>2022-12-12T09:40:29Z</time>
      </trkpt>
      <trkpt lat="44.91359" lon="6.80162">
        <ele>1928.94</ele>
        <time>2022-12-12T09:40:38Z</time>
      </trkpt>
      <trkpt lat="44.91357" lon="6.80162">
        <ele>1930.07</ele>
        <time>2022-12-12T09:40:47Z</time>
      </trkpt>
      <trkpt lat="44.91354" lon="6.80163">
        <ele>1927.94</ele>
        <time>2022-12-12T09:40:56Z</time>
      </trkpt>
      <trkpt lat="44.91348" lon="6.80163">
        <ele>1927.19</ele>
        <time>2022-12-12T09:41:06Z</time>
      </trkpt>
      <trkpt lat="44.91343" lon="6.80162">
        <ele>1927.19</ele>
        <time>2022-12-12T09:41:15Z</time>
      </trkpt>
      <trkpt lat="44.91339" lon="6.80158">
        <ele>1932.03</ele>
        <time>2022-12-12T09:41:24Z</time>
      </trkpt>
      <trkpt lat="44.91338" lon="6.80156">
        <ele>1932.38</ele>
        <time>2022-12-12T09:41:33Z</time>
      </trkpt>
      <trkpt lat="44.91336" lon="6.80153">
        <ele>1932.71</ele>
        <time>2022-12-12T09:41:42Z</time>
      </trkpt>
      <trkpt lat="44.91334" lon="6.80147">
        <ele>1889.21</ele>
        <time>2022-12-12T09:41:52Z</time>
      </trkpt>
      <trkpt lat="44.91332" lon="6.80143">
        <ele>1907.84</ele>
        <time>2022-12-12T09:42:01Z</time>
      </trkpt>
      <trkpt lat="44.91329" lon="6.80137">
        <ele>1934.48</ele>
        <time>2022-12-12T09:42:10Z</time>
      </trkpt>
      <trkpt lat="44.91324" lon="6.80132">
        <ele>1934.8</ele>
        <time>2022-12-12T09:42:19Z</time>
      </trkpt>
      <trkpt lat="44.91323" lon="6.80126">
        <ele>1934.44</ele>
        <time>2022-12-12T09:42:29Z</time>
      </trkpt>
      <trkpt lat="44.91317" lon="6.80122">
        <ele>1934.06</ele>
        <time>2022-12-12T09:42:38Z</time>
      </trkpt>
      <trkpt lat="44.91314" lon="6.80116">
        <ele>1851.17</ele>
        <time>2022-12-12T09:42:47Z</time>
      </trkpt>
      <trkpt lat="44.91312" lon="6.80111">
        <ele>1898.87</ele>
        <time>2022-12-12T09:42:56Z</time>
      </trkpt>
      <trkpt lat="44.91307" lon="6.80104">
        <ele>1935.52</ele>
        <time>2022-12-12T09:43:06Z</time>
      </trkpt>
      <trkpt lat="44.91304" lon="6.80099">
        <ele>1934.28</ele>
        <time>2022-12-12T09:43:15Z</time>
      </trkpt>
      <trkpt lat="44.91299" lon="6.80093">
        <ele>1936.04</ele>
        <time>2022-12-12T09:43:24Z</time>
      </trkpt>
      <trkpt lat="44.91294" lon="6.80089">
        <ele>1934.21</ele>
        <time>2022-12-12T09:43:34Z</time>
      </trkpt>
      <trkpt lat="44.91292" lon="6.80084">
        <ele>1936.54</ele>
        <time>2022-12-12T09:43:43Z</time>
      </trkpt>
      <trkpt lat="44.91291" lon="6.80078">
        <ele>1934.38</ele>
        <time>2022-12-12T09:43:52Z</time>
      </trkpt>
      <trkpt lat="44.91293" lon="6.80072">
        <ele>1934.34</ele>
        <time>2022-12-12T09:44:02Z</time>
      </trkpt>
      <trkpt lat="44.91292" lon="6.80067">
        <ele>1935.08</ele>
        <time>2022-12-12T09:44:11Z</time>
      </trkpt>
      <trkpt lat="44.91288" lon="6.80061">
        <ele>1937.08</ele>
        <time>2022-12-12T09:44:20Z</time>
      </trkpt>
      <trkpt lat="44.91286" lon="6.80053">
        <ele>1939.61</ele>
        <time>2022-12-12T09:44:30Z</time>
      </trkpt>
      <trkpt lat="44.91286" lon="6.80047">
        <ele>1939.7</ele>
        <time>2022-12-12T09:44:39Z</time>
      </trkpt>
      <trkpt lat="44.91286" lon="6.8004">
        <ele>1854.37</ele>
        <time>2022-12-12T09:44:48Z</time>
      </trkpt>
      <trkpt lat="44.91286" lon="6.80027">
        <ele>1869.04</ele>
        <time>2022-12-12T09:44:58Z</time>
      </trkpt>
      <trkpt lat="44.91287" lon="6.80018">
        <ele>1821.09</ele>
        <time>2022-12-12T09:45:07Z</time>
      </trkpt>
      <trkpt lat="44.91287" lon="6.80008">
        <ele>1871.06</ele>
        <time>2022-12-12T09:45:17Z</time>
      </trkpt>
      <trkpt lat="44.91288" lon="6.8">
        <ele>1853.8</ele>
        <time>2022-12-12T09:45:26Z</time>
      </trkpt>
      <trkpt lat="44.91286" lon="6.79994">
        <ele>1934.99</ele>
        <time>2022-12-12T09:45:36Z</time>
      </trkpt>
      <trkpt lat="44.91285" lon="6.79986">
        <ele>1937.85</ele>
        <time>2022-12-12T09:45:45Z</time>
      </trkpt>
      <trkpt lat="44.91285" lon="6.79981">
        <ele>1932.46</ele>
        <time>2022-12-12T09:45:55Z</time>
      </trkpt>
      <trkpt lat="44.91284" lon="6.79974">
        <ele>1942.96</ele>
        <time>2022-12-12T09:46:04Z</time>
      </trkpt>
      <trkpt lat="44.91282" lon="6.79969">
        <ele>1943.93</ele>
        <time>2022-12-12T09:46:14Z</time>
      </trkpt>
      <trkpt lat="44.91277" lon="6.79958">
        <ele>1944.01</ele>
        <time>2022-12-12T09:46:23Z</time>
      </trkpt>
      <trkpt lat="44.91275" lon="6.79953">
        <ele>1939.95</ele>
        <time>2022-12-12T09:46:32Z</time>
      </trkpt>
      <trkpt lat="44.9127" lon="6.79947">
        <ele>1942.56</ele>
        <time>2022-12-12T09:46:42Z</time>
      </trkpt>
      <trkpt lat="44.91266" lon="6.79942">
        <ele>1933.55</ele>
        <time>2022-12-12T09:46:51Z</time>
      </trkpt>
      <trkpt lat="44.91262" lon="6.79938">
        <ele>1934.87</ele>
        <time>2022-12-12T09:47:00Z</time>
      </trkpt>
      <trkpt lat="44.91258" lon="6.79934">
        <ele>1932.76</ele>
        <time>2022-12-12T09:47:10Z</time>
      </trkpt>
      <trkpt lat="44.91254" lon="6.79929">
        <ele>1940.06</ele>
        <time>2022-12-12T09:47:19Z</time>
      </trkpt>
      <trkpt lat="44.91249" lon="6.79928">
        <ele>1955.72</ele>
        <time>2022-12-12T09:47:28Z</time>
      </trkpt>
      <trkpt lat="44.91245" lon="6.79929">
        <ele>1954.68</ele>
        <time>2022-12-12T09:47:38Z</time>
      </trkpt>
      <trkpt lat="44.91238" lon="6.7993">
        <ele>1953.86</ele>
        <time>2022-12-12T09:47:47Z</time>
      </trkpt>
      <trkpt lat="44.91231" lon="6.79931">
        <ele>1952.2</ele>
        <time>2022-12-12T09:47:57Z</time>
      </trkpt>
      <trkpt lat="44.91227" lon="6.79932">
        <ele>1953</ele>
        <time>2022-12-12T09:48:06Z</time>
      </trkpt>
      <trkpt lat="44.91223" lon="6.79932">
        <ele>1950.72</ele>
        <time>2022-12-12T09:48:16Z</time>
      </trkpt>
      <trkpt lat="44.91217" lon="6.79931">
        <ele>1947.58</ele>
        <time>2022-12-12T09:48:26Z</time>
      </trkpt>
      <trkpt lat="44.91214" lon="6.79934">
        <ele>1950.86</ele>
        <time>2022-12-12T09:48:35Z</time>
      </trkpt>
      <trkpt lat="44.91214" lon="6.79937">
        <ele>1954.41</ele>
        <time>2022-12-12T09:48:44Z</time>
      </trkpt>
      <trkpt lat="44.91215" lon="6.79937">
        <ele>1952.74</ele>
        <time>2022-12-12T09:48:53Z</time>
      </trkpt>
      <trkpt lat="44.91216" lon="6.79937">
        <ele>1953.18</ele>
        <time>2022-12-12T09:49:03Z</time>
      </trkpt>
      <trkpt lat="44.91216" lon="6.79939">
        <ele>1953.62</ele>
        <time>2022-12-12T09:49:12Z</time>
      </trkpt>
      <trkpt lat="44.91218" lon="6.79939">
        <ele>1954.4</ele>
        <time>2022-12-12T09:49:21Z</time>
      </trkpt>
      <trkpt lat="44.91221" lon="6.79938">
        <ele>1954.83</ele>
        <time>2022-12-12T09:49:30Z</time>
      </trkpt>
      <trkpt lat="44.91222" lon="6.79938">
        <ele>1954.85</ele>
        <time>2022-12-12T09:49:40Z</time>
      </trkpt>
      <trkpt lat="44.91223" lon="6.79938">
        <ele>1960.62</ele>
        <time>2022-12-12T09:50:06Z</time>
      </trkpt>
      <trkpt lat="44.91224" lon="6.79937">
        <ele>1961.77</ele>
        <time>2022-12-12T09:50:26Z</time>
      </trkpt>
      <trkpt lat="44.91225" lon="6.79937">
        <ele>1962.49</ele>
        <time>2022-12-12T09:50:46Z</time>
      </trkpt>
      <trkpt lat="44.91226" lon="6.79938">
        <ele>1960.04</ele>
        <time>2022-12-12T09:50:56Z</time>
      </trkpt>
      <trkpt lat="44.91226" lon="6.79939">
        <ele>1964.13</ele>
        <time>2022-12-12T09:52:17Z</time>
      </trkpt>
      <trkpt lat="44.91226" lon="6.7994">
        <ele>1966.43</ele>
        <time>2022-12-12T09:53:06Z</time>
      </trkpt>
      <trkpt lat="44.91226" lon="6.79939">
        <ele>1967.85</ele>
        <time>2022-12-12T09:53:23Z</time>
      </trkpt>
      <trkpt lat="44.91225" lon="6.79938">
        <ele>1967.84</ele>
        <time>2022-12-12T09:53:52Z</time>
      </trkpt>
      <trkpt lat="44.91226" lon="6.79936">
        <ele>1967.43</ele>
        <time>2022-12-12T09:54:11Z</time>
      </trkpt>
      <trkpt lat="44.91226" lon="6.79935">
        <ele>1964.16</ele>
        <time>2022-12-12T09:54:25Z</time>
      </trkpt>
      <trkpt lat="44.91226" lon="6.79934">
        <ele>1964.18</ele>
        <time>2022-12-12T09:54:35Z</time>
      </trkpt>
      <trkpt lat="44.91219" lon="6.79937">
        <ele>1968.69</ele>
        <time>2022-12-12T09:54:44Z</time>
      </trkpt>
      <trkpt lat="44.91213" lon="6.79943">
        <ele>1962.03</ele>
        <time>2022-12-12T09:54:53Z</time>
      </trkpt>
      <trkpt lat="44.91208" lon="6.79945">
        <ele>1964.62</ele>
        <time>2022-12-12T09:55:02Z</time>
      </trkpt>
      <trkpt lat="44.91203" lon="6.79947">
        <ele>1962.89</ele>
        <time>2022-12-12T09:55:12Z</time>
      </trkpt>
      <trkpt lat="44.91199" lon="6.7995">
        <ele>1969.3</ele>
        <time>2022-12-12T09:55:21Z</time>
      </trkpt>
      <trkpt lat="44.91195" lon="6.79955">
        <ele>1964.06</ele>
        <time>2022-12-12T09:55:30Z</time>
      </trkpt>
      <trkpt lat="44.91189" lon="6.79961">
        <ele>1969.35</ele>
        <time>2022-12-12T09:55:40Z</time>
      </trkpt>
      <trkpt lat="44.91182" lon="6.79965">
        <ele>1965.71</ele>
        <time>2022-12-12T09:55:49Z</time>
      </trkpt>
      <trkpt lat="44.91179" lon="6.79969">
        <ele>1966.02</ele>
        <time>2022-12-12T09:55:58Z</time>
      </trkpt>
      <trkpt lat="44.91176" lon="6.79972">
        <ele>1955.86</ele>
        <time>2022-12-12T09:56:08Z</time>
      </trkpt>
      <trkpt lat="44.9117" lon="6.79977">
        <ele>1968.43</ele>
        <time>2022-12-12T09:56:17Z</time>
      </trkpt>
      <trkpt lat="44.91163" lon="6.7998">
        <ele>1963.84</ele>
        <time>2022-12-12T09:56:26Z</time>
      </trkpt>
      <trkpt lat="44.91156" lon="6.79984">
        <ele>1953.97</ele>
        <time>2022-12-12T09:56:35Z</time>
      </trkpt>
      <trkpt lat="44.91153" lon="6.7999">
        <ele>1965.41</ele>
        <time>2022-12-12T09:56:45Z</time>
      </trkpt>
      <trkpt lat="44.9115" lon="6.79996">
        <ele>1966.64</ele>
        <time>2022-12-12T09:56:54Z</time>
      </trkpt>
      <trkpt lat="44.91146" lon="6.80001">
        <ele>1966.23</ele>
        <time>2022-12-12T09:57:03Z</time>
      </trkpt>
      <trkpt lat="44.91143" lon="6.80002">
        <ele>1970.63</ele>
        <time>2022-12-12T09:57:13Z</time>
      </trkpt>
      <trkpt lat="44.91137" lon="6.80005">
        <ele>1930.12</ele>
        <time>2022-12-12T09:57:22Z</time>
      </trkpt>
      <trkpt lat="44.91131" lon="6.80008">
        <ele>1897.89</ele>
        <time>2022-12-12T09:57:31Z</time>
      </trkpt>
      <trkpt lat="44.91129" lon="6.80013">
        <ele>1958.45</ele>
        <time>2022-12-12T09:57:40Z</time>
      </trkpt>
      <trkpt lat="44.91125" lon="6.80019">
        <ele>1944.13</ele>
        <time>2022-12-12T09:57:49Z</time>
      </trkpt>
      <trkpt lat="44.91121" lon="6.80027">
        <ele>1965.72</ele>
        <time>2022-12-12T09:57:58Z</time>
      </trkpt>
      <trkpt lat="44.91116" lon="6.80034">
        <ele>1976.81</ele>
        <time>2022-12-12T09:58:08Z</time>
      </trkpt>
      <trkpt lat="44.9111" lon="6.8004">
        <ele>1966.21</ele>
        <time>2022-12-12T09:58:17Z</time>
      </trkpt>
      <trkpt lat="44.91106" lon="6.80043">
        <ele>1977.87</ele>
        <time>2022-12-12T09:58:26Z</time>
      </trkpt>
      <trkpt lat="44.911" lon="6.80042">
        <ele>1968.93</ele>
        <time>2022-12-12T09:58:35Z</time>
      </trkpt>
      <trkpt lat="44.91094" lon="6.80038">
        <ele>1980.26</ele>
        <time>2022-12-12T09:58:45Z</time>
      </trkpt>
      <trkpt lat="44.91089" lon="6.80034">
        <ele>1973.52</ele>
        <time>2022-12-12T09:58:54Z</time>
      </trkpt>
      <trkpt lat="44.91084" lon="6.80031">
        <ele>1977.4</ele>
        <time>2022-12-12T09:59:04Z</time>
      </trkpt>
      <trkpt lat="44.91079" lon="6.80028">
        <ele>1966.74</ele>
        <time>2022-12-12T09:59:13Z</time>
      </trkpt>
      <trkpt lat="44.91074" lon="6.80024">
        <ele>1979.1</ele>
        <time>2022-12-12T09:59:22Z</time>
      </trkpt>
      <trkpt lat="44.91069" lon="6.80022">
        <ele>1979.29</ele>
        <time>2022-12-12T09:59:31Z</time>
      </trkpt>
      <trkpt lat="44.9106" lon="6.80021">
        <ele>1971.65</ele>
        <time>2022-12-12T09:59:41Z</time>
      </trkpt>
      <trkpt lat="44.91054" lon="6.80022">
        <ele>1975.71</ele>
        <time>2022-12-12T09:59:51Z</time>
      </trkpt>
      <trkpt lat="44.9105" lon="6.80024">
        <ele>1906.62</ele>
        <time>2022-12-12T10:00:00Z</time>
      </trkpt>
      <trkpt lat="44.91045" lon="6.80025">
        <ele>1981.29</ele>
        <time>2022-12-12T10:00:09Z</time>
      </trkpt>
      <trkpt lat="44.91042" lon="6.80028">
        <ele>1981.75</ele>
        <time>2022-12-12T10:00:18Z</time>
      </trkpt>
      <trkpt lat="44.91037" lon="6.80029">
        <ele>1983.69</ele>
        <time>2022-12-12T10:00:27Z</time>
      </trkpt>
      <trkpt lat="44.91033" lon="6.8003">
        <ele>1984.57</ele>
        <time>2022-12-12T10:00:37Z</time>
      </trkpt>
      <trkpt lat="44.91028" lon="6.80033">
        <ele>1981.44</ele>
        <time>2022-12-12T10:00:46Z</time>
      </trkpt>
      <trkpt lat="44.91022" lon="6.80034">
        <ele>1966.13</ele>
        <time>2022-12-12T10:00:55Z</time>
      </trkpt>
      <trkpt lat="44.91017" lon="6.80036">
        <ele>1922.38</ele>
        <time>2022-12-12T10:01:05Z</time>
      </trkpt>
      <trkpt lat="44.9101" lon="6.80034">
        <ele>1966.02</ele>
        <time>2022-12-12T10:01:14Z</time>
      </trkpt>
      <trkpt lat="44.91005" lon="6.80033">
        <ele>1937.03</ele>
        <time>2022-12-12T10:01:23Z</time>
      </trkpt>
      <trkpt lat="44.91" lon="6.80031">
        <ele>1988.7</ele>
        <time>2022-12-12T10:01:32Z</time>
      </trkpt>
      <trkpt lat="44.90995" lon="6.80027">
        <ele>1988.15</ele>
        <time>2022-12-12T10:01:42Z</time>
      </trkpt>
      <trkpt lat="44.9099" lon="6.80025">
        <ele>1989.89</ele>
        <time>2022-12-12T10:01:51Z</time>
      </trkpt>
      <trkpt lat="44.90986" lon="6.80022">
        <ele>1987.79</ele>
        <time>2022-12-12T10:02:00Z</time>
      </trkpt>
      <trkpt lat="44.90981" lon="6.80019">
        <ele>1969.81</ele>
        <time>2022-12-12T10:02:10Z</time>
      </trkpt>
      <trkpt lat="44.90975" lon="6.80016">
        <ele>1985.53</ele>
        <time>2022-12-12T10:02:19Z</time>
      </trkpt>
      <trkpt lat="44.9097" lon="6.80014">
        <ele>1978.91</ele>
        <time>2022-12-12T10:02:28Z</time>
      </trkpt>
      <trkpt lat="44.90962" lon="6.80011">
        <ele>1983.11</ele>
        <time>2022-12-12T10:02:38Z</time>
      </trkpt>
      <trkpt lat="44.90957" lon="6.80008">
        <ele>1987.48</ele>
        <time>2022-12-12T10:02:47Z</time>
      </trkpt>
      <trkpt lat="44.90951" lon="6.80004">
        <ele>1973.31</ele>
        <time>2022-12-12T10:02:56Z</time>
      </trkpt>
      <trkpt lat="44.90945" lon="6.8">
        <ele>1973.32</ele>
        <time>2022-12-12T10:03:06Z</time>
      </trkpt>
      <trkpt lat="44.90941" lon="6.79996">
        <ele>1982.45</ele>
        <time>2022-12-12T10:03:15Z</time>
      </trkpt>
      <trkpt lat="44.90935" lon="6.79992">
        <ele>1978.05</ele>
        <time>2022-12-12T10:03:24Z</time>
      </trkpt>
      <trkpt lat="44.9093" lon="6.79988">
        <ele>1978.16</ele>
        <time>2022-12-12T10:03:33Z</time>
      </trkpt>
      <trkpt lat="44.90923" lon="6.79984">
        <ele>1971.53</ele>
        <time>2022-12-12T10:03:43Z</time>
      </trkpt>
      <trkpt lat="44.90918" lon="6.7998">
        <ele>1995.14</ele>
        <time>2022-12-12T10:03:52Z</time>
      </trkpt>
      <trkpt lat="44.90913" lon="6.79973">
        <ele>1999.02</ele>
        <time>2022-12-12T10:04:02Z</time>
      </trkpt>
      <trkpt lat="44.9091" lon="6.79966">
        <ele>1995.46</ele>
        <time>2022-12-12T10:04:11Z</time>
      </trkpt>
      <trkpt lat="44.90911" lon="6.79957">
        <ele>1977.14</ele>
        <time>2022-12-12T10:04:20Z</time>
      </trkpt>
      <trkpt lat="44.90916" lon="6.79951">
        <ele>1987.49</ele>
        <time>2022-12-12T10:04:29Z</time>
      </trkpt>
      <trkpt lat="44.9092" lon="6.7995">
        <ele>1973.69</ele>
        <time>2022-12-12T10:04:38Z</time>
      </trkpt>
      <trkpt lat="44.90925" lon="6.79952">
        <ele>1960.12</ele>
        <time>2022-12-12T10:04:48Z</time>
      </trkpt>
      <trkpt lat="44.90926" lon="6.79952">
        <ele>1956.72</ele>
        <time>2022-12-12T10:04:57Z</time>
      </trkpt>
      <trkpt lat="44.90928" lon="6.79952">
        <ele>1977.68</ele>
        <time>2022-12-12T10:05:07Z</time>
      </trkpt>
      <trkpt lat="44.90928" lon="6.7995">
        <ele>1980.13</ele>
        <time>2022-12-12T10:05:30Z</time>
      </trkpt>
      <trkpt lat="44.90927" lon="6.7995">
        <ele>1950.38</ele>
        <time>2022-12-12T10:06:46Z</time>
      </trkpt>
      <trkpt lat="44.90926" lon="6.79949">
        <ele>1965.92</ele>
        <time>2022-12-12T10:07:03Z</time>
      </trkpt>
      <trkpt lat="44.90925" lon="6.79949">
        <ele>1970.59</ele>
        <time>2022-12-12T10:07:40Z</time>
      </trkpt>
      <trkpt lat="44.90924" lon="6.79948">
        <ele>1963.93</ele>
        <time>2022-12-12T10:07:50Z</time>
      </trkpt>
      <trkpt lat="44.90923" lon="6.79947">
        <ele>1980.16</ele>
        <time>2022-12-12T10:08:08Z</time>
      </trkpt>
      <trkpt lat="44.90922" lon="6.79947">
        <ele>1980.6</ele>
        <time>2022-12-12T10:09:27Z</time>
      </trkpt>
      <trkpt lat="44.90921" lon="6.79946">
        <ele>1981.2</ele>
        <time>2022-12-12T10:09:37Z</time>
      </trkpt>
      <trkpt lat="44.90919" lon="6.79945">
        <ele>1983.29</ele>
        <time>2022-12-12T10:09:47Z</time>
      </trkpt>
      <trkpt lat="44.90919" lon="6.79944">
        <ele>1984.6</ele>
        <time>2022-12-12T10:09:58Z</time>
      </trkpt>
      <trkpt lat="44.90918" lon="6.79945">
        <ele>1968.71</ele>
        <time>2022-12-12T10:10:08Z</time>
      </trkpt>
      <trkpt lat="44.90917" lon="6.79945">
        <ele>1975.57</ele>
        <time>2022-12-12T10:10:17Z</time>
      </trkpt>
      <trkpt lat="44.90919" lon="6.79946">
        <ele>1989.63</ele>
        <time>2022-12-12T10:10:27Z</time>
      </trkpt>
      <trkpt lat="44.90912" lon="6.79946">
        <ele>1989.74</ele>
        <time>2022-12-12T10:10:36Z</time>
      </trkpt>
      <trkpt lat="44.90901" lon="6.79952">
        <ele>1978.04</ele>
        <time>2022-12-12T10:10:45Z</time>
      </trkpt>
      <trkpt lat="44.90895" lon="6.7996">
        <ele>1984.62</ele>
        <time>2022-12-12T10:10:55Z</time>
      </trkpt>
      <trkpt lat="44.90888" lon="6.79953">
        <ele>1982.58</ele>
        <time>2022-12-12T10:11:04Z</time>
      </trkpt>
      <trkpt lat="44.90882" lon="6.79949">
        <ele>1989.67</ele>
        <time>2022-12-12T10:11:14Z</time>
      </trkpt>
      <trkpt lat="44.90875" lon="6.79946">
        <ele>2003.06</ele>
        <time>2022-12-12T10:11:24Z</time>
      </trkpt>
      <trkpt lat="44.90869" lon="6.79942">
        <ele>1966.09</ele>
        <time>2022-12-12T10:11:33Z</time>
      </trkpt>
      <trkpt lat="44.90863" lon="6.79938">
        <ele>1966.71</ele>
        <time>2022-12-12T10:11:42Z</time>
      </trkpt>
      <trkpt lat="44.90854" lon="6.79936">
        <ele>1927.07</ele>
        <time>2022-12-12T10:11:51Z</time>
      </trkpt>
      <trkpt lat="44.90848" lon="6.79936">
        <ele>2002.16</ele>
        <time>2022-12-12T10:12:01Z</time>
      </trkpt>
      <trkpt lat="44.90842" lon="6.79936">
        <ele>2000.49</ele>
        <time>2022-12-12T10:12:10Z</time>
      </trkpt>
      <trkpt lat="44.9083" lon="6.79935">
        <ele>1991.39</ele>
        <time>2022-12-12T10:12:19Z</time>
      </trkpt>
      <trkpt lat="44.90818" lon="6.79936">
        <ele>1822.68</ele>
        <time>2022-12-12T10:12:28Z</time>
      </trkpt>
      <trkpt lat="44.9081" lon="6.79934">
        <ele>1994.98</ele>
        <time>2022-12-12T10:12:38Z</time>
      </trkpt>
      <trkpt lat="44.90802" lon="6.79933">
        <ele>1992.08</ele>
        <time>2022-12-12T10:12:47Z</time>
      </trkpt>
      <trkpt lat="44.90795" lon="6.7993">
        <ele>2002.51</ele>
        <time>2022-12-12T10:12:56Z</time>
      </trkpt>
      <trkpt lat="44.90787" lon="6.79929">
        <ele>2003.23</ele>
        <time>2022-12-12T10:13:05Z</time>
      </trkpt>
      <trkpt lat="44.9078" lon="6.79926">
        <ele>2005.37</ele>
        <time>2022-12-12T10:13:15Z</time>
      </trkpt>
      <trkpt lat="44.90773" lon="6.79924">
        <ele>1991.89</ele>
        <time>2022-12-12T10:13:24Z</time>
      </trkpt>
      <trkpt lat="44.90766" lon="6.7992">
        <ele>2000.95</ele>
        <time>2022-12-12T10:13:33Z</time>
      </trkpt>
      <trkpt lat="44.90758" lon="6.79918">
        <ele>2000.55</ele>
        <time>2022-12-12T10:13:42Z</time>
      </trkpt>
      <trkpt lat="44.90751" lon="6.79916">
        <ele>1999.28</ele>
        <time>2022-12-12T10:13:51Z</time>
      </trkpt>
      <trkpt lat="44.90742" lon="6.79917">
        <ele>1933.66</ele>
        <time>2022-12-12T10:14:01Z</time>
      </trkpt>
      <trkpt lat="44.90735" lon="6.79921">
        <ele>1942.08</ele>
        <time>2022-12-12T10:14:10Z</time>
      </trkpt>
      <trkpt lat="44.9073" lon="6.79925">
        <ele>1939.91</ele>
        <time>2022-12-12T10:14:19Z</time>
      </trkpt>
      <trkpt lat="44.90722" lon="6.79931">
        <ele>1912.86</ele>
        <time>2022-12-12T10:14:29Z</time>
      </trkpt>
      <trkpt lat="44.90714" lon="6.79931">
        <ele>1919.48</ele>
        <time>2022-12-12T10:14:38Z</time>
      </trkpt>
      <trkpt lat="44.90708" lon="6.79931">
        <ele>1876.1</ele>
        <time>2022-12-12T10:14:47Z</time>
      </trkpt>
      <trkpt lat="44.90701" lon="6.79931">
        <ele>1928.77</ele>
        <time>2022-12-12T10:14:56Z</time>
      </trkpt>
      <trkpt lat="44.90694" lon="6.79928">
        <ele>1977.54</ele>
        <time>2022-12-12T10:15:06Z</time>
      </trkpt>
      <trkpt lat="44.90686" lon="6.79923">
        <ele>1981.83</ele>
        <time>2022-12-12T10:15:15Z</time>
      </trkpt>
      <trkpt lat="44.9068" lon="6.79916">
        <ele>1963.68</ele>
        <time>2022-12-12T10:15:24Z</time>
      </trkpt>
      <trkpt lat="44.90678" lon="6.7991">
        <ele>1955.67</ele>
        <time>2022-12-12T10:15:33Z</time>
      </trkpt>
      <trkpt lat="44.90673" lon="6.79904">
        <ele>1923.14</ele>
        <time>2022-12-12T10:15:42Z</time>
      </trkpt>
      <trkpt lat="44.90669" lon="6.79902">
        <ele>1934.27</ele>
        <time>2022-12-12T10:15:52Z</time>
      </trkpt>
      <trkpt lat="44.90665" lon="6.79901">
        <ele>1967.26</ele>
        <time>2022-12-12T10:16:01Z</time>
      </trkpt>
      <trkpt lat="44.9066" lon="6.79903">
        <ele>1929.53</ele>
        <time>2022-12-12T10:16:10Z</time>
      </trkpt>
      <trkpt lat="44.90653" lon="6.79902">
        <ele>1964.51</ele>
        <time>2022-12-12T10:16:20Z</time>
      </trkpt>
      <trkpt lat="44.90644" lon="6.79903">
        <ele>1961.49</ele>
        <time>2022-12-12T10:16:29Z</time>
      </trkpt>
      <trkpt lat="44.90636" lon="6.79906">
        <ele>1987.93</ele>
        <time>2022-12-12T10:16:38Z</time>
      </trkpt>
      <trkpt lat="44.90629" lon="6.79908">
        <ele>1967.1</ele>
        <time>2022-12-12T10:16:48Z</time>
      </trkpt>
      <trkpt lat="44.90624" lon="6.7991">
        <ele>1983.23</ele>
        <time>2022-12-12T10:16:57Z</time>
      </trkpt>
      <trkpt lat="44.90617" lon="6.79914">
        <ele>1955.6</ele>
        <time>2022-12-12T10:17:07Z</time>
      </trkpt>
      <trkpt lat="44.90614" lon="6.79914">
        <ele>1982.32</ele>
        <time>2022-12-12T10:17:16Z</time>
      </trkpt>
      <trkpt lat="44.90612" lon="6.79916">
        <ele>1960.19</ele>
        <time>2022-12-12T10:17:25Z</time>
      </trkpt>
      <trkpt lat="44.90608" lon="6.79917">
        <ele>1984.78</ele>
        <time>2022-12-12T10:17:34Z</time>
      </trkpt>
      <trkpt lat="44.90602" lon="6.79916">
        <ele>1960.95</ele>
        <time>2022-12-12T10:17:43Z</time>
      </trkpt>
      <trkpt lat="44.90598" lon="6.79911">
        <ele>1983.46</ele>
        <time>2022-12-12T10:17:53Z</time>
      </trkpt>
      <trkpt lat="44.90597" lon="6.79904">
        <ele>1933.04</ele>
        <time>2022-12-12T10:18:02Z</time>
      </trkpt>
      <trkpt lat="44.90596" lon="6.79898">
        <ele>1967.52</ele>
        <time>2022-12-12T10:18:12Z</time>
      </trkpt>
      <trkpt lat="44.90596" lon="6.79893">
        <ele>1921.28</ele>
        <time>2022-12-12T10:18:21Z</time>
      </trkpt>
      <trkpt lat="44.90597" lon="6.79887">
        <ele>1975.04</ele>
        <time>2022-12-12T10:18:31Z</time>
      </trkpt>
      <trkpt lat="44.90593" lon="6.79879">
        <ele>1932.37</ele>
        <time>2022-12-12T10:18:41Z</time>
      </trkpt>
      <trkpt lat="44.90589" lon="6.79869">
        <ele>1999.47</ele>
        <time>2022-12-12T10:18:50Z</time>
      </trkpt>
      <trkpt lat="44.90587" lon="6.79864">
        <ele>2014.9</ele>
        <time>2022-12-12T10:18:59Z</time>
      </trkpt>
      <trkpt lat="44.90583" lon="6.79862">
        <ele>1985.29</ele>
        <time>2022-12-12T10:19:09Z</time>
      </trkpt>
      <trkpt lat="44.90579" lon="6.79858">
        <ele>1963.93</ele>
        <time>2022-12-12T10:19:18Z</time>
      </trkpt>
      <trkpt lat="44.90576" lon="6.79853">
        <ele>1951.08</ele>
        <time>2022-12-12T10:19:27Z</time>
      </trkpt>
      <trkpt lat="44.90575" lon="6.79848">
        <ele>1944.67</ele>
        <time>2022-12-12T10:19:36Z</time>
      </trkpt>
      <trkpt lat="44.90574" lon="6.79844">
        <ele>1945.46</ele>
        <time>2022-12-12T10:19:45Z</time>
      </trkpt>
      <trkpt lat="44.90576" lon="6.7984">
        <ele>1948.11</ele>
        <time>2022-12-12T10:19:55Z</time>
      </trkpt>
      <trkpt lat="44.90573" lon="6.79837">
        <ele>1948.91</ele>
        <time>2022-12-12T10:20:04Z</time>
      </trkpt>
      <trkpt lat="44.90567" lon="6.79834">
        <ele>1948.73</ele>
        <time>2022-12-12T10:20:13Z</time>
      </trkpt>
      <trkpt lat="44.90564" lon="6.7983">
        <ele>1941.52</ele>
        <time>2022-12-12T10:20:22Z</time>
      </trkpt>
      <trkpt lat="44.90561" lon="6.79824">
        <ele>1943.71</ele>
        <time>2022-12-12T10:20:31Z</time>
      </trkpt>
      <trkpt lat="44.90559" lon="6.79815">
        <ele>1934.41</ele>
        <time>2022-12-12T10:20:40Z</time>
      </trkpt>
      <trkpt lat="44.90557" lon="6.79804">
        <ele>1949.41</ele>
        <time>2022-12-12T10:20:50Z</time>
      </trkpt>
      <trkpt lat="44.90551" lon="6.79798">
        <ele>1955.54</ele>
        <time>2022-12-12T10:20:59Z</time>
      </trkpt>
      <trkpt lat="44.90545" lon="6.79795">
        <ele>1959.52</ele>
        <time>2022-12-12T10:21:08Z</time>
      </trkpt>
      <trkpt lat="44.90539" lon="6.79794">
        <ele>1950.28</ele>
        <time>2022-12-12T10:21:17Z</time>
      </trkpt>
      <trkpt lat="44.90533" lon="6.79792">
        <ele>1964.53</ele>
        <time>2022-12-12T10:21:27Z</time>
      </trkpt>
      <trkpt lat="44.90528" lon="6.79789">
        <ele>1967.95</ele>
        <time>2022-12-12T10:21:36Z</time>
      </trkpt>
      <trkpt lat="44.90522" lon="6.79786">
        <ele>1969.63</ele>
        <time>2022-12-12T10:21:45Z</time>
      </trkpt>
      <trkpt lat="44.90518" lon="6.79784">
        <ele>1955.15</ele>
        <time>2022-12-12T10:21:54Z</time>
      </trkpt>
      <trkpt lat="44.90511" lon="6.79782">
        <ele>1965.39</ele>
        <time>2022-12-12T10:22:04Z</time>
      </trkpt>
      <trkpt lat="44.90506" lon="6.79782">
        <ele>1950.93</ele>
        <time>2022-12-12T10:22:13Z</time>
      </trkpt>
      <trkpt lat="44.90501" lon="6.79781">
        <ele>1950.74</ele>
        <time>2022-12-12T10:22:23Z</time>
      </trkpt>
      <trkpt lat="44.90497" lon="6.79779">
        <ele>1953.08</ele>
        <time>2022-12-12T10:22:32Z</time>
      </trkpt>
      <trkpt lat="44.90491" lon="6.79777">
        <ele>1969.53</ele>
        <time>2022-12-12T10:22:41Z</time>
      </trkpt>
      <trkpt lat="44.90483" lon="6.79775">
        <ele>1966.58</ele>
        <time>2022-12-12T10:22:50Z</time>
      </trkpt>
      <trkpt lat="44.90476" lon="6.79773">
        <ele>1956.87</ele>
        <time>2022-12-12T10:22:59Z</time>
      </trkpt>
      <trkpt lat="44.90469" lon="6.7977">
        <ele>1958.89</ele>
        <time>2022-12-12T10:23:09Z</time>
      </trkpt>
      <trkpt lat="44.90464" lon="6.79767">
        <ele>1971.15</ele>
        <time>2022-12-12T10:23:18Z</time>
      </trkpt>
      <trkpt lat="44.90458" lon="6.79765">
        <ele>1973.56</ele>
        <time>2022-12-12T10:23:27Z</time>
      </trkpt>
      <trkpt lat="44.90453" lon="6.79762">
        <ele>1973.93</ele>
        <time>2022-12-12T10:23:37Z</time>
      </trkpt>
      <trkpt lat="44.90446" lon="6.79758">
        <ele>1916.41</ele>
        <time>2022-12-12T10:23:46Z</time>
      </trkpt>
      <trkpt lat="44.9044" lon="6.79752">
        <ele>1880.76</ele>
        <time>2022-12-12T10:23:56Z</time>
      </trkpt>
      <trkpt lat="44.90432" lon="6.79746">
        <ele>1901.25</ele>
        <time>2022-12-12T10:24:05Z</time>
      </trkpt>
      <trkpt lat="44.90423" lon="6.79737">
        <ele>1830.21</ele>
        <time>2022-12-12T10:24:14Z</time>
      </trkpt>
      <trkpt lat="44.90414" lon="6.79729">
        <ele>1853.38</ele>
        <time>2022-12-12T10:24:23Z</time>
      </trkpt>
      <trkpt lat="44.90404" lon="6.79716">
        <ele>1925.16</ele>
        <time>2022-12-12T10:24:33Z</time>
      </trkpt>
      <trkpt lat="44.90398" lon="6.79704">
        <ele>1938.21</ele>
        <time>2022-12-12T10:24:43Z</time>
      </trkpt>
      <trkpt lat="44.90394" lon="6.79697">
        <ele>1985.05</ele>
        <time>2022-12-12T10:24:52Z</time>
      </trkpt>
      <trkpt lat="44.90388" lon="6.79687">
        <ele>1997.66</ele>
        <time>2022-12-12T10:25:01Z</time>
      </trkpt>
      <trkpt lat="44.90383" lon="6.79679">
        <ele>1995.14</ele>
        <time>2022-12-12T10:25:10Z</time>
      </trkpt>
      <trkpt lat="44.90381" lon="6.79677">
        <ele>1977.6</ele>
        <time>2022-12-12T10:25:20Z</time>
      </trkpt>
      <trkpt lat="44.90379" lon="6.79676">
        <ele>1993.19</ele>
        <time>2022-12-12T10:25:29Z</time>
      </trkpt>
      <trkpt lat="44.90379" lon="6.79673">
        <ele>2006.4</ele>
        <time>2022-12-12T10:25:38Z</time>
      </trkpt>
      <trkpt lat="44.90379" lon="6.79672">
        <ele>2013.04</ele>
        <time>2022-12-12T10:26:31Z</time>
      </trkpt>
      <trkpt lat="44.9038" lon="6.79671">
        <ele>2012.05</ele>
        <time>2022-12-12T10:27:36Z</time>
      </trkpt>
      <trkpt lat="44.9038" lon="6.7967">
        <ele>2014.31</ele>
        <time>2022-12-12T10:28:27Z</time>
      </trkpt>
      <trkpt lat="44.90381" lon="6.79669">
        <ele>2015.9</ele>
        <time>2022-12-12T10:29:19Z</time>
      </trkpt>
      <trkpt lat="44.90375" lon="6.79667">
        <ele>1988.94</ele>
        <time>2022-12-12T10:29:28Z</time>
      </trkpt>
      <trkpt lat="44.90364" lon="6.79667">
        <ele>2008.16</ele>
        <time>2022-12-12T10:29:38Z</time>
      </trkpt>
      <trkpt lat="44.90358" lon="6.79667">
        <ele>2011.31</ele>
        <time>2022-12-12T10:29:47Z</time>
      </trkpt>
      <trkpt lat="44.90351" lon="6.79669">
        <ele>1991.55</ele>
        <time>2022-12-12T10:29:57Z</time>
      </trkpt>
      <trkpt lat="44.90343" lon="6.79671">
        <ele>1992.4</ele>
        <time>2022-12-12T10:30:06Z</time>
      </trkpt>
      <trkpt lat="44.90335" lon="6.79668">
        <ele>1983.91</ele>
        <time>2022-12-12T10:30:15Z</time>
      </trkpt>
      <trkpt lat="44.9033" lon="6.79665">
        <ele>2013.06</ele>
        <time>2022-12-12T10:30:25Z</time>
      </trkpt>
      <trkpt lat="44.90325" lon="6.79661">
        <ele>1984.24</ele>
        <time>2022-12-12T10:30:34Z</time>
      </trkpt>
      <trkpt lat="44.90318" lon="6.79656">
        <ele>2015.24</ele>
        <time>2022-12-12T10:30:43Z</time>
      </trkpt>
      <trkpt lat="44.9031" lon="6.79652">
        <ele>2016.16</ele>
        <time>2022-12-12T10:30:52Z</time>
      </trkpt>
      <trkpt lat="44.90303" lon="6.79648">
        <ele>2010.56</ele>
        <time>2022-12-12T10:31:02Z</time>
      </trkpt>
      <trkpt lat="44.90296" lon="6.79645">
        <ele>1987.13</ele>
        <time>2022-12-12T10:31:11Z</time>
      </trkpt>
      <trkpt lat="44.90289" lon="6.79642">
        <ele>2015.36</ele>
        <time>2022-12-12T10:31:20Z</time>
      </trkpt>
      <trkpt lat="44.90282" lon="6.7964">
        <ele>2015.47</ele>
        <time>2022-12-12T10:31:29Z</time>
      </trkpt>
      <trkpt lat="44.90276" lon="6.79636">
        <ele>1982.82</ele>
        <time>2022-12-12T10:31:39Z</time>
      </trkpt>
      <trkpt lat="44.90268" lon="6.79629">
        <ele>2008.44</ele>
        <time>2022-12-12T10:31:48Z</time>
      </trkpt>
      <trkpt lat="44.9026" lon="6.79621">
        <ele>1983.94</ele>
        <time>2022-12-12T10:31:57Z</time>
      </trkpt>
      <trkpt lat="44.90257" lon="6.79617">
        <ele>2012.13</ele>
        <time>2022-12-12T10:32:07Z</time>
      </trkpt>
      <trkpt lat="44.90258" lon="6.79619">
        <ele>2015.95</ele>
        <time>2022-12-12T10:32:17Z</time>
      </trkpt>
      <trkpt lat="44.90249" lon="6.7962">
        <ele>2014.69</ele>
        <time>2022-12-12T10:32:26Z</time>
      </trkpt>
      <trkpt lat="44.90245" lon="6.79619">
        <ele>1983.36</ele>
        <time>2022-12-12T10:32:35Z</time>
      </trkpt>
      <trkpt lat="44.90239" lon="6.79628">
        <ele>1992.7</ele>
        <time>2022-12-12T10:32:45Z</time>
      </trkpt>
      <trkpt lat="44.90236" lon="6.79638">
        <ele>2008.26</ele>
        <time>2022-12-12T10:32:54Z</time>
      </trkpt>
      <trkpt lat="44.90232" lon="6.79646">
        <ele>2006.14</ele>
        <time>2022-12-12T10:33:03Z</time>
      </trkpt>
      <trkpt lat="44.90226" lon="6.79654">
        <ele>2003</ele>
        <time>2022-12-12T10:33:12Z</time>
      </trkpt>
      <trkpt lat="44.90221" lon="6.79663">
        <ele>2002.88</ele>
        <time>2022-12-12T10:33:21Z</time>
      </trkpt>
      <trkpt lat="44.90221" lon="6.79669">
        <ele>2005.21</ele>
        <time>2022-12-12T10:33:31Z</time>
      </trkpt>
      <trkpt lat="44.90221" lon="6.79673">
        <ele>2008.23</ele>
        <time>2022-12-12T10:33:40Z</time>
      </trkpt>
      <trkpt lat="44.90221" lon="6.79674">
        <ele>1980.13</ele>
        <time>2022-12-12T10:33:50Z</time>
      </trkpt>
      <trkpt lat="44.90219" lon="6.79676">
        <ele>1979.89</ele>
        <time>2022-12-12T10:33:59Z</time>
      </trkpt>
      <trkpt lat="44.90217" lon="6.79679">
        <ele>2009.76</ele>
        <time>2022-12-12T10:34:08Z</time>
      </trkpt>
      <trkpt lat="44.90214" lon="6.79683">
        <ele>1984.81</ele>
        <time>2022-12-12T10:34:18Z</time>
      </trkpt>
      <trkpt lat="44.90211" lon="6.79688">
        <ele>2013.85</ele>
        <time>2022-12-12T10:34:27Z</time>
      </trkpt>
      <trkpt lat="44.90208" lon="6.79693">
        <ele>1982.62</ele>
        <time>2022-12-12T10:34:36Z</time>
      </trkpt>
      <trkpt lat="44.90205" lon="6.79697">
        <ele>1983.53</ele>
        <time>2022-12-12T10:34:46Z</time>
      </trkpt>
      <trkpt lat="44.90202" lon="6.79699">
        <ele>1983.48</ele>
        <time>2022-12-12T10:34:55Z</time>
      </trkpt>
      <trkpt lat="44.90198" lon="6.79703">
        <ele>2012.5</ele>
        <time>2022-12-12T10:35:04Z</time>
      </trkpt>
      <trkpt lat="44.90195" lon="6.79705">
        <ele>2014.64</ele>
        <time>2022-12-12T10:35:13Z</time>
      </trkpt>
      <trkpt lat="44.90193" lon="6.79709">
        <ele>2014.71</ele>
        <time>2022-12-12T10:35:22Z</time>
      </trkpt>
      <trkpt lat="44.9019" lon="6.79713">
        <ele>2005.78</ele>
        <time>2022-12-12T10:35:32Z</time>
      </trkpt>
      <trkpt lat="44.90188" lon="6.79715">
        <ele>2017.31</ele>
        <time>2022-12-12T10:35:42Z</time>
      </trkpt>
      <trkpt lat="44.90187" lon="6.79715">
        <ele>1967.45</ele>
        <time>2022-12-12T10:35:51Z</time>
      </trkpt>
      <trkpt lat="44.90186" lon="6.79716">
        <ele>1997.39</ele>
        <time>2022-12-12T10:36:07Z</time>
      </trkpt>
      <trkpt lat="44.90185" lon="6.79716">
        <ele>2009.84</ele>
        <time>2022-12-12T10:36:16Z</time>
      </trkpt>
      <trkpt lat="44.90183" lon="6.79719">
        <ele>2009.98</ele>
        <time>2022-12-12T10:36:25Z</time>
      </trkpt>
      <trkpt lat="44.9018" lon="6.7972">
        <ele>1991.15</ele>
        <time>2022-12-12T10:36:35Z</time>
      </trkpt>
      <trkpt lat="44.90177" lon="6.79722">
        <ele>2012.95</ele>
        <time>2022-12-12T10:36:44Z</time>
      </trkpt>
      <trkpt lat="44.90173" lon="6.79725">
        <ele>2024.78</ele>
        <time>2022-12-12T10:36:53Z</time>
      </trkpt>
      <trkpt lat="44.9017" lon="6.79724">
        <ele>1983.11</ele>
        <time>2022-12-12T10:37:02Z</time>
      </trkpt>
      <trkpt lat="44.90165" lon="6.79724">
        <ele>2003.66</ele>
        <time>2022-12-12T10:37:11Z</time>
      </trkpt>
      <trkpt lat="44.90163" lon="6.79724">
        <ele>2001.29</ele>
        <time>2022-12-12T10:37:21Z</time>
      </trkpt>
      <trkpt lat="44.90152" lon="6.79722">
        <ele>1954.38</ele>
        <time>2022-12-12T10:37:30Z</time>
      </trkpt>
      <trkpt lat="44.90149" lon="6.79726">
        <ele>2004.55</ele>
        <time>2022-12-12T10:37:39Z</time>
      </trkpt>
      <trkpt lat="44.90147" lon="6.79729">
        <ele>2021.64</ele>
        <time>2022-12-12T10:37:48Z</time>
      </trkpt>
      <trkpt lat="44.90143" lon="6.7973">
        <ele>1976.29</ele>
        <time>2022-12-12T10:37:58Z</time>
      </trkpt>
      <trkpt lat="44.9014" lon="6.79731">
        <ele>2028.5</ele>
        <time>2022-12-12T10:38:07Z</time>
      </trkpt>
      <trkpt lat="44.90136" lon="6.79734">
        <ele>2029.78</ele>
        <time>2022-12-12T10:38:16Z</time>
      </trkpt>
      <trkpt lat="44.90127" lon="6.79739">
        <ele>2002.52</ele>
        <time>2022-12-12T10:38:26Z</time>
      </trkpt>
      <trkpt lat="44.90118" lon="6.79743">
        <ele>1995.02</ele>
        <time>2022-12-12T10:38:35Z</time>
      </trkpt>
      <trkpt lat="44.90112" lon="6.79739">
        <ele>1994.83</ele>
        <time>2022-12-12T10:38:45Z</time>
      </trkpt>
      <trkpt lat="44.90107" lon="6.79736">
        <ele>2030.14</ele>
        <time>2022-12-12T10:38:54Z</time>
      </trkpt>
      <trkpt lat="44.90105" lon="6.79737">
        <ele>1965.18</ele>
        <time>2022-12-12T10:39:03Z</time>
      </trkpt>
      <trkpt lat="44.90101" lon="6.79739">
        <ele>2011</ele>
        <time>2022-12-12T10:39:13Z</time>
      </trkpt>
      <trkpt lat="44.90096" lon="6.79742">
        <ele>1999.68</ele>
        <time>2022-12-12T10:39:22Z</time>
      </trkpt>
      <trkpt lat="44.90094" lon="6.79744">
        <ele>1999.05</ele>
        <time>2022-12-12T10:39:32Z</time>
      </trkpt>
      <trkpt lat="44.90091" lon="6.79745">
        <ele>2036.1</ele>
        <time>2022-12-12T10:39:41Z</time>
      </trkpt>
      <trkpt lat="44.90087" lon="6.79746">
        <ele>2013.63</ele>
        <time>2022-12-12T10:39:50Z</time>
      </trkpt>
      <trkpt lat="44.90083" lon="6.79747">
        <ele>2006.31</ele>
        <time>2022-12-12T10:39:59Z</time>
      </trkpt>
      <trkpt lat="44.90077" lon="6.79751">
        <ele>2033.54</ele>
        <time>2022-12-12T10:40:09Z</time>
      </trkpt>
      <trkpt lat="44.90073" lon="6.79752">
        <ele>2002.4</ele>
        <time>2022-12-12T10:40:18Z</time>
      </trkpt>
      <trkpt lat="44.9007" lon="6.79754">
        <ele>2003.27</ele>
        <time>2022-12-12T10:40:27Z</time>
      </trkpt>
      <trkpt lat="44.90067" lon="6.79756">
        <ele>2017.86</ele>
        <time>2022-12-12T10:40:36Z</time>
      </trkpt>
      <trkpt lat="44.90064" lon="6.79758">
        <ele>2037.48</ele>
        <time>2022-12-12T10:40:46Z</time>
      </trkpt>
      <trkpt lat="44.90062" lon="6.79759">
        <ele>2040.46</ele>
        <time>2022-12-12T10:40:55Z</time>
      </trkpt>
      <trkpt lat="44.90058" lon="6.7976">
        <ele>2003.56</ele>
        <time>2022-12-12T10:41:05Z</time>
      </trkpt>
      <trkpt lat="44.90054" lon="6.79761">
        <ele>2018.29</ele>
        <time>2022-12-12T10:41:14Z</time>
      </trkpt>
      <trkpt lat="44.90048" lon="6.79761">
        <ele>2042.68</ele>
        <time>2022-12-12T10:41:23Z</time>
      </trkpt>
      <trkpt lat="44.90047" lon="6.79761">
        <ele>2025.77</ele>
        <time>2022-12-12T10:41:36Z</time>
      </trkpt>
      <trkpt lat="44.90045" lon="6.79762">
        <ele>2026.93</ele>
        <time>2022-12-12T10:41:45Z</time>
      </trkpt>
      <trkpt lat="44.90042" lon="6.79762">
        <ele>2028.03</ele>
        <time>2022-12-12T10:41:55Z</time>
      </trkpt>
      <trkpt lat="44.90038" lon="6.79764">
        <ele>2028.96</ele>
        <time>2022-12-12T10:42:04Z</time>
      </trkpt>
      <trkpt lat="44.90036" lon="6.79764">
        <ele>2029.33</ele>
        <time>2022-12-12T10:42:14Z</time>
      </trkpt>
      <trkpt lat="44.90034" lon="6.79764">
        <ele>1986.28</ele>
        <time>2022-12-12T10:42:23Z</time>
      </trkpt>
      <trkpt lat="44.90031" lon="6.79766">
        <ele>1980.24</ele>
        <time>2022-12-12T10:42:32Z</time>
      </trkpt>
      <trkpt lat="44.90029" lon="6.79772">
        <ele>1980.72</ele>
        <time>2022-12-12T10:42:42Z</time>
      </trkpt>
      <trkpt lat="44.90027" lon="6.79777">
        <ele>2034.04</ele>
        <time>2022-12-12T10:42:51Z</time>
      </trkpt>
      <trkpt lat="44.90026" lon="6.79778">
        <ele>2055.2</ele>
        <time>2022-12-12T10:43:00Z</time>
      </trkpt>
      <trkpt lat="44.90023" lon="6.79782">
        <ele>2055.42</ele>
        <time>2022-12-12T10:43:09Z</time>
      </trkpt>
      <trkpt lat="44.9002" lon="6.79787">
        <ele>2017.11</ele>
        <time>2022-12-12T10:43:19Z</time>
      </trkpt>
      <trkpt lat="44.90017" lon="6.7979">
        <ele>2015.75</ele>
        <time>2022-12-12T10:43:28Z</time>
      </trkpt>
      <trkpt lat="44.90012" lon="6.79793">
        <ele>2054.86</ele>
        <time>2022-12-12T10:43:37Z</time>
      </trkpt>
      <trkpt lat="44.90007" lon="6.79794">
        <ele>2055.68</ele>
        <time>2022-12-12T10:43:47Z</time>
      </trkpt>
      <trkpt lat="44.90007" lon="6.79795">
        <ele>2016.25</ele>
        <time>2022-12-12T10:43:56Z</time>
      </trkpt>
      <trkpt lat="44.90005" lon="6.79795">
        <ele>2018.39</ele>
        <time>2022-12-12T10:44:17Z</time>
      </trkpt>
      <trkpt lat="44.89999" lon="6.79798">
        <ele>2054.21</ele>
        <time>2022-12-12T10:44:27Z</time>
      </trkpt>
      <trkpt lat="44.89992" lon="6.79799">
        <ele>2055.85</ele>
        <time>2022-12-12T10:44:36Z</time>
      </trkpt>
      <trkpt lat="44.89987" lon="6.79802">
        <ele>2055.12</ele>
        <time>2022-12-12T10:44:45Z</time>
      </trkpt>
      <trkpt lat="44.89985" lon="6.79804">
        <ele>2056.06</ele>
        <time>2022-12-12T10:44:54Z</time>
      </trkpt>
      <trkpt lat="44.89976" lon="6.79806">
        <ele>2035.21</ele>
        <time>2022-12-12T10:45:03Z</time>
      </trkpt>
      <trkpt lat="44.89971" lon="6.79804">
        <ele>2034.19</ele>
        <time>2022-12-12T10:45:13Z</time>
      </trkpt>
      <trkpt lat="44.89966" lon="6.79804">
        <ele>2034.99</ele>
        <time>2022-12-12T10:45:23Z</time>
      </trkpt>
      <trkpt lat="44.89961" lon="6.79805">
        <ele>2033.55</ele>
        <time>2022-12-12T10:45:32Z</time>
      </trkpt>
      <trkpt lat="44.89958" lon="6.79806">
        <ele>2033.45</ele>
        <time>2022-12-12T10:45:41Z</time>
      </trkpt>
      <trkpt lat="44.89954" lon="6.79807">
        <ele>2003.07</ele>
        <time>2022-12-12T10:45:51Z</time>
      </trkpt>
      <trkpt lat="44.89953" lon="6.79808">
        <ele>2006</ele>
        <time>2022-12-12T10:46:00Z</time>
      </trkpt>
      <trkpt lat="44.89952" lon="6.79809">
        <ele>1988.64</ele>
        <time>2022-12-12T10:46:09Z</time>
      </trkpt>
      <trkpt lat="44.8995" lon="6.79812">
        <ele>2040.71</ele>
        <time>2022-12-12T10:46:18Z</time>
      </trkpt>
      <trkpt lat="44.8995" lon="6.79818">
        <ele>2042</ele>
        <time>2022-12-12T10:46:27Z</time>
      </trkpt>
      <trkpt lat="44.89949" lon="6.79824">
        <ele>2032.93</ele>
        <time>2022-12-12T10:46:37Z</time>
      </trkpt>
      <trkpt lat="44.89947" lon="6.7983">
        <ele>2058.35</ele>
        <time>2022-12-12T10:46:46Z</time>
      </trkpt>
      <trkpt lat="44.89944" lon="6.79833">
        <ele>2057.99</ele>
        <time>2022-12-12T10:46:56Z</time>
      </trkpt>
      <trkpt lat="44.89937" lon="6.79834">
        <ele>2053.18</ele>
        <time>2022-12-12T10:47:05Z</time>
      </trkpt>
      <trkpt lat="44.89932" lon="6.79834">
        <ele>2045.64</ele>
        <time>2022-12-12T10:47:14Z</time>
      </trkpt>
      <trkpt lat="44.89928" lon="6.79836">
        <ele>2046.73</ele>
        <time>2022-12-12T10:47:23Z</time>
      </trkpt>
      <trkpt lat="44.89924" lon="6.79837">
        <ele>2026.31</ele>
        <time>2022-12-12T10:47:33Z</time>
      </trkpt>
      <trkpt lat="44.89918" lon="6.79836">
        <ele>2048.3</ele>
        <time>2022-12-12T10:47:42Z</time>
      </trkpt>
      <trkpt lat="44.89917" lon="6.79834">
        <ele>1995.46</ele>
        <time>2022-12-12T10:47:51Z</time>
      </trkpt>
      <trkpt lat="44.89911" lon="6.79838">
        <ele>1994.94</ele>
        <time>2022-12-12T10:48:01Z</time>
      </trkpt>
      <trkpt lat="44.89906" lon="6.79841">
        <ele>1993.48</ele>
        <time>2022-12-12T10:48:10Z</time>
      </trkpt>
      <trkpt lat="44.89902" lon="6.79843">
        <ele>2050.22</ele>
        <time>2022-12-12T10:48:19Z</time>
      </trkpt>
      <trkpt lat="44.89899" lon="6.79844">
        <ele>2015.41</ele>
        <time>2022-12-12T10:48:28Z</time>
      </trkpt>
      <trkpt lat="44.89895" lon="6.79845">
        <ele>2050.12</ele>
        <time>2022-12-12T10:48:38Z</time>
      </trkpt>
      <trkpt lat="44.89892" lon="6.79847">
        <ele>1997.28</ele>
        <time>2022-12-12T10:48:47Z</time>
      </trkpt>
      <trkpt lat="44.89888" lon="6.79848">
        <ele>2051.77</ele>
        <time>2022-12-12T10:48:57Z</time>
      </trkpt>
      <trkpt lat="44.89886" lon="6.79848">
        <ele>2052.77</ele>
        <time>2022-12-12T10:49:06Z</time>
      </trkpt>
      <trkpt lat="44.89882" lon="6.79851">
        <ele>2052.96</ele>
        <time>2022-12-12T10:49:15Z</time>
      </trkpt>
      <trkpt lat="44.89876" lon="6.79852">
        <ele>2000.67</ele>
        <time>2022-12-12T10:49:25Z</time>
      </trkpt>
      <trkpt lat="44.89874" lon="6.79852">
        <ele>2055.12</ele>
        <time>2022-12-12T10:49:34Z</time>
      </trkpt>
      <trkpt lat="44.89872" lon="6.79852">
        <ele>2058.44</ele>
        <time>2022-12-12T10:49:44Z</time>
      </trkpt>
      <trkpt lat="44.89867" lon="6.79851">
        <ele>2002.07</ele>
        <time>2022-12-12T10:49:53Z</time>
      </trkpt>
      <trkpt lat="44.89862" lon="6.7985">
        <ele>2012.28</ele>
        <time>2022-12-12T10:50:03Z</time>
      </trkpt>
      <trkpt lat="44.89856" lon="6.79848">
        <ele>2051.19</ele>
        <time>2022-12-12T10:50:13Z</time>
      </trkpt>
      <trkpt lat="44.89852" lon="6.79846">
        <ele>2002.51</ele>
        <time>2022-12-12T10:50:22Z</time>
      </trkpt>
      <trkpt lat="44.89847" lon="6.79844">
        <ele>2058.18</ele>
        <time>2022-12-12T10:50:32Z</time>
      </trkpt>
      <trkpt lat="44.8984" lon="6.79843">
        <ele>2003.06</ele>
        <time>2022-12-12T10:50:41Z</time>
      </trkpt>
      <trkpt lat="44.89836" lon="6.79844">
        <ele>2002.99</ele>
        <time>2022-12-12T10:50:51Z</time>
      </trkpt>
      <trkpt lat="44.8983" lon="6.79848">
        <ele>2002.26</ele>
        <time>2022-12-12T10:51:00Z</time>
      </trkpt>
      <trkpt lat="44.89827" lon="6.7985">
        <ele>2006.97</ele>
        <time>2022-12-12T10:51:10Z</time>
      </trkpt>
      <trkpt lat="44.89824" lon="6.79854">
        <ele>2002.69</ele>
        <time>2022-12-12T10:51:19Z</time>
      </trkpt>
      <trkpt lat="44.89823" lon="6.79856">
        <ele>1971.61</ele>
        <time>2022-12-12T10:51:29Z</time>
      </trkpt>
      <trkpt lat="44.89821" lon="6.79857">
        <ele>2040.6</ele>
        <time>2022-12-12T10:51:38Z</time>
      </trkpt>
      <trkpt lat="44.89819" lon="6.7986">
        <ele>2014.69</ele>
        <time>2022-12-12T10:51:48Z</time>
      </trkpt>
      <trkpt lat="44.89814" lon="6.79861">
        <ele>1965.17</ele>
        <time>2022-12-12T10:51:57Z</time>
      </trkpt>
      <trkpt lat="44.8981" lon="6.79861">
        <ele>2049.76</ele>
        <time>2022-12-12T10:52:07Z</time>
      </trkpt>
      <trkpt lat="44.89806" lon="6.7986">
        <ele>2018.41</ele>
        <time>2022-12-12T10:52:16Z</time>
      </trkpt>
      <trkpt lat="44.89801" lon="6.79861">
        <ele>2060.42</ele>
        <time>2022-12-12T10:52:26Z</time>
      </trkpt>
      <trkpt lat="44.89796" lon="6.79863">
        <ele>2006.55</ele>
        <time>2022-12-12T10:52:35Z</time>
      </trkpt>
      <trkpt lat="44.89791" lon="6.79861">
        <ele>2019.31</ele>
        <time>2022-12-12T10:52:45Z</time>
      </trkpt>
      <trkpt lat="44.89786" lon="6.7986">
        <ele>2061.74</ele>
        <time>2022-12-12T10:52:54Z</time>
      </trkpt>
      <trkpt lat="44.89782" lon="6.79858">
        <ele>2067.55</ele>
        <time>2022-12-12T10:53:04Z</time>
      </trkpt>
      <trkpt lat="44.89777" lon="6.79858">
        <ele>2042.16</ele>
        <time>2022-12-12T10:53:13Z</time>
      </trkpt>
      <trkpt lat="44.89773" lon="6.7986">
        <ele>2087.4</ele>
        <time>2022-12-12T10:53:23Z</time>
      </trkpt>
      <trkpt lat="44.89769" lon="6.7986">
        <ele>2043.74</ele>
        <time>2022-12-12T10:53:32Z</time>
      </trkpt>
      <trkpt lat="44.89765" lon="6.79859">
        <ele>2088.4</ele>
        <time>2022-12-12T10:53:42Z</time>
      </trkpt>
      <trkpt lat="44.89763" lon="6.79858">
        <ele>2088.67</ele>
        <time>2022-12-12T10:53:51Z</time>
      </trkpt>
      <trkpt lat="44.89759" lon="6.79857">
        <ele>2054.32</ele>
        <time>2022-12-12T10:54:00Z</time>
      </trkpt>
      <trkpt lat="44.89752" lon="6.79858">
        <ele>2088.55</ele>
        <time>2022-12-12T10:54:09Z</time>
      </trkpt>
      <trkpt lat="44.89747" lon="6.79858">
        <ele>2090.08</ele>
        <time>2022-12-12T10:54:18Z</time>
      </trkpt>
      <trkpt lat="44.89743" lon="6.7986">
        <ele>2044.05</ele>
        <time>2022-12-12T10:54:27Z</time>
      </trkpt>
      <trkpt lat="44.89741" lon="6.7986">
        <ele>2078.13</ele>
        <time>2022-12-12T10:54:37Z</time>
      </trkpt>
      <trkpt lat="44.89739" lon="6.79861">
        <ele>2093.04</ele>
        <time>2022-12-12T10:54:46Z</time>
      </trkpt>
      <trkpt lat="44.89735" lon="6.7986">
        <ele>2093.71</ele>
        <time>2022-12-12T10:54:55Z</time>
      </trkpt>
      <trkpt lat="44.89731" lon="6.7986">
        <ele>2093.49</ele>
        <time>2022-12-12T10:55:05Z</time>
      </trkpt>
      <trkpt lat="44.89727" lon="6.79858">
        <ele>2093.77</ele>
        <time>2022-12-12T10:55:14Z</time>
      </trkpt>
      <trkpt lat="44.89725" lon="6.79855">
        <ele>2072.23</ele>
        <time>2022-12-12T10:55:24Z</time>
      </trkpt>
      <trkpt lat="44.89724" lon="6.79852">
        <ele>2065.93</ele>
        <time>2022-12-12T10:55:33Z</time>
      </trkpt>
      <trkpt lat="44.89722" lon="6.79852">
        <ele>2051.62</ele>
        <time>2022-12-12T10:55:48Z</time>
      </trkpt>
      <trkpt lat="44.89719" lon="6.79851">
        <ele>2048.95</ele>
        <time>2022-12-12T10:55:57Z</time>
      </trkpt>
      <trkpt lat="44.89715" lon="6.7985">
        <ele>2086.77</ele>
        <time>2022-12-12T10:56:06Z</time>
      </trkpt>
      <trkpt lat="44.8971" lon="6.7985">
        <ele>2098.23</ele>
        <time>2022-12-12T10:56:16Z</time>
      </trkpt>
      <trkpt lat="44.89706" lon="6.79849">
        <ele>2099.07</ele>
        <time>2022-12-12T10:56:25Z</time>
      </trkpt>
      <trkpt lat="44.89703" lon="6.79847">
        <ele>2090.93</ele>
        <time>2022-12-12T10:56:34Z</time>
      </trkpt>
      <trkpt lat="44.89698" lon="6.79845">
        <ele>2072.87</ele>
        <time>2022-12-12T10:56:44Z</time>
      </trkpt>
      <trkpt lat="44.89693" lon="6.79844">
        <ele>2072.51</ele>
        <time>2022-12-12T10:56:54Z</time>
      </trkpt>
      <trkpt lat="44.89689" lon="6.79844">
        <ele>2072.73</ele>
        <time>2022-12-12T10:57:03Z</time>
      </trkpt>
      <trkpt lat="44.89684" lon="6.79843">
        <ele>2094.16</ele>
        <time>2022-12-12T10:57:13Z</time>
      </trkpt>
      <trkpt lat="44.8968" lon="6.79842">
        <ele>2100.37</ele>
        <time>2022-12-12T10:57:22Z</time>
      </trkpt>
      <trkpt lat="44.89677" lon="6.7984">
        <ele>2089.39</ele>
        <time>2022-12-12T10:57:31Z</time>
      </trkpt>
      <trkpt lat="44.89672" lon="6.79837">
        <ele>2046.96</ele>
        <time>2022-12-12T10:57:41Z</time>
      </trkpt>
      <trkpt lat="44.89668" lon="6.79834">
        <ele>2065.21</ele>
        <time>2022-12-12T10:57:50Z</time>
      </trkpt>
      <trkpt lat="44.89665" lon="6.79831">
        <ele>2097.09</ele>
        <time>2022-12-12T10:57:59Z</time>
      </trkpt>
      <trkpt lat="44.89661" lon="6.79827">
        <ele>2058.65</ele>
        <time>2022-12-12T10:58:09Z</time>
      </trkpt>
      <trkpt lat="44.89655" lon="6.79824">
        <ele>2090.27</ele>
        <time>2022-12-12T10:58:18Z</time>
      </trkpt>
      <trkpt lat="44.89652" lon="6.79821">
        <ele>2092.8</ele>
        <time>2022-12-12T10:58:27Z</time>
      </trkpt>
      <trkpt lat="44.8965" lon="6.79817">
        <ele>2045.85</ele>
        <time>2022-12-12T10:58:37Z</time>
      </trkpt>
      <trkpt lat="44.89653" lon="6.79812">
        <ele>2049.95</ele>
        <time>2022-12-12T10:58:46Z</time>
      </trkpt>
      <trkpt lat="44.89654" lon="6.7981">
        <ele>1989.47</ele>
        <time>2022-12-12T10:58:55Z</time>
      </trkpt>
      <trkpt lat="44.89657" lon="6.79808">
        <ele>2005.69</ele>
        <time>2022-12-12T10:59:04Z</time>
      </trkpt>
      <trkpt lat="44.89659" lon="6.79802">
        <ele>1909.62</ele>
        <time>2022-12-12T10:59:14Z</time>
      </trkpt>
      <trkpt lat="44.89653" lon="6.798">
        <ele>2042.38</ele>
        <time>2022-12-12T10:59:23Z</time>
      </trkpt>
      <trkpt lat="44.89651" lon="6.79802">
        <ele>2003.8</ele>
        <time>2022-12-12T10:59:33Z</time>
      </trkpt>
      <trkpt lat="44.89649" lon="6.79804">
        <ele>2010.64</ele>
        <time>2022-12-12T10:59:42Z</time>
      </trkpt>
      <trkpt lat="44.89647" lon="6.79803">
        <ele>2069.67</ele>
        <time>2022-12-12T10:59:51Z</time>
      </trkpt>
      <trkpt lat="44.89642" lon="6.79804">
        <ele>2022.27</ele>
        <time>2022-12-12T11:00:00Z</time>
      </trkpt>
      <trkpt lat="44.89638" lon="6.79802">
        <ele>2031.02</ele>
        <time>2022-12-12T11:00:09Z</time>
      </trkpt>
      <trkpt lat="44.89638" lon="6.798">
        <ele>2004.68</ele>
        <time>2022-12-12T11:00:19Z</time>
      </trkpt>
      <trkpt lat="44.89639" lon="6.79798">
        <ele>2033.49</ele>
        <time>2022-12-12T11:00:28Z</time>
      </trkpt>
      <trkpt lat="44.89635" lon="6.79798">
        <ele>2064.22</ele>
        <time>2022-12-12T11:00:37Z</time>
      </trkpt>
      <trkpt lat="44.8963" lon="6.798">
        <ele>2071.62</ele>
        <time>2022-12-12T11:00:47Z</time>
      </trkpt>
      <trkpt lat="44.89625" lon="6.79802">
        <ele>2089.22</ele>
        <time>2022-12-12T11:00:56Z</time>
      </trkpt>
      <trkpt lat="44.89622" lon="6.79805">
        <ele>2091.04</ele>
        <time>2022-12-12T11:01:06Z</time>
      </trkpt>
      <trkpt lat="44.89619" lon="6.79807">
        <ele>2104.62</ele>
        <time>2022-12-12T11:01:15Z</time>
      </trkpt>
      <trkpt lat="44.89616" lon="6.79809">
        <ele>2092.75</ele>
        <time>2022-12-12T11:01:24Z</time>
      </trkpt>
      <trkpt lat="44.89613" lon="6.79812">
        <ele>2045.97</ele>
        <time>2022-12-12T11:01:33Z</time>
      </trkpt>
      <trkpt lat="44.89609" lon="6.79812">
        <ele>2055.67</ele>
        <time>2022-12-12T11:01:43Z</time>
      </trkpt>
      <trkpt lat="44.89606" lon="6.79813">
        <ele>2056.24</ele>
        <time>2022-12-12T11:01:53Z</time>
      </trkpt>
      <trkpt lat="44.89604" lon="6.79814">
        <ele>2040.01</ele>
        <time>2022-12-12T11:02:02Z</time>
      </trkpt>
      <trkpt lat="44.89604" lon="6.7981">
        <ele>2046.08</ele>
        <time>2022-12-12T11:02:11Z</time>
      </trkpt>
      <trkpt lat="44.89604" lon="6.79806">
        <ele>2042.87</ele>
        <time>2022-12-12T11:02:21Z</time>
      </trkpt>
      <trkpt lat="44.89605" lon="6.79805">
        <ele>2057.11</ele>
        <time>2022-12-12T11:02:30Z</time>
      </trkpt>
      <trkpt lat="44.89605" lon="6.79804">
        <ele>2059.4</ele>
        <time>2022-12-12T11:02:39Z</time>
      </trkpt>
      <trkpt lat="44.89606" lon="6.79802">
        <ele>2056.62</ele>
        <time>2022-12-12T11:02:48Z</time>
      </trkpt>
      <trkpt lat="44.89606" lon="6.79798">
        <ele>2005.62</ele>
        <time>2022-12-12T11:02:58Z</time>
      </trkpt>
      <trkpt lat="44.89605" lon="6.79794">
        <ele>2001.05</ele>
        <time>2022-12-12T11:03:08Z</time>
      </trkpt>
      <trkpt lat="44.89605" lon="6.7979">
        <ele>2014.16</ele>
        <time>2022-12-12T11:03:17Z</time>
      </trkpt>
      <trkpt lat="44.89605" lon="6.79783">
        <ele>1982.87</ele>
        <time>2022-12-12T11:03:26Z</time>
      </trkpt>
      <trkpt lat="44.89605" lon="6.79772">
        <ele>1972.96</ele>
        <time>2022-12-12T11:03:35Z</time>
      </trkpt>
      <trkpt lat="44.89604" lon="6.79771">
        <ele>1940.97</ele>
        <time>2022-12-12T11:03:45Z</time>
      </trkpt>
      <trkpt lat="44.89599" lon="6.79768">
        <ele>2064.34</ele>
        <time>2022-12-12T11:03:54Z</time>
      </trkpt>
      <trkpt lat="44.89596" lon="6.79773">
        <ele>2070.96</ele>
        <time>2022-12-12T11:04:03Z</time>
      </trkpt>
      <trkpt lat="44.89594" lon="6.79778">
        <ele>2068.56</ele>
        <time>2022-12-12T11:04:12Z</time>
      </trkpt>
      <trkpt lat="44.89594" lon="6.79781">
        <ele>1999.81</ele>
        <time>2022-12-12T11:04:21Z</time>
      </trkpt>
      <trkpt lat="44.89592" lon="6.79781">
        <ele>2060.84</ele>
        <time>2022-12-12T11:04:31Z</time>
      </trkpt>
      <trkpt lat="44.89591" lon="6.79782">
        <ele>2085.63</ele>
        <time>2022-12-12T11:04:48Z</time>
      </trkpt>
      <trkpt lat="44.8959" lon="6.79783">
        <ele>2043.77</ele>
        <time>2022-12-12T11:04:57Z</time>
      </trkpt>
      <trkpt lat="44.89588" lon="6.7978">
        <ele>2005.5</ele>
        <time>2022-12-12T11:05:06Z</time>
      </trkpt>
      <trkpt lat="44.89588" lon="6.79779">
        <ele>2019.27</ele>
        <time>2022-12-12T11:05:17Z</time>
      </trkpt>
      <trkpt lat="44.89588" lon="6.79774">
        <ele>2028.51</ele>
        <time>2022-12-12T11:05:26Z</time>
      </trkpt>
      <trkpt lat="44.89586" lon="6.79771">
        <ele>2021.38</ele>
        <time>2022-12-12T11:05:36Z</time>
      </trkpt>
      <trkpt lat="44.89585" lon="6.79767">
        <ele>2020.16</ele>
        <time>2022-12-12T11:05:45Z</time>
      </trkpt>
      <trkpt lat="44.89585" lon="6.79762">
        <ele>2066.47</ele>
        <time>2022-12-12T11:05:54Z</time>
      </trkpt>
      <trkpt lat="44.89584" lon="6.79759">
        <ele>2040.02</ele>
        <time>2022-12-12T11:06:03Z</time>
      </trkpt>
      <trkpt lat="44.89588" lon="6.79749">
        <ele>1991.67</ele>
        <time>2022-12-12T11:06:12Z</time>
      </trkpt>
      <trkpt lat="44.8959" lon="6.79748">
        <ele>2027.3</ele>
        <time>2022-12-12T11:06:22Z</time>
      </trkpt>
      <trkpt lat="44.89591" lon="6.79749">
        <ele>1984.03</ele>
        <time>2022-12-12T11:06:31Z</time>
      </trkpt>
      <trkpt lat="44.8959" lon="6.79751">
        <ele>1978.78</ele>
        <time>2022-12-12T11:06:40Z</time>
      </trkpt>
      <trkpt lat="44.8959" lon="6.79747">
        <ele>1957.43</ele>
        <time>2022-12-12T11:06:49Z</time>
      </trkpt>
      <trkpt lat="44.89588" lon="6.79742">
        <ele>2048.2</ele>
        <time>2022-12-12T11:06:58Z</time>
      </trkpt>
      <trkpt lat="44.89583" lon="6.79742">
        <ele>2054.49</ele>
        <time>2022-12-12T11:07:08Z</time>
      </trkpt>
      <trkpt lat="44.89578" lon="6.79744">
        <ele>2036.04</ele>
        <time>2022-12-12T11:07:18Z</time>
      </trkpt>
      <trkpt lat="44.89576" lon="6.79745">
        <ele>2032.07</ele>
        <time>2022-12-12T11:07:28Z</time>
      </trkpt>
      <trkpt lat="44.89573" lon="6.79744">
        <ele>2008.67</ele>
        <time>2022-12-12T11:07:37Z</time>
      </trkpt>
      <trkpt lat="44.89574" lon="6.79744">
        <ele>2048.48</ele>
        <time>2022-12-12T11:07:46Z</time>
      </trkpt>
      <trkpt lat="44.89571" lon="6.79742">
        <ele>2096.34</ele>
        <time>2022-12-12T11:07:56Z</time>
      </trkpt>
      <trkpt lat="44.89569" lon="6.79742">
        <ele>2075.7</ele>
        <time>2022-12-12T11:08:06Z</time>
      </trkpt>
      <trkpt lat="44.89565" lon="6.7974">
        <ele>2096.71</ele>
        <time>2022-12-12T11:08:15Z</time>
      </trkpt>
      <trkpt lat="44.89559" lon="6.79738">
        <ele>2102.74</ele>
        <time>2022-12-12T11:08:24Z</time>
      </trkpt>
      <trkpt lat="44.89559" lon="6.79737">
        <ele>2066.12</ele>
        <time>2022-12-12T11:08:33Z</time>
      </trkpt>
      <trkpt lat="44.89559" lon="6.79734">
        <ele>2024.89</ele>
        <time>2022-12-12T11:08:43Z</time>
      </trkpt>
      <trkpt lat="44.89559" lon="6.79735">
        <ele>2097.85</ele>
        <time>2022-12-12T11:08:56Z</time>
      </trkpt>
      <trkpt lat="44.89554" lon="6.79738">
        <ele>2107.34</ele>
        <time>2022-12-12T11:09:05Z</time>
      </trkpt>
      <trkpt lat="44.8955" lon="6.79739">
        <ele>2042.29</ele>
        <time>2022-12-12T11:09:15Z</time>
      </trkpt>
      <trkpt lat="44.89547" lon="6.79739">
        <ele>2065.1</ele>
        <time>2022-12-12T11:09:24Z</time>
      </trkpt>
      <trkpt lat="44.89543" lon="6.79739">
        <ele>2046.1</ele>
        <time>2022-12-12T11:09:33Z</time>
      </trkpt>
      <trkpt lat="44.89535" lon="6.79743">
        <ele>2020.18</ele>
        <time>2022-12-12T11:09:43Z</time>
      </trkpt>
      <trkpt lat="44.89536" lon="6.79741">
        <ele>2013.87</ele>
        <time>2022-12-12T11:09:52Z</time>
      </trkpt>
      <trkpt lat="44.89536" lon="6.79739">
        <ele>2043.98</ele>
        <time>2022-12-12T11:10:02Z</time>
      </trkpt>
      <trkpt lat="44.89534" lon="6.79735">
        <ele>2120.12</ele>
        <time>2022-12-12T11:10:11Z</time>
      </trkpt>
      <trkpt lat="44.8953" lon="6.79733">
        <ele>2051.83</ele>
        <time>2022-12-12T11:10:21Z</time>
      </trkpt>
      <trkpt lat="44.89527" lon="6.79733">
        <ele>2111.28</ele>
        <time>2022-12-12T11:10:30Z</time>
      </trkpt>
      <trkpt lat="44.89523" lon="6.79737">
        <ele>2110.54</ele>
        <time>2022-12-12T11:10:40Z</time>
      </trkpt>
      <trkpt lat="44.89518" lon="6.79739">
        <ele>2074.94</ele>
        <time>2022-12-12T11:10:49Z</time>
      </trkpt>
      <trkpt lat="44.89514" lon="6.79738">
        <ele>2064.51</ele>
        <time>2022-12-12T11:10:58Z</time>
      </trkpt>
      <trkpt lat="44.8951" lon="6.79738">
        <ele>2137.25</ele>
        <time>2022-12-12T11:11:08Z</time>
      </trkpt>
      <trkpt lat="44.89504" lon="6.79736">
        <ele>2119.19</ele>
        <time>2022-12-12T11:11:18Z</time>
      </trkpt>
      <trkpt lat="44.89503" lon="6.79735">
        <ele>2107.93</ele>
        <time>2022-12-12T11:11:28Z</time>
      </trkpt>
      <trkpt lat="44.89502" lon="6.79736">
        <ele>2077.47</ele>
        <time>2022-12-12T11:11:40Z</time>
      </trkpt>
      <trkpt lat="44.89501" lon="6.79741">
        <ele>2082.27</ele>
        <time>2022-12-12T11:11:49Z</time>
      </trkpt>
      <trkpt lat="44.89499" lon="6.79744">
        <ele>2089.8</ele>
        <time>2022-12-12T11:11:58Z</time>
      </trkpt>
      <trkpt lat="44.89497" lon="6.79746">
        <ele>2150.01</ele>
        <time>2022-12-12T11:12:07Z</time>
      </trkpt>
      <trkpt lat="44.89495" lon="6.79748">
        <ele>2090.82</ele>
        <time>2022-12-12T11:12:17Z</time>
      </trkpt>
      <trkpt lat="44.89494" lon="6.79752">
        <ele>2133.04</ele>
        <time>2022-12-12T11:12:26Z</time>
      </trkpt>
      <trkpt lat="44.89489" lon="6.79758">
        <ele>2132.22</ele>
        <time>2022-12-12T11:12:35Z</time>
      </trkpt>
      <trkpt lat="44.89486" lon="6.7976">
        <ele>2064.14</ele>
        <time>2022-12-12T11:12:44Z</time>
      </trkpt>
      <trkpt lat="44.89483" lon="6.7976">
        <ele>2137.97</ele>
        <time>2022-12-12T11:12:53Z</time>
      </trkpt>
      <trkpt lat="44.8948" lon="6.79758">
        <ele>2094.3</ele>
        <time>2022-12-12T11:13:03Z</time>
      </trkpt>
      <trkpt lat="44.89481" lon="6.79757">
        <ele>2068.35</ele>
        <time>2022-12-12T11:13:12Z</time>
      </trkpt>
      <trkpt lat="44.89479" lon="6.79757">
        <ele>2056.6</ele>
        <time>2022-12-12T11:13:21Z</time>
      </trkpt>
      <trkpt lat="44.89478" lon="6.79758">
        <ele>2130.48</ele>
        <time>2022-12-12T11:13:32Z</time>
      </trkpt>
      <trkpt lat="44.89475" lon="6.7976">
        <ele>2051.87</ele>
        <time>2022-12-12T11:13:41Z</time>
      </trkpt>
      <trkpt lat="44.89472" lon="6.79761">
        <ele>2140.78</ele>
        <time>2022-12-12T11:13:50Z</time>
      </trkpt>
      <trkpt lat="44.89467" lon="6.79761">
        <ele>2128.46</ele>
        <time>2022-12-12T11:14:00Z</time>
      </trkpt>
      <trkpt lat="44.89466" lon="6.79762">
        <ele>2144.71</ele>
        <time>2022-12-12T11:14:09Z</time>
      </trkpt>
      <trkpt lat="44.8946" lon="6.79761">
        <ele>2133</ele>
        <time>2022-12-12T11:14:19Z</time>
      </trkpt>
      <trkpt lat="44.8946" lon="6.7976">
        <ele>2086.23</ele>
        <time>2022-12-12T11:14:31Z</time>
      </trkpt>
      <trkpt lat="44.89461" lon="6.79759">
        <ele>2117.31</ele>
        <time>2022-12-12T11:14:44Z</time>
      </trkpt>
      <trkpt lat="44.89461" lon="6.79757">
        <ele>2130.57</ele>
        <time>2022-12-12T11:14:54Z</time>
      </trkpt>
      <trkpt lat="44.89459" lon="6.79755">
        <ele>2031.81</ele>
        <time>2022-12-12T11:15:03Z</time>
      </trkpt>
      <trkpt lat="44.89457" lon="6.79754">
        <ele>2051.14</ele>
        <time>2022-12-12T11:15:12Z</time>
      </trkpt>
      <trkpt lat="44.89454" lon="6.7975">
        <ele>2076.61</ele>
        <time>2022-12-12T11:15:22Z</time>
      </trkpt>
      <trkpt lat="44.89453" lon="6.79748">
        <ele>2064.95</ele>
        <time>2022-12-12T11:15:31Z</time>
      </trkpt>
      <trkpt lat="44.89452" lon="6.79744">
        <ele>2039.62</ele>
        <time>2022-12-12T11:15:41Z</time>
      </trkpt>
      <trkpt lat="44.89451" lon="6.79743">
        <ele>2057.62</ele>
        <time>2022-12-12T11:15:50Z</time>
      </trkpt>
      <trkpt lat="44.8945" lon="6.79738">
        <ele>2012.73</ele>
        <time>2022-12-12T11:16:00Z</time>
      </trkpt>
      <trkpt lat="44.8945" lon="6.79735">
        <ele>2056.25</ele>
        <time>2022-12-12T11:16:10Z</time>
      </trkpt>
      <trkpt lat="44.89452" lon="6.79727">
        <ele>2015.85</ele>
        <time>2022-12-12T11:16:19Z</time>
      </trkpt>
      <trkpt lat="44.89452" lon="6.79726">
        <ele>2015.18</ele>
        <time>2022-12-12T11:16:30Z</time>
      </trkpt>
      <trkpt lat="44.89453" lon="6.7972">
        <ele>2050.01</ele>
        <time>2022-12-12T11:16:39Z</time>
      </trkpt>
      <trkpt lat="44.89452" lon="6.79716">
        <ele>2105.22</ele>
        <time>2022-12-12T11:16:48Z</time>
      </trkpt>
      <trkpt lat="44.89449" lon="6.7971">
        <ele>2148.35</ele>
        <time>2022-12-12T11:16:57Z</time>
      </trkpt>
      <trkpt lat="44.89445" lon="6.79703">
        <ele>2157.51</ele>
        <time>2022-12-12T11:17:07Z</time>
      </trkpt>
      <trkpt lat="44.89442" lon="6.79698">
        <ele>2084.93</ele>
        <time>2022-12-12T11:17:16Z</time>
      </trkpt>
      <trkpt lat="44.8944" lon="6.79694">
        <ele>2112.15</ele>
        <time>2022-12-12T11:17:25Z</time>
      </trkpt>
      <trkpt lat="44.89441" lon="6.79686">
        <ele>2112.86</ele>
        <time>2022-12-12T11:17:35Z</time>
      </trkpt>
      <trkpt lat="44.89442" lon="6.79681">
        <ele>2060.1</ele>
        <time>2022-12-12T11:17:44Z</time>
      </trkpt>
      <trkpt lat="44.89443" lon="6.79676">
        <ele>2057.55</ele>
        <time>2022-12-12T11:17:53Z</time>
      </trkpt>
      <trkpt lat="44.89444" lon="6.79677">
        <ele>2114.32</ele>
        <time>2022-12-12T11:18:13Z</time>
      </trkpt>
      <trkpt lat="44.89443" lon="6.79678">
        <ele>2087</ele>
        <time>2022-12-12T11:18:34Z</time>
      </trkpt>
      <trkpt lat="44.89442" lon="6.79678">
        <ele>2086.9</ele>
        <time>2022-12-12T11:18:43Z</time>
      </trkpt>
      <trkpt lat="44.89442" lon="6.79676">
        <ele>2086.28</ele>
        <time>2022-12-12T11:18:53Z</time>
      </trkpt>
      <trkpt lat="44.89441" lon="6.79676">
        <ele>2153.65</ele>
        <time>2022-12-12T11:19:02Z</time>
      </trkpt>
      <trkpt lat="44.89441" lon="6.79675">
        <ele>2178.42</ele>
        <time>2022-12-12T11:19:30Z</time>
      </trkpt>
      <trkpt lat="44.8944" lon="6.79673">
        <ele>2183.57</ele>
        <time>2022-12-12T11:20:58Z</time>
      </trkpt>
      <trkpt lat="44.89441" lon="6.79671">
        <ele>2128.89</ele>
        <time>2022-12-12T11:21:08Z</time>
      </trkpt>
      <trkpt lat="44.8944" lon="6.79673">
        <ele>2120.95</ele>
        <time>2022-12-12T11:21:38Z</time>
      </trkpt>
      <trkpt lat="44.8944" lon="6.79674">
        <ele>2183.32</ele>
        <time>2022-12-12T11:21:48Z</time>
      </trkpt>
      <trkpt lat="44.89436" lon="6.79676">
        <ele>2170.16</ele>
        <time>2022-12-12T11:21:57Z</time>
      </trkpt>
      <trkpt lat="44.89426" lon="6.7968">
        <ele>2161.76</ele>
        <time>2022-12-12T11:22:07Z</time>
      </trkpt>
      <trkpt lat="44.89422" lon="6.79685">
        <ele>2102.77</ele>
        <time>2022-12-12T11:22:16Z</time>
      </trkpt>
      <trkpt lat="44.89419" lon="6.79689">
        <ele>2104.5</ele>
        <time>2022-12-12T11:22:25Z</time>
      </trkpt>
      <trkpt lat="44.89418" lon="6.79693">
        <ele>2153.41</ele>
        <time>2022-12-12T11:22:35Z</time>
      </trkpt>
      <trkpt lat="44.89414" lon="6.79698">
        <ele>2174.77</ele>
        <time>2022-12-12T11:22:44Z</time>
      </trkpt>
      <trkpt lat="44.89414" lon="6.79701">
        <ele>2127.16</ele>
        <time>2022-12-12T11:22:54Z</time>
      </trkpt>
      <trkpt lat="44.89413" lon="6.79704">
        <ele>2113.01</ele>
        <time>2022-12-12T11:23:03Z</time>
      </trkpt>
      <trkpt lat="44.89411" lon="6.79707">
        <ele>2180.63</ele>
        <time>2022-12-12T11:23:13Z</time>
      </trkpt>
      <trkpt lat="44.89408" lon="6.7971">
        <ele>2152.18</ele>
        <time>2022-12-12T11:23:22Z</time>
      </trkpt>
      <trkpt lat="44.89406" lon="6.79714">
        <ele>2114.4</ele>
        <time>2022-12-12T11:23:31Z</time>
      </trkpt>
      <trkpt lat="44.89404" lon="6.79717">
        <ele>2105.03</ele>
        <time>2022-12-12T11:23:40Z</time>
      </trkpt>
      <trkpt lat="44.89403" lon="6.7972">
        <ele>2179.57</ele>
        <time>2022-12-12T11:23:50Z</time>
      </trkpt>
      <trkpt lat="44.89402" lon="6.7972">
        <ele>2183.55</ele>
        <time>2022-12-12T11:24:02Z</time>
      </trkpt>
      <trkpt lat="44.89398" lon="6.79719">
        <ele>2095.83</ele>
        <time>2022-12-12T11:24:11Z</time>
      </trkpt>
      <trkpt lat="44.89393" lon="6.79717">
        <ele>2182.99</ele>
        <time>2022-12-12T11:24:20Z</time>
      </trkpt>
      <trkpt lat="44.89392" lon="6.79715">
        <ele>2134.12</ele>
        <time>2022-12-12T11:24:29Z</time>
      </trkpt>
      <trkpt lat="44.89388" lon="6.79713">
        <ele>2120.09</ele>
        <time>2022-12-12T11:24:38Z</time>
      </trkpt>
      <trkpt lat="44.89381" lon="6.7971">
        <ele>2121.26</ele>
        <time>2022-12-12T11:24:48Z</time>
      </trkpt>
      <trkpt lat="44.89376" lon="6.79709">
        <ele>2122.64</ele>
        <time>2022-12-12T11:24:57Z</time>
      </trkpt>
      <trkpt lat="44.89374" lon="6.79708">
        <ele>2124.09</ele>
        <time>2022-12-12T11:25:06Z</time>
      </trkpt>
      <trkpt lat="44.8937" lon="6.79707">
        <ele>2124.88</ele>
        <time>2022-12-12T11:25:16Z</time>
      </trkpt>
      <trkpt lat="44.89368" lon="6.79706">
        <ele>2125.67</ele>
        <time>2022-12-12T11:25:26Z</time>
      </trkpt>
      <trkpt lat="44.89366" lon="6.7971">
        <ele>2125.72</ele>
        <time>2022-12-12T11:25:35Z</time>
      </trkpt>
      <trkpt lat="44.89363" lon="6.79711">
        <ele>2125.87</ele>
        <time>2022-12-12T11:25:44Z</time>
      </trkpt>
      <trkpt lat="44.8936" lon="6.79711">
        <ele>2173.71</ele>
        <time>2022-12-12T11:25:53Z</time>
      </trkpt>
      <trkpt lat="44.89356" lon="6.79712">
        <ele>2145.74</ele>
        <time>2022-12-12T11:26:03Z</time>
      </trkpt>
      <trkpt lat="44.89349" lon="6.7971">
        <ele>2168.58</ele>
        <time>2022-12-12T11:26:12Z</time>
      </trkpt>
      <trkpt lat="44.89345" lon="6.79708">
        <ele>2178.73</ele>
        <time>2022-12-12T11:26:21Z</time>
      </trkpt>
      <trkpt lat="44.8934" lon="6.79707">
        <ele>2178.75</ele>
        <time>2022-12-12T11:26:31Z</time>
      </trkpt>
      <trkpt lat="44.89334" lon="6.79707">
        <ele>2179.5</ele>
        <time>2022-12-12T11:26:40Z</time>
      </trkpt>
      <trkpt lat="44.89332" lon="6.79708">
        <ele>2179.25</ele>
        <time>2022-12-12T11:26:49Z</time>
      </trkpt>
      <trkpt lat="44.89328" lon="6.7971">
        <ele>2117.13</ele>
        <time>2022-12-12T11:26:58Z</time>
      </trkpt>
      <trkpt lat="44.89323" lon="6.79711">
        <ele>2168.94</ele>
        <time>2022-12-12T11:27:07Z</time>
      </trkpt>
      <trkpt lat="44.89318" lon="6.79713">
        <ele>2179.22</ele>
        <time>2022-12-12T11:27:16Z</time>
      </trkpt>
      <trkpt lat="44.89315" lon="6.79714">
        <ele>2131.92</ele>
        <time>2022-12-12T11:27:25Z</time>
      </trkpt>
      <trkpt lat="44.8931" lon="6.79716">
        <ele>2143.19</ele>
        <time>2022-12-12T11:27:35Z</time>
      </trkpt>
      <trkpt lat="44.89307" lon="6.79716">
        <ele>2178.06</ele>
        <time>2022-12-12T11:27:44Z</time>
      </trkpt>
      <trkpt lat="44.89302" lon="6.79714">
        <ele>2101.15</ele>
        <time>2022-12-12T11:27:53Z</time>
      </trkpt>
      <trkpt lat="44.89298" lon="6.79712">
        <ele>2182.18</ele>
        <time>2022-12-12T11:28:02Z</time>
      </trkpt>
      <trkpt lat="44.89299" lon="6.79713">
        <ele>2136.38</ele>
        <time>2022-12-12T11:28:12Z</time>
      </trkpt>
      <trkpt lat="44.89296" lon="6.79713">
        <ele>2106.21</ele>
        <time>2022-12-12T11:28:21Z</time>
      </trkpt>
      <trkpt lat="44.8929" lon="6.7971">
        <ele>2180.23</ele>
        <time>2022-12-12T11:28:30Z</time>
      </trkpt>
      <trkpt lat="44.89283" lon="6.79705">
        <ele>2177.15</ele>
        <time>2022-12-12T11:28:40Z</time>
      </trkpt>
      <trkpt lat="44.89278" lon="6.79701">
        <ele>2184.41</ele>
        <time>2022-12-12T11:28:49Z</time>
      </trkpt>
      <trkpt lat="44.89273" lon="6.79698">
        <ele>2185.03</ele>
        <time>2022-12-12T11:28:59Z</time>
      </trkpt>
      <trkpt lat="44.89271" lon="6.79697">
        <ele>2185.56</ele>
        <time>2022-12-12T11:29:08Z</time>
      </trkpt>
      <trkpt lat="44.89266" lon="6.79695">
        <ele>2116.26</ele>
        <time>2022-12-12T11:29:17Z</time>
      </trkpt>
      <trkpt lat="44.89261" lon="6.79691">
        <ele>2104.47</ele>
        <time>2022-12-12T11:29:27Z</time>
      </trkpt>
      <trkpt lat="44.89257" lon="6.79687">
        <ele>2104.65</ele>
        <time>2022-12-12T11:29:36Z</time>
      </trkpt>
      <trkpt lat="44.89254" lon="6.79683">
        <ele>2183.37</ele>
        <time>2022-12-12T11:29:45Z</time>
      </trkpt>
      <trkpt lat="44.89252" lon="6.7968">
        <ele>2185.63</ele>
        <time>2022-12-12T11:29:54Z</time>
      </trkpt>
      <trkpt lat="44.89247" lon="6.79679">
        <ele>2192.73</ele>
        <time>2022-12-12T11:30:04Z</time>
      </trkpt>
      <trkpt lat="44.89246" lon="6.7968">
        <ele>2107.81</ele>
        <time>2022-12-12T11:30:13Z</time>
      </trkpt>
      <trkpt lat="44.89244" lon="6.7968">
        <ele>2107.72</ele>
        <time>2022-12-12T11:30:22Z</time>
      </trkpt>
      <trkpt lat="44.8924" lon="6.79677">
        <ele>2108.18</ele>
        <time>2022-12-12T11:30:32Z</time>
      </trkpt>
      <trkpt lat="44.89238" lon="6.79677">
        <ele>2189.83</ele>
        <time>2022-12-12T11:30:42Z</time>
      </trkpt>
      <trkpt lat="44.89235" lon="6.79677">
        <ele>2127.04</ele>
        <time>2022-12-12T11:30:51Z</time>
      </trkpt>
      <trkpt lat="44.89233" lon="6.79675">
        <ele>2127.18</ele>
        <time>2022-12-12T11:31:00Z</time>
      </trkpt>
      <trkpt lat="44.8923" lon="6.79675">
        <ele>2175.86</ele>
        <time>2022-12-12T11:31:10Z</time>
      </trkpt>
      <trkpt lat="44.89226" lon="6.79675">
        <ele>2194.02</ele>
        <time>2022-12-12T11:31:19Z</time>
      </trkpt>
      <trkpt lat="44.89224" lon="6.79674">
        <ele>2157.55</ele>
        <time>2022-12-12T11:31:29Z</time>
      </trkpt>
      <trkpt lat="44.89221" lon="6.79679">
        <ele>2194.5</ele>
        <time>2022-12-12T11:31:38Z</time>
      </trkpt>
      <trkpt lat="44.89218" lon="6.79682">
        <ele>2189.97</ele>
        <time>2022-12-12T11:31:47Z</time>
      </trkpt>
      <trkpt lat="44.89213" lon="6.79682">
        <ele>2110.39</ele>
        <time>2022-12-12T11:31:56Z</time>
      </trkpt>
      <trkpt lat="44.89208" lon="6.79681">
        <ele>2109.13</ele>
        <time>2022-12-12T11:32:06Z</time>
      </trkpt>
      <trkpt lat="44.89204" lon="6.79679">
        <ele>2129.88</ele>
        <time>2022-12-12T11:32:15Z</time>
      </trkpt>
      <trkpt lat="44.89198" lon="6.79679">
        <ele>2157.73</ele>
        <time>2022-12-12T11:32:24Z</time>
      </trkpt>
      <trkpt lat="44.89196" lon="6.7968">
        <ele>2113.75</ele>
        <time>2022-12-12T11:32:37Z</time>
      </trkpt>
      <trkpt lat="44.89195" lon="6.79687">
        <ele>2111.58</ele>
        <time>2022-12-12T11:32:46Z</time>
      </trkpt>
      <trkpt lat="44.89193" lon="6.79688">
        <ele>2113.29</ele>
        <time>2022-12-12T11:32:55Z</time>
      </trkpt>
      <trkpt lat="44.89194" lon="6.79686">
        <ele>2115.15</ele>
        <time>2022-12-12T11:33:04Z</time>
      </trkpt>
      <trkpt lat="44.89194" lon="6.79684">
        <ele>2114.29</ele>
        <time>2022-12-12T11:33:14Z</time>
      </trkpt>
      <trkpt lat="44.8919" lon="6.7968">
        <ele>2113.74</ele>
        <time>2022-12-12T11:33:23Z</time>
      </trkpt>
      <trkpt lat="44.8919" lon="6.79679">
        <ele>2114.84</ele>
        <time>2022-12-12T11:33:32Z</time>
      </trkpt>
      <trkpt lat="44.89189" lon="6.79677">
        <ele>2113.17</ele>
        <time>2022-12-12T11:33:42Z</time>
      </trkpt>
      <trkpt lat="44.89186" lon="6.79677">
        <ele>2197.06</ele>
        <time>2022-12-12T11:33:51Z</time>
      </trkpt>
      <trkpt lat="44.89181" lon="6.79679">
        <ele>2198.47</ele>
        <time>2022-12-12T11:34:00Z</time>
      </trkpt>
      <trkpt lat="44.89177" lon="6.79678">
        <ele>2198.2</ele>
        <time>2022-12-12T11:34:09Z</time>
      </trkpt>
      <trkpt lat="44.89173" lon="6.79678">
        <ele>2134.55</ele>
        <time>2022-12-12T11:34:19Z</time>
      </trkpt>
      <trkpt lat="44.89174" lon="6.79678">
        <ele>2141.36</ele>
        <time>2022-12-12T11:34:31Z</time>
      </trkpt>
      <trkpt lat="44.89172" lon="6.79677">
        <ele>2217.51</ele>
        <time>2022-12-12T11:34:40Z</time>
      </trkpt>
      <trkpt lat="44.89169" lon="6.79677">
        <ele>2218.55</ele>
        <time>2022-12-12T11:34:49Z</time>
      </trkpt>
      <trkpt lat="44.89166" lon="6.79677">
        <ele>2152.05</ele>
        <time>2022-12-12T11:34:59Z</time>
      </trkpt>
      <trkpt lat="44.89164" lon="6.79676">
        <ele>2203.03</ele>
        <time>2022-12-12T11:35:08Z</time>
      </trkpt>
      <trkpt lat="44.89162" lon="6.79676">
        <ele>2143.84</ele>
        <time>2022-12-12T11:35:17Z</time>
      </trkpt>
      <trkpt lat="44.89157" lon="6.79674">
        <ele>2220.94</ele>
        <time>2022-12-12T11:35:26Z</time>
      </trkpt>
      <trkpt lat="44.89154" lon="6.79676">
        <ele>2152.9</ele>
        <time>2022-12-12T11:35:36Z</time>
      </trkpt>
      <trkpt lat="44.89153" lon="6.79678">
        <ele>2121.83</ele>
        <time>2022-12-12T11:35:45Z</time>
      </trkpt>
      <trkpt lat="44.89152" lon="6.79683">
        <ele>2175.28</ele>
        <time>2022-12-12T11:35:55Z</time>
      </trkpt>
      <trkpt lat="44.8915" lon="6.79688">
        <ele>2207.49</ele>
        <time>2022-12-12T11:36:04Z</time>
      </trkpt>
      <trkpt lat="44.89148" lon="6.79695">
        <ele>2222.77</ele>
        <time>2022-12-12T11:36:13Z</time>
      </trkpt>
      <trkpt lat="44.89146" lon="6.797">
        <ele>2221.85</ele>
        <time>2022-12-12T11:36:22Z</time>
      </trkpt>
      <trkpt lat="44.89144" lon="6.79707">
        <ele>2163.96</ele>
        <time>2022-12-12T11:36:32Z</time>
      </trkpt>
      <trkpt lat="44.89143" lon="6.79716">
        <ele>2146.47</ele>
        <time>2022-12-12T11:36:41Z</time>
      </trkpt>
      <trkpt lat="44.89145" lon="6.79717">
        <ele>2173.56</ele>
        <time>2022-12-12T11:36:51Z</time>
      </trkpt>
      <trkpt lat="44.89151" lon="6.79717">
        <ele>2146.06</ele>
        <time>2022-12-12T11:37:00Z</time>
      </trkpt>
      <trkpt lat="44.89152" lon="6.79718">
        <ele>2212.32</ele>
        <time>2022-12-12T11:37:10Z</time>
      </trkpt>
      <trkpt lat="44.89153" lon="6.79718">
        <ele>2323.91</ele>
        <time>2022-12-12T11:37:19Z</time>
      </trkpt>
      <trkpt lat="44.89155" lon="6.7972">
        <ele>2331.37</ele>
        <time>2022-12-12T11:37:28Z</time>
      </trkpt>
      <trkpt lat="44.89153" lon="6.79723">
        <ele>2179.78</ele>
        <time>2022-12-12T11:37:38Z</time>
      </trkpt>
      <trkpt lat="44.89146" lon="6.79731">
        <ele>2138.02</ele>
        <time>2022-12-12T11:37:47Z</time>
      </trkpt>
      <trkpt lat="44.89137" lon="6.79722">
        <ele>2156.07</ele>
        <time>2022-12-12T11:37:57Z</time>
      </trkpt>
      <trkpt lat="44.8914" lon="6.79734">
        <ele>2169.9</ele>
        <time>2022-12-12T11:38:07Z</time>
      </trkpt>
      <trkpt lat="44.89149" lon="6.79736">
        <ele>2241.05</ele>
        <time>2022-12-12T11:38:16Z</time>
      </trkpt>
      <trkpt lat="44.89153" lon="6.79736">
        <ele>2325.86</ele>
        <time>2022-12-12T11:38:26Z</time>
      </trkpt>
      <trkpt lat="44.8915" lon="6.79737">
        <ele>2336.96</ele>
        <time>2022-12-12T11:38:35Z</time>
      </trkpt>
      <trkpt lat="44.89142" lon="6.79736">
        <ele>2339</ele>
        <time>2022-12-12T11:38:45Z</time>
      </trkpt>
      <trkpt lat="44.89136" lon="6.79738">
        <ele>2338.04</ele>
        <time>2022-12-12T11:38:54Z</time>
      </trkpt>
      <trkpt lat="44.89134" lon="6.79742">
        <ele>2339.01</ele>
        <time>2022-12-12T11:39:03Z</time>
      </trkpt>
      <trkpt lat="44.89134" lon="6.79745">
        <ele>2339.89</ele>
        <time>2022-12-12T11:39:13Z</time>
      </trkpt>
      <trkpt lat="44.89134" lon="6.79746">
        <ele>2342.64</ele>
        <time>2022-12-12T11:39:22Z</time>
      </trkpt>
      <trkpt lat="44.89138" lon="6.79746">
        <ele>2342.41</ele>
        <time>2022-12-12T11:39:32Z</time>
      </trkpt>
      <trkpt lat="44.89141" lon="6.79754">
        <ele>2343.34</ele>
        <time>2022-12-12T11:39:41Z</time>
      </trkpt>
      <trkpt lat="44.89145" lon="6.79755">
        <ele>2342.78</ele>
        <time>2022-12-12T11:39:51Z</time>
      </trkpt>
      <trkpt lat="44.89146" lon="6.79754">
        <ele>2344.15</ele>
        <time>2022-12-12T11:40:00Z</time>
      </trkpt>
      <trkpt lat="44.89148" lon="6.79755">
        <ele>2344.99</ele>
        <time>2022-12-12T11:40:10Z</time>
      </trkpt>
      <trkpt lat="44.89149" lon="6.79757">
        <ele>2345.76</ele>
        <time>2022-12-12T11:40:20Z</time>
      </trkpt>
      <trkpt lat="44.89151" lon="6.79761">
        <ele>2347.12</ele>
        <time>2022-12-12T11:40:29Z</time>
      </trkpt>
      <trkpt lat="44.89152" lon="6.79764">
        <ele>2347.56</ele>
        <time>2022-12-12T11:40:38Z</time>
      </trkpt>
      <trkpt lat="44.89153" lon="6.79768">
        <ele>2347.37</ele>
        <time>2022-12-12T11:40:48Z</time>
      </trkpt>
      <trkpt lat="44.89154" lon="6.79773">
        <ele>2347.4</ele>
        <time>2022-12-12T11:40:57Z</time>
      </trkpt>
      <trkpt lat="44.89156" lon="6.79775">
        <ele>2347.14</ele>
        <time>2022-12-12T11:41:06Z</time>
      </trkpt>
      <trkpt lat="44.89157" lon="6.79777">
        <ele>2348.43</ele>
        <time>2022-12-12T11:41:15Z</time>
      </trkpt>
      <trkpt lat="44.89153" lon="6.79781">
        <ele>2347.93</ele>
        <time>2022-12-12T11:41:25Z</time>
      </trkpt>
      <trkpt lat="44.89153" lon="6.79785">
        <ele>2348.71</ele>
        <time>2022-12-12T11:41:34Z</time>
      </trkpt>
      <trkpt lat="44.89155" lon="6.79787">
        <ele>2350.41</ele>
        <time>2022-12-12T11:41:44Z</time>
      </trkpt>
      <trkpt lat="44.89156" lon="6.79788">
        <ele>2349.72</ele>
        <time>2022-12-12T11:41:54Z</time>
      </trkpt>
      <trkpt lat="44.89155" lon="6.79789">
        <ele>2350.17</ele>
        <time>2022-12-12T11:42:04Z</time>
      </trkpt>
      <trkpt lat="44.89152" lon="6.79791">
        <ele>2350.04</ele>
        <time>2022-12-12T11:42:13Z</time>
      </trkpt>
      <trkpt lat="44.89148" lon="6.79794">
        <ele>2348.55</ele>
        <time>2022-12-12T11:42:23Z</time>
      </trkpt>
      <trkpt lat="44.89147" lon="6.79796">
        <ele>2351.44</ele>
        <time>2022-12-12T11:42:32Z</time>
      </trkpt>
      <trkpt lat="44.8915" lon="6.79796">
        <ele>2359.75</ele>
        <time>2022-12-12T11:42:41Z</time>
      </trkpt>
      <trkpt lat="44.89151" lon="6.79799">
        <ele>2354.36</ele>
        <time>2022-12-12T11:42:50Z</time>
      </trkpt>
      <trkpt lat="44.89147" lon="6.798">
        <ele>2351.02</ele>
        <time>2022-12-12T11:43:00Z</time>
      </trkpt>
      <trkpt lat="44.89145" lon="6.798">
        <ele>2354.51</ele>
        <time>2022-12-12T11:43:09Z</time>
      </trkpt>
      <trkpt lat="44.89142" lon="6.798">
        <ele>2354.76</ele>
        <time>2022-12-12T11:43:19Z</time>
      </trkpt>
      <trkpt lat="44.89139" lon="6.79801">
        <ele>2356.2</ele>
        <time>2022-12-12T11:43:28Z</time>
      </trkpt>
      <trkpt lat="44.89135" lon="6.79802">
        <ele>2365.59</ele>
        <time>2022-12-12T11:43:37Z</time>
      </trkpt>
      <trkpt lat="44.89136" lon="6.79819">
        <ele>2370.32</ele>
        <time>2022-12-12T11:43:46Z</time>
      </trkpt>
      <trkpt lat="44.89136" lon="6.79974">
        <ele>2354.19</ele>
        <time>2022-12-12T11:43:55Z</time>
      </trkpt>
      <trkpt lat="44.89134" lon="6.79927">
        <ele>2343.39</ele>
        <time>2022-12-12T11:44:05Z</time>
      </trkpt>
      <trkpt lat="44.89131" lon="6.79914">
        <ele>2338.3</ele>
        <time>2022-12-12T11:44:14Z</time>
      </trkpt>
      <trkpt lat="44.89132" lon="6.79903">
        <ele>2364.68</ele>
        <time>2022-12-12T11:44:24Z</time>
      </trkpt>
      <trkpt lat="44.8913" lon="6.79898">
        <ele>2361.32</ele>
        <time>2022-12-12T11:44:33Z</time>
      </trkpt>
      <trkpt lat="44.89127" lon="6.79888">
        <ele>2363.57</ele>
        <time>2022-12-12T11:44:42Z</time>
      </trkpt>
      <trkpt lat="44.89135" lon="6.79847">
        <ele>2366.32</ele>
        <time>2022-12-12T11:44:52Z</time>
      </trkpt>
      <trkpt lat="44.89138" lon="6.79836">
        <ele>2369.7</ele>
        <time>2022-12-12T11:45:02Z</time>
      </trkpt>
      <trkpt lat="44.8914" lon="6.79836">
        <ele>2370.18</ele>
        <time>2022-12-12T11:45:11Z</time>
      </trkpt>
      <trkpt lat="44.89142" lon="6.79843">
        <ele>2372.08</ele>
        <time>2022-12-12T11:45:20Z</time>
      </trkpt>
      <trkpt lat="44.89138" lon="6.79849">
        <ele>2373.11</ele>
        <time>2022-12-12T11:45:30Z</time>
      </trkpt>
      <trkpt lat="44.89137" lon="6.7985">
        <ele>2375.13</ele>
        <time>2022-12-12T11:45:39Z</time>
      </trkpt>
      <trkpt lat="44.89136" lon="6.79854">
        <ele>2375.77</ele>
        <time>2022-12-12T11:45:49Z</time>
      </trkpt>
      <trkpt lat="44.89134" lon="6.79858">
        <ele>2377.17</ele>
        <time>2022-12-12T11:45:58Z</time>
      </trkpt>
      <trkpt lat="44.89132" lon="6.79858">
        <ele>2378.99</ele>
        <time>2022-12-12T11:46:07Z</time>
      </trkpt>
      <trkpt lat="44.89133" lon="6.79859">
        <ele>2380.58</ele>
        <time>2022-12-12T11:46:17Z</time>
      </trkpt>
      <trkpt lat="44.89135" lon="6.79858">
        <ele>2381.86</ele>
        <time>2022-12-12T11:46:26Z</time>
      </trkpt>
      <trkpt lat="44.89138" lon="6.79857">
        <ele>2383.78</ele>
        <time>2022-12-12T11:46:35Z</time>
      </trkpt>
      <trkpt lat="44.8914" lon="6.79857">
        <ele>2385.27</ele>
        <time>2022-12-12T11:46:44Z</time>
      </trkpt>
      <trkpt lat="44.89144" lon="6.79858">
        <ele>2384.88</ele>
        <time>2022-12-12T11:46:54Z</time>
      </trkpt>
      <trkpt lat="44.89147" lon="6.79859">
        <ele>2384.94</ele>
        <time>2022-12-12T11:47:03Z</time>
      </trkpt>
      <trkpt lat="44.89148" lon="6.79861">
        <ele>2386.59</ele>
        <time>2022-12-12T11:47:13Z</time>
      </trkpt>
      <trkpt lat="44.89149" lon="6.79864">
        <ele>2385.14</ele>
        <time>2022-12-12T11:47:23Z</time>
      </trkpt>
      <trkpt lat="44.89151" lon="6.79868">
        <ele>2384</ele>
        <time>2022-12-12T11:47:32Z</time>
      </trkpt>
      <trkpt lat="44.89154" lon="6.79871">
        <ele>2384.34</ele>
        <time>2022-12-12T11:47:41Z</time>
      </trkpt>
      <trkpt lat="44.89155" lon="6.79874">
        <ele>2384.57</ele>
        <time>2022-12-12T11:47:51Z</time>
      </trkpt>
      <trkpt lat="44.89157" lon="6.79878">
        <ele>2385.88</ele>
        <time>2022-12-12T11:48:00Z</time>
      </trkpt>
      <trkpt lat="44.89159" lon="6.79879">
        <ele>2386.53</ele>
        <time>2022-12-12T11:48:10Z</time>
      </trkpt>
      <trkpt lat="44.8916" lon="6.7988">
        <ele>2386.18</ele>
        <time>2022-12-12T11:48:19Z</time>
      </trkpt>
      <trkpt lat="44.8916" lon="6.79882">
        <ele>2388.58</ele>
        <time>2022-12-12T11:48:29Z</time>
      </trkpt>
      <trkpt lat="44.89158" lon="6.79885">
        <ele>2389.77</ele>
        <time>2022-12-12T11:48:38Z</time>
      </trkpt>
      <trkpt lat="44.89157" lon="6.7989">
        <ele>2390.86</ele>
        <time>2022-12-12T11:48:48Z</time>
      </trkpt>
      <trkpt lat="44.89155" lon="6.79895">
        <ele>2389.9</ele>
        <time>2022-12-12T11:48:57Z</time>
      </trkpt>
      <trkpt lat="44.89155" lon="6.79901">
        <ele>2389.85</ele>
        <time>2022-12-12T11:49:06Z</time>
      </trkpt>
      <trkpt lat="44.89155" lon="6.79904">
        <ele>2390.51</ele>
        <time>2022-12-12T11:49:16Z</time>
      </trkpt>
      <trkpt lat="44.89155" lon="6.79906">
        <ele>2393.5</ele>
        <time>2022-12-12T11:49:26Z</time>
      </trkpt>
      <trkpt lat="44.89157" lon="6.79905">
        <ele>2394.07</ele>
        <time>2022-12-12T11:49:35Z</time>
      </trkpt>
      <trkpt lat="44.89159" lon="6.79906">
        <ele>2392.62</ele>
        <time>2022-12-12T11:49:44Z</time>
      </trkpt>
      <trkpt lat="44.89161" lon="6.79907">
        <ele>2392.51</ele>
        <time>2022-12-12T11:49:54Z</time>
      </trkpt>
      <trkpt lat="44.89162" lon="6.79907">
        <ele>2394.34</ele>
        <time>2022-12-12T11:50:03Z</time>
      </trkpt>
      <trkpt lat="44.89164" lon="6.79908">
        <ele>2397.46</ele>
        <time>2022-12-12T11:50:13Z</time>
      </trkpt>
      <trkpt lat="44.89166" lon="6.7991">
        <ele>2397.45</ele>
        <time>2022-12-12T11:50:22Z</time>
      </trkpt>
      <trkpt lat="44.89167" lon="6.79915">
        <ele>2396.23</ele>
        <time>2022-12-12T11:50:32Z</time>
      </trkpt>
      <trkpt lat="44.89169" lon="6.7992">
        <ele>2397.79</ele>
        <time>2022-12-12T11:50:42Z</time>
      </trkpt>
      <trkpt lat="44.89171" lon="6.79926">
        <ele>2398.23</ele>
        <time>2022-12-12T11:50:52Z</time>
      </trkpt>
      <trkpt lat="44.89172" lon="6.79932">
        <ele>2398.26</ele>
        <time>2022-12-12T11:51:01Z</time>
      </trkpt>
      <trkpt lat="44.89174" lon="6.7994">
        <ele>2397</ele>
        <time>2022-12-12T11:51:11Z</time>
      </trkpt>
      <trkpt lat="44.89174" lon="6.79943">
        <ele>2398.42</ele>
        <time>2022-12-12T11:51:20Z</time>
      </trkpt>
      <trkpt lat="44.89175" lon="6.79945">
        <ele>2400.16</ele>
        <time>2022-12-12T11:51:29Z</time>
      </trkpt>
      <trkpt lat="44.89177" lon="6.79949">
        <ele>2400.64</ele>
        <time>2022-12-12T11:51:38Z</time>
      </trkpt>
      <trkpt lat="44.89178" lon="6.79954">
        <ele>2402.01</ele>
        <time>2022-12-12T11:51:48Z</time>
      </trkpt>
      <trkpt lat="44.89179" lon="6.79959">
        <ele>2403.06</ele>
        <time>2022-12-12T11:51:57Z</time>
      </trkpt>
      <trkpt lat="44.89179" lon="6.79964">
        <ele>2404.93</ele>
        <time>2022-12-12T11:52:06Z</time>
      </trkpt>
      <trkpt lat="44.89179" lon="6.79965">
        <ele>2406.02</ele>
        <time>2022-12-12T11:52:17Z</time>
      </trkpt>
      <trkpt lat="44.89179" lon="6.7997">
        <ele>2407.86</ele>
        <time>2022-12-12T11:52:26Z</time>
      </trkpt>
      <trkpt lat="44.89179" lon="6.79975">
        <ele>2409.26</ele>
        <time>2022-12-12T11:52:35Z</time>
      </trkpt>
      <trkpt lat="44.89179" lon="6.79984">
        <ele>2409.12</ele>
        <time>2022-12-12T11:52:45Z</time>
      </trkpt>
      <trkpt lat="44.89179" lon="6.79991">
        <ele>2410.73</ele>
        <time>2022-12-12T11:52:54Z</time>
      </trkpt>
      <trkpt lat="44.89178" lon="6.79998">
        <ele>2402.63</ele>
        <time>2022-12-12T11:53:04Z</time>
      </trkpt>
      <trkpt lat="44.89179" lon="6.79999">
        <ele>2409.21</ele>
        <time>2022-12-12T11:53:13Z</time>
      </trkpt>
      <trkpt lat="44.8918" lon="6.79999">
        <ele>2409.67</ele>
        <time>2022-12-12T11:53:23Z</time>
      </trkpt>
      <trkpt lat="44.89182" lon="6.79999">
        <ele>2409.9</ele>
        <time>2022-12-12T11:53:32Z</time>
      </trkpt>
      <trkpt lat="44.89183" lon="6.80001">
        <ele>2410.91</ele>
        <time>2022-12-12T11:53:42Z</time>
      </trkpt>
      <trkpt lat="44.89184" lon="6.80005">
        <ele>2409.14</ele>
        <time>2022-12-12T11:53:51Z</time>
      </trkpt>
      <trkpt lat="44.89182" lon="6.80007">
        <ele>2411.9</ele>
        <time>2022-12-12T11:54:01Z</time>
      </trkpt>
      <trkpt lat="44.89181" lon="6.80009">
        <ele>2410.11</ele>
        <time>2022-12-12T11:54:10Z</time>
      </trkpt>
      <trkpt lat="44.89182" lon="6.80014">
        <ele>2273.61</ele>
        <time>2022-12-12T11:54:20Z</time>
      </trkpt>
      <trkpt lat="44.89183" lon="6.80015">
        <ele>2213.55</ele>
        <time>2022-12-12T11:54:29Z</time>
      </trkpt>
      <trkpt lat="44.89184" lon="6.80016">
        <ele>2281.21</ele>
        <time>2022-12-12T11:54:41Z</time>
      </trkpt>
      <trkpt lat="44.89186" lon="6.80021">
        <ele>2274.45</ele>
        <time>2022-12-12T11:54:51Z</time>
      </trkpt>
      <trkpt lat="44.89187" lon="6.80027">
        <ele>2288.19</ele>
        <time>2022-12-12T11:55:00Z</time>
      </trkpt>
      <trkpt lat="44.89188" lon="6.80031">
        <ele>2259.36</ele>
        <time>2022-12-12T11:55:10Z</time>
      </trkpt>
      <trkpt lat="44.89189" lon="6.80034">
        <ele>2241.77</ele>
        <time>2022-12-12T11:55:19Z</time>
      </trkpt>
      <trkpt lat="44.89189" lon="6.80038">
        <ele>2266.18</ele>
        <time>2022-12-12T11:55:28Z</time>
      </trkpt>
      <trkpt lat="44.89188" lon="6.8004">
        <ele>2281.8</ele>
        <time>2022-12-12T11:55:38Z</time>
      </trkpt>
      <trkpt lat="44.89184" lon="6.80039">
        <ele>2212.52</ele>
        <time>2022-12-12T11:55:47Z</time>
      </trkpt>
      <trkpt lat="44.89181" lon="6.80042">
        <ele>2292.04</ele>
        <time>2022-12-12T11:55:57Z</time>
      </trkpt>
      <trkpt lat="44.89179" lon="6.80046">
        <ele>2303.17</ele>
        <time>2022-12-12T11:56:06Z</time>
      </trkpt>
      <trkpt lat="44.89178" lon="6.80048">
        <ele>2258</ele>
        <time>2022-12-12T11:56:16Z</time>
      </trkpt>
      <trkpt lat="44.89174" lon="6.80048">
        <ele>2241.55</ele>
        <time>2022-12-12T11:56:25Z</time>
      </trkpt>
      <trkpt lat="44.89169" lon="6.80049">
        <ele>2297.56</ele>
        <time>2022-12-12T11:56:34Z</time>
      </trkpt>
      <trkpt lat="44.89166" lon="6.80048">
        <ele>2220.31</ele>
        <time>2022-12-12T11:56:43Z</time>
      </trkpt>
      <trkpt lat="44.89164" lon="6.80043">
        <ele>2240.62</ele>
        <time>2022-12-12T11:56:53Z</time>
      </trkpt>
      <trkpt lat="44.89163" lon="6.80044">
        <ele>2314.63</ele>
        <time>2022-12-12T11:57:03Z</time>
      </trkpt>
      <trkpt lat="44.89162" lon="6.80043">
        <ele>2307.1</ele>
        <time>2022-12-12T11:57:13Z</time>
      </trkpt>
      <trkpt lat="44.89159" lon="6.80046">
        <ele>2304.35</ele>
        <time>2022-12-12T11:57:23Z</time>
      </trkpt>
      <trkpt lat="44.89158" lon="6.80046">
        <ele>2314.54</ele>
        <time>2022-12-12T11:57:32Z</time>
      </trkpt>
      <trkpt lat="44.89155" lon="6.80047">
        <ele>2256.48</ele>
        <time>2022-12-12T11:57:42Z</time>
      </trkpt>
      <trkpt lat="44.89154" lon="6.80043">
        <ele>2220.27</ele>
        <time>2022-12-12T11:57:51Z</time>
      </trkpt>
      <trkpt lat="44.89152" lon="6.80043">
        <ele>2314.99</ele>
        <time>2022-12-12T11:58:01Z</time>
      </trkpt>
      <trkpt lat="44.8915" lon="6.80046">
        <ele>2111.98</ele>
        <time>2022-12-12T11:58:10Z</time>
      </trkpt>
      <trkpt lat="44.89147" lon="6.80046">
        <ele>2249.83</ele>
        <time>2022-12-12T11:58:19Z</time>
      </trkpt>
      <trkpt lat="44.89143" lon="6.80048">
        <ele>2278.27</ele>
        <time>2022-12-12T11:58:29Z</time>
      </trkpt>
      <trkpt lat="44.89142" lon="6.80048">
        <ele>2164.59</ele>
        <time>2022-12-12T11:58:45Z</time>
      </trkpt>
      <trkpt lat="44.89141" lon="6.80053">
        <ele>2212.41</ele>
        <time>2022-12-12T11:58:54Z</time>
      </trkpt>
      <trkpt lat="44.8914" lon="6.80056">
        <ele>2288.21</ele>
        <time>2022-12-12T11:59:03Z</time>
      </trkpt>
      <trkpt lat="44.89141" lon="6.8006">
        <ele>2289.02</ele>
        <time>2022-12-12T11:59:12Z</time>
      </trkpt>
      <trkpt lat="44.89142" lon="6.80064">
        <ele>2289.4</ele>
        <time>2022-12-12T11:59:21Z</time>
      </trkpt>
      <trkpt lat="44.89143" lon="6.8007">
        <ele>2289.64</ele>
        <time>2022-12-12T11:59:31Z</time>
      </trkpt>
      <trkpt lat="44.89143" lon="6.80072">
        <ele>2281.37</ele>
        <time>2022-12-12T11:59:40Z</time>
      </trkpt>
      <trkpt lat="44.89141" lon="6.80075">
        <ele>2281</ele>
        <time>2022-12-12T11:59:49Z</time>
      </trkpt>
      <trkpt lat="44.89138" lon="6.80077">
        <ele>2192.11</ele>
        <time>2022-12-12T11:59:58Z</time>
      </trkpt>
      <trkpt lat="44.89137" lon="6.80083">
        <ele>2289.13</ele>
        <time>2022-12-12T12:00:08Z</time>
      </trkpt>
      <trkpt lat="44.89137" lon="6.80087">
        <ele>2196.91</ele>
        <time>2022-12-12T12:00:17Z</time>
      </trkpt>
      <trkpt lat="44.89136" lon="6.80093">
        <ele>2257.03</ele>
        <time>2022-12-12T12:00:26Z</time>
      </trkpt>
      <trkpt lat="44.89135" lon="6.80096">
        <ele>2246.97</ele>
        <time>2022-12-12T12:00:36Z</time>
      </trkpt>
      <trkpt lat="44.89133" lon="6.80101">
        <ele>2239.1</ele>
        <time>2022-12-12T12:00:46Z</time>
      </trkpt>
      <trkpt lat="44.89132" lon="6.80103">
        <ele>2239.01</ele>
        <time>2022-12-12T12:00:55Z</time>
      </trkpt>
      <trkpt lat="44.89133" lon="6.80103">
        <ele>2313.12</ele>
        <time>2022-12-12T12:01:05Z</time>
      </trkpt>
      <trkpt lat="44.89134" lon="6.80104">
        <ele>2316.94</ele>
        <time>2022-12-12T12:01:14Z</time>
      </trkpt>
      <trkpt lat="44.89135" lon="6.80105">
        <ele>2318.54</ele>
        <time>2022-12-12T12:01:24Z</time>
      </trkpt>
      <trkpt lat="44.89134" lon="6.80107">
        <ele>2319.43</ele>
        <time>2022-12-12T12:01:34Z</time>
      </trkpt>
      <trkpt lat="44.89135" lon="6.80113">
        <ele>2320.06</ele>
        <time>2022-12-12T12:01:43Z</time>
      </trkpt>
      <trkpt lat="44.89135" lon="6.80115">
        <ele>2294.7</ele>
        <time>2022-12-12T12:01:53Z</time>
      </trkpt>
      <trkpt lat="44.89134" lon="6.80119">
        <ele>2217.24</ele>
        <time>2022-12-12T12:02:02Z</time>
      </trkpt>
      <trkpt lat="44.89136" lon="6.80122">
        <ele>2202.12</ele>
        <time>2022-12-12T12:02:12Z</time>
      </trkpt>
      <trkpt lat="44.89135" lon="6.80123">
        <ele>2231.8</ele>
        <time>2022-12-12T12:02:21Z</time>
      </trkpt>
      <trkpt lat="44.89135" lon="6.80124">
        <ele>2233.43</ele>
        <time>2022-12-12T12:02:45Z</time>
      </trkpt>
      <trkpt lat="44.89135" lon="6.80133">
        <ele>2233.06</ele>
        <time>2022-12-12T12:02:55Z</time>
      </trkpt>
      <trkpt lat="44.89128" lon="6.80142">
        <ele>2293.37</ele>
        <time>2022-12-12T12:03:04Z</time>
      </trkpt>
      <trkpt lat="44.89122" lon="6.80146">
        <ele>2191.24</ele>
        <time>2022-12-12T12:03:13Z</time>
      </trkpt>
      <trkpt lat="44.89117" lon="6.80149">
        <ele>2279.84</ele>
        <time>2022-12-12T12:03:22Z</time>
      </trkpt>
      <trkpt lat="44.89113" lon="6.80153">
        <ele>2276.92</ele>
        <time>2022-12-12T12:03:32Z</time>
      </trkpt>
      <trkpt lat="44.8911" lon="6.8015">
        <ele>2280.82</ele>
        <time>2022-12-12T12:03:41Z</time>
      </trkpt>
      <trkpt lat="44.89107" lon="6.8015">
        <ele>2273</ele>
        <time>2022-12-12T12:03:50Z</time>
      </trkpt>
      <trkpt lat="44.89106" lon="6.80152">
        <ele>2296.51</ele>
        <time>2022-12-12T12:03:59Z</time>
      </trkpt>
      <trkpt lat="44.89109" lon="6.80152">
        <ele>2221.64</ele>
        <time>2022-12-12T12:04:09Z</time>
      </trkpt>
      <trkpt lat="44.89112" lon="6.8015">
        <ele>2305</ele>
        <time>2022-12-12T12:04:18Z</time>
      </trkpt>
      <trkpt lat="44.89115" lon="6.8015">
        <ele>2235.52</ele>
        <time>2022-12-12T12:04:28Z</time>
      </trkpt>
      <trkpt lat="44.89117" lon="6.80151">
        <ele>2254.84</ele>
        <time>2022-12-12T12:04:38Z</time>
      </trkpt>
      <trkpt lat="44.89118" lon="6.80152">
        <ele>2240.75</ele>
        <time>2022-12-12T12:04:47Z</time>
      </trkpt>
      <trkpt lat="44.89119" lon="6.80153">
        <ele>2208.43</ele>
        <time>2022-12-12T12:04:57Z</time>
      </trkpt>
      <trkpt lat="44.89118" lon="6.80154">
        <ele>2206.64</ele>
        <time>2022-12-12T12:05:07Z</time>
      </trkpt>
      <trkpt lat="44.89118" lon="6.80157">
        <ele>2231.65</ele>
        <time>2022-12-12T12:05:17Z</time>
      </trkpt>
      <trkpt lat="44.89117" lon="6.8016">
        <ele>2290.7</ele>
        <time>2022-12-12T12:05:27Z</time>
      </trkpt>
      <trkpt lat="44.89117" lon="6.80164">
        <ele>2215.79</ele>
        <time>2022-12-12T12:05:36Z</time>
      </trkpt>
      <trkpt lat="44.89115" lon="6.80168">
        <ele>2321.48</ele>
        <time>2022-12-12T12:05:45Z</time>
      </trkpt>
      <trkpt lat="44.89114" lon="6.80169">
        <ele>2325.73</ele>
        <time>2022-12-12T12:05:54Z</time>
      </trkpt>
      <trkpt lat="44.89114" lon="6.80171">
        <ele>2234.14</ele>
        <time>2022-12-12T12:06:03Z</time>
      </trkpt>
      <trkpt lat="44.89113" lon="6.80177">
        <ele>2332.42</ele>
        <time>2022-12-12T12:06:13Z</time>
      </trkpt>
      <trkpt lat="44.8911" lon="6.80172">
        <ele>2282.27</ele>
        <time>2022-12-12T12:06:22Z</time>
      </trkpt>
      <trkpt lat="44.89111" lon="6.80168">
        <ele>2240.74</ele>
        <time>2022-12-12T12:06:31Z</time>
      </trkpt>
      <trkpt lat="44.89111" lon="6.80164">
        <ele>2279.57</ele>
        <time>2022-12-12T12:06:40Z</time>
      </trkpt>
      <trkpt lat="44.89112" lon="6.80163">
        <ele>2316.6</ele>
        <time>2022-12-12T12:07:06Z</time>
      </trkpt>
      <trkpt lat="44.89113" lon="6.80162">
        <ele>2351.98</ele>
        <time>2022-12-12T12:07:16Z</time>
      </trkpt>
      <trkpt lat="44.89114" lon="6.80159">
        <ele>2314.27</ele>
        <time>2022-12-12T12:07:25Z</time>
      </trkpt>
      <trkpt lat="44.89115" lon="6.80158">
        <ele>2314.79</ele>
        <time>2022-12-12T12:07:35Z</time>
      </trkpt>
      <trkpt lat="44.89113" lon="6.80156">
        <ele>2241.34</ele>
        <time>2022-12-12T12:07:44Z</time>
      </trkpt>
      <trkpt lat="44.8911" lon="6.80157">
        <ele>2307.7</ele>
        <time>2022-12-12T12:07:54Z</time>
      </trkpt>
      <trkpt lat="44.89109" lon="6.80157">
        <ele>2311.96</ele>
        <time>2022-12-12T12:08:03Z</time>
      </trkpt>
      <trkpt lat="44.89108" lon="6.80159">
        <ele>2249.57</ele>
        <time>2022-12-12T12:08:53Z</time>
      </trkpt>
      <trkpt lat="44.89107" lon="6.80159">
        <ele>2242.7</ele>
        <time>2022-12-12T12:09:05Z</time>
      </trkpt>
      <trkpt lat="44.89108" lon="6.80159">
        <ele>2333.34</ele>
        <time>2022-12-12T12:09:22Z</time>
      </trkpt>
      <trkpt lat="44.89108" lon="6.80158">
        <ele>2333.17</ele>
        <time>2022-12-12T12:10:43Z</time>
      </trkpt>
      <trkpt lat="44.89109" lon="6.80156">
        <ele>2333.13</ele>
        <time>2022-12-12T12:11:24Z</time>
      </trkpt>
      <trkpt lat="44.89108" lon="6.80156">
        <ele>2313.74</ele>
        <time>2022-12-12T12:12:45Z</time>
      </trkpt>
      <trkpt lat="44.89107" lon="6.80155">
        <ele>2332.08</ele>
        <time>2022-12-12T12:13:12Z</time>
      </trkpt>
      <trkpt lat="44.89106" lon="6.80156">
        <ele>2210.96</ele>
        <time>2022-12-12T12:13:45Z</time>
      </trkpt>
      <trkpt lat="44.89106" lon="6.80157">
        <ele>2335.11</ele>
        <time>2022-12-12T12:18:51Z</time>
      </trkpt>
      <trkpt lat="44.89107" lon="6.80157">
        <ele>2334.36</ele>
        <time>2022-12-12T12:22:13Z</time>
      </trkpt>
      <trkpt lat="44.89108" lon="6.80156">
        <ele>2238.9</ele>
        <time>2022-12-12T12:23:27Z</time>
      </trkpt>
      <trkpt lat="44.89109" lon="6.80155">
        <ele>2330.11</ele>
        <time>2022-12-12T12:24:07Z</time>
      </trkpt>
      <trkpt lat="44.89108" lon="6.80154">
        <ele>2256.49</ele>
        <time>2022-12-12T12:24:25Z</time>
      </trkpt>
      <trkpt lat="44.89108" lon="6.80153">
        <ele>2333.8</ele>
        <time>2022-12-12T12:25:04Z</time>
      </trkpt>
      <trkpt lat="44.89107" lon="6.80151">
        <ele>2247.6</ele>
        <time>2022-12-12T12:25:14Z</time>
      </trkpt>
      <trkpt lat="44.89107" lon="6.80153">
        <ele>2330.12</ele>
        <time>2022-12-12T12:25:33Z</time>
      </trkpt>
      <trkpt lat="44.89107" lon="6.80151">
        <ele>2262.73</ele>
        <time>2022-12-12T12:26:10Z</time>
      </trkpt>
      <trkpt lat="44.89109" lon="6.80152">
        <ele>2201.02</ele>
        <time>2022-12-12T12:26:20Z</time>
      </trkpt>
      <trkpt lat="44.89108" lon="6.8015">
        <ele>2261</ele>
        <time>2022-12-12T12:26:29Z</time>
      </trkpt>
      <trkpt lat="44.89108" lon="6.80147">
        <ele>2331.42</ele>
        <time>2022-12-12T12:26:39Z</time>
      </trkpt>
      <trkpt lat="44.89108" lon="6.80151">
        <ele>2247.26</ele>
        <time>2022-12-12T12:26:48Z</time>
      </trkpt>
      <trkpt lat="44.89109" lon="6.8015">
        <ele>2335.21</ele>
        <time>2022-12-12T12:27:52Z</time>
      </trkpt>
      <trkpt lat="44.89109" lon="6.80149">
        <ele>2334.77</ele>
        <time>2022-12-12T12:28:05Z</time>
      </trkpt>
      <trkpt lat="44.8911" lon="6.80149">
        <ele>2264.39</ele>
        <time>2022-12-12T12:28:14Z</time>
      </trkpt>
      <trkpt lat="44.89111" lon="6.8015">
        <ele>2238.29</ele>
        <time>2022-12-12T12:28:24Z</time>
      </trkpt>
      <trkpt lat="44.89111" lon="6.80152">
        <ele>2312.96</ele>
        <time>2022-12-12T12:28:34Z</time>
      </trkpt>
      <trkpt lat="44.8911" lon="6.80153">
        <ele>2293.72</ele>
        <time>2022-12-12T12:28:58Z</time>
      </trkpt>
      <trkpt lat="44.8911" lon="6.80152">
        <ele>2273.19</ele>
        <time>2022-12-12T12:29:07Z</time>
      </trkpt>
      <trkpt lat="44.89111" lon="6.80152">
        <ele>2231.39</ele>
        <time>2022-12-12T12:29:18Z</time>
      </trkpt>
      <trkpt lat="44.89112" lon="6.80153">
        <ele>2229.04</ele>
        <time>2022-12-12T12:29:30Z</time>
      </trkpt>
      <trkpt lat="44.89115" lon="6.80152">
        <ele>2251.75</ele>
        <time>2022-12-12T12:29:40Z</time>
      </trkpt>
      <trkpt lat="44.89115" lon="6.80151">
        <ele>2306.13</ele>
        <time>2022-12-12T12:29:51Z</time>
      </trkpt>
      <trkpt lat="44.89116" lon="6.8015">
        <ele>2307.96</ele>
        <time>2022-12-12T12:30:05Z</time>
      </trkpt>
      <trkpt lat="44.89118" lon="6.80145">
        <ele>2266.4</ele>
        <time>2022-12-12T12:30:15Z</time>
      </trkpt>
      <trkpt lat="44.89125" lon="6.80126">
        <ele>2297.95</ele>
        <time>2022-12-12T12:30:24Z</time>
      </trkpt>
      <trkpt lat="44.89124" lon="6.80129">
        <ele>2215.66</ele>
        <time>2022-12-12T12:30:33Z</time>
      </trkpt>
      <trkpt lat="44.89126" lon="6.80129">
        <ele>2230.25</ele>
        <time>2022-12-12T12:30:46Z</time>
      </trkpt>
      <trkpt lat="44.89126" lon="6.8013">
        <ele>2230.17</ele>
        <time>2022-12-12T12:31:01Z</time>
      </trkpt>
      <trkpt lat="44.89125" lon="6.80132">
        <ele>2213.48</ele>
        <time>2022-12-12T12:31:14Z</time>
      </trkpt>
      <trkpt lat="44.89126" lon="6.80129">
        <ele>2222.6</ele>
        <time>2022-12-12T12:31:24Z</time>
      </trkpt>
      <trkpt lat="44.89127" lon="6.8013">
        <ele>2211.19</ele>
        <time>2022-12-12T12:31:34Z</time>
      </trkpt>
      <trkpt lat="44.89126" lon="6.80132">
        <ele>2205.3</ele>
        <time>2022-12-12T12:31:57Z</time>
      </trkpt>
      <trkpt lat="44.89127" lon="6.8013">
        <ele>2296.37</ele>
        <time>2022-12-12T12:32:16Z</time>
      </trkpt>
      <trkpt lat="44.89141" lon="6.80104">
        <ele>2319.68</ele>
        <time>2022-12-12T12:32:26Z</time>
      </trkpt>
      <trkpt lat="44.89148" lon="6.80098">
        <ele>2314.42</ele>
        <time>2022-12-12T12:32:36Z</time>
      </trkpt>
      <trkpt lat="44.89156" lon="6.8006">
        <ele>2274.84</ele>
        <time>2022-12-12T12:32:46Z</time>
      </trkpt>
      <trkpt lat="44.89167" lon="6.80058">
        <ele>2205.94</ele>
        <time>2022-12-12T12:32:56Z</time>
      </trkpt>
      <trkpt lat="44.89176" lon="6.80041">
        <ele>2257.85</ele>
        <time>2022-12-12T12:33:05Z</time>
      </trkpt>
      <trkpt lat="44.89175" lon="6.80042">
        <ele>2196.95</ele>
        <time>2022-12-12T12:33:16Z</time>
      </trkpt>
      <trkpt lat="44.89176" lon="6.80043">
        <ele>2161.86</ele>
        <time>2022-12-12T12:33:28Z</time>
      </trkpt>
      <trkpt lat="44.89175" lon="6.80042">
        <ele>2234.34</ele>
        <time>2022-12-12T12:33:44Z</time>
      </trkpt>
      <trkpt lat="44.89175" lon="6.80041">
        <ele>2258.76</ele>
        <time>2022-12-12T12:34:13Z</time>
      </trkpt>
      <trkpt lat="44.89177" lon="6.80042">
        <ele>2242.37</ele>
        <time>2022-12-12T12:34:31Z</time>
      </trkpt>
      <trkpt lat="44.89197" lon="6.80019">
        <ele>2246.7</ele>
        <time>2022-12-12T12:34:41Z</time>
      </trkpt>
      <trkpt lat="44.89207" lon="6.80007">
        <ele>2270.79</ele>
        <time>2022-12-12T12:34:51Z</time>
      </trkpt>
      <trkpt lat="44.89208" lon="6.80006">
        <ele>2174.86</ele>
        <time>2022-12-12T12:35:03Z</time>
      </trkpt>
      <trkpt lat="44.89216" lon="6.79995">
        <ele>2205.14</ele>
        <time>2022-12-12T12:35:13Z</time>
      </trkpt>
      <trkpt lat="44.89216" lon="6.79983">
        <ele>2159.19</ele>
        <time>2022-12-12T12:35:23Z</time>
      </trkpt>
      <trkpt lat="44.89216" lon="6.79981">
        <ele>2217.37</ele>
        <time>2022-12-12T12:35:32Z</time>
      </trkpt>
      <trkpt lat="44.89216" lon="6.79971">
        <ele>2281.87</ele>
        <time>2022-12-12T12:35:42Z</time>
      </trkpt>
      <trkpt lat="44.89216" lon="6.7997">
        <ele>2201.37</ele>
        <time>2022-12-12T12:35:51Z</time>
      </trkpt>
      <trkpt lat="44.89216" lon="6.79968">
        <ele>2167.59</ele>
        <time>2022-12-12T12:36:15Z</time>
      </trkpt>
      <trkpt lat="44.89213" lon="6.79952">
        <ele>2161.39</ele>
        <time>2022-12-12T12:36:25Z</time>
      </trkpt>
      <trkpt lat="44.8922" lon="6.79911">
        <ele>2194.9</ele>
        <time>2022-12-12T12:36:35Z</time>
      </trkpt>
      <trkpt lat="44.89228" lon="6.79878">
        <ele>2107.76</ele>
        <time>2022-12-12T12:36:44Z</time>
      </trkpt>
      <trkpt lat="44.89242" lon="6.79856">
        <ele>2145.28</ele>
        <time>2022-12-12T12:36:54Z</time>
      </trkpt>
      <trkpt lat="44.89241" lon="6.79858">
        <ele>2173.63</ele>
        <time>2022-12-12T12:37:03Z</time>
      </trkpt>
      <trkpt lat="44.89241" lon="6.79857">
        <ele>2088.47</ele>
        <time>2022-12-12T12:37:50Z</time>
      </trkpt>
      <trkpt lat="44.89242" lon="6.7986">
        <ele>2138.29</ele>
        <time>2022-12-12T12:38:03Z</time>
      </trkpt>
      <trkpt lat="44.89243" lon="6.79856">
        <ele>2141.34</ele>
        <time>2022-12-12T12:38:16Z</time>
      </trkpt>
      <trkpt lat="44.89266" lon="6.79841">
        <ele>2152.83</ele>
        <time>2022-12-12T12:38:26Z</time>
      </trkpt>
      <trkpt lat="44.89271" lon="6.79839">
        <ele>2103.36</ele>
        <time>2022-12-12T12:38:37Z</time>
      </trkpt>
      <trkpt lat="44.89298" lon="6.79853">
        <ele>2089.11</ele>
        <time>2022-12-12T12:39:12Z</time>
      </trkpt>
      <trkpt lat="44.89302" lon="6.79833">
        <ele>2113.5</ele>
        <time>2022-12-12T12:39:22Z</time>
      </trkpt>
      <trkpt lat="44.89307" lon="6.7983">
        <ele>2162.3</ele>
        <time>2022-12-12T12:39:31Z</time>
      </trkpt>
      <trkpt lat="44.89307" lon="6.79831">
        <ele>2088.08</ele>
        <time>2022-12-12T12:39:43Z</time>
      </trkpt>
      <trkpt lat="44.89308" lon="6.79831">
        <ele>2142.32</ele>
        <time>2022-12-12T12:39:58Z</time>
      </trkpt>
      <trkpt lat="44.89309" lon="6.7983">
        <ele>2002.62</ele>
        <time>2022-12-12T12:40:17Z</time>
      </trkpt>
      <trkpt lat="44.89311" lon="6.79827">
        <ele>2002.54</ele>
        <time>2022-12-12T12:40:27Z</time>
      </trkpt>
      <trkpt lat="44.8931" lon="6.79828">
        <ele>2143.47</ele>
        <time>2022-12-12T12:41:09Z</time>
      </trkpt>
      <trkpt lat="44.89303" lon="6.7981">
        <ele>2148.15</ele>
        <time>2022-12-12T12:41:19Z</time>
      </trkpt>
      <trkpt lat="44.89309" lon="6.79796">
        <ele>2152.77</ele>
        <time>2022-12-12T12:41:28Z</time>
      </trkpt>
      <trkpt lat="44.89322" lon="6.79782">
        <ele>2164.72</ele>
        <time>2022-12-12T12:41:37Z</time>
      </trkpt>
      <trkpt lat="44.89348" lon="6.79774">
        <ele>2130.84</ele>
        <time>2022-12-12T12:41:46Z</time>
      </trkpt>
      <trkpt lat="44.89346" lon="6.79772">
        <ele>2129.62</ele>
        <time>2022-12-12T12:41:56Z</time>
      </trkpt>
      <trkpt lat="44.89347" lon="6.79773">
        <ele>2144.84</ele>
        <time>2022-12-12T12:42:06Z</time>
      </trkpt>
      <trkpt lat="44.89348" lon="6.79772">
        <ele>2071.05</ele>
        <time>2022-12-12T12:42:16Z</time>
      </trkpt>
      <trkpt lat="44.89346" lon="6.79771">
        <ele>2053.64</ele>
        <time>2022-12-12T12:42:26Z</time>
      </trkpt>
      <trkpt lat="44.89346" lon="6.79772">
        <ele>2179.3</ele>
        <time>2022-12-12T12:42:50Z</time>
      </trkpt>
      <trkpt lat="44.89347" lon="6.79771">
        <ele>2179.46</ele>
        <time>2022-12-12T12:43:42Z</time>
      </trkpt>
      <trkpt lat="44.89348" lon="6.79771">
        <ele>2168.27</ele>
        <time>2022-12-12T12:44:32Z</time>
      </trkpt>
      <trkpt lat="44.89348" lon="6.79772">
        <ele>2082.02</ele>
        <time>2022-12-12T12:44:46Z</time>
      </trkpt>
      <trkpt lat="44.89351" lon="6.79761">
        <ele>2164.05</ele>
        <time>2022-12-12T12:44:55Z</time>
      </trkpt>
      <trkpt lat="44.89382" lon="6.79732">
        <ele>2131.82</ele>
        <time>2022-12-12T12:45:04Z</time>
      </trkpt>
      <trkpt lat="44.8939" lon="6.79723">
        <ele>2069.09</ele>
        <time>2022-12-12T12:45:14Z</time>
      </trkpt>
      <trkpt lat="44.89391" lon="6.79724">
        <ele>2155.21</ele>
        <time>2022-12-12T12:45:34Z</time>
      </trkpt>
      <trkpt lat="44.89391" lon="6.79725">
        <ele>2089.11</ele>
        <time>2022-12-12T12:46:13Z</time>
      </trkpt>
      <trkpt lat="44.89391" lon="6.79724">
        <ele>2155.9</ele>
        <time>2022-12-12T12:46:29Z</time>
      </trkpt>
      <trkpt lat="44.89418" lon="6.79726">
        <ele>2240.21</ele>
        <time>2022-12-12T12:46:39Z</time>
      </trkpt>
      <trkpt lat="44.89445" lon="6.79716">
        <ele>2161.27</ele>
        <time>2022-12-12T12:46:49Z</time>
      </trkpt>
      <trkpt lat="44.89462" lon="6.79732">
        <ele>2108.72</ele>
        <time>2022-12-12T12:46:58Z</time>
      </trkpt>
      <trkpt lat="44.89484" lon="6.79771">
        <ele>2093.33</ele>
        <time>2022-12-12T12:47:07Z</time>
      </trkpt>
      <trkpt lat="44.89515" lon="6.7979">
        <ele>2132.47</ele>
        <time>2022-12-12T12:47:16Z</time>
      </trkpt>
      <trkpt lat="44.89517" lon="6.79796">
        <ele>2136.18</ele>
        <time>2022-12-12T12:47:25Z</time>
      </trkpt>
      <trkpt lat="44.89518" lon="6.79795">
        <ele>2092.65</ele>
        <time>2022-12-12T12:47:40Z</time>
      </trkpt>
      <trkpt lat="44.89517" lon="6.79796">
        <ele>2117.01</ele>
        <time>2022-12-12T12:48:27Z</time>
      </trkpt>
      <trkpt lat="44.89518" lon="6.79793">
        <ele>2061.09</ele>
        <time>2022-12-12T12:48:36Z</time>
      </trkpt>
      <trkpt lat="44.89519" lon="6.79794">
        <ele>2145.05</ele>
        <time>2022-12-12T12:49:02Z</time>
      </trkpt>
      <trkpt lat="44.89521" lon="6.79797">
        <ele>2138.01</ele>
        <time>2022-12-12T12:49:11Z</time>
      </trkpt>
      <trkpt lat="44.89539" lon="6.79807">
        <ele>2132.34</ele>
        <time>2022-12-12T12:49:21Z</time>
      </trkpt>
      <trkpt lat="44.89547" lon="6.79829">
        <ele>2140.63</ele>
        <time>2022-12-12T12:49:31Z</time>
      </trkpt>
      <trkpt lat="44.89556" lon="6.79836">
        <ele>2060.16</ele>
        <time>2022-12-12T12:49:40Z</time>
      </trkpt>
      <trkpt lat="44.89575" lon="6.79828">
        <ele>2008.14</ele>
        <time>2022-12-12T12:49:49Z</time>
      </trkpt>
      <trkpt lat="44.89587" lon="6.79825">
        <ele>2087.15</ele>
        <time>2022-12-12T12:49:59Z</time>
      </trkpt>
      <trkpt lat="44.89588" lon="6.79818">
        <ele>2103.75</ele>
        <time>2022-12-12T12:50:09Z</time>
      </trkpt>
      <trkpt lat="44.89604" lon="6.79822">
        <ele>2088.12</ele>
        <time>2022-12-12T12:50:19Z</time>
      </trkpt>
      <trkpt lat="44.89605" lon="6.79823">
        <ele>2074.44</ele>
        <time>2022-12-12T12:50:28Z</time>
      </trkpt>
      <trkpt lat="44.89606" lon="6.79823">
        <ele>2045.26</ele>
        <time>2022-12-12T12:50:43Z</time>
      </trkpt>
      <trkpt lat="44.89619" lon="6.79827">
        <ele>1992.49</ele>
        <time>2022-12-12T12:50:52Z</time>
      </trkpt>
      <trkpt lat="44.89626" lon="6.79819">
        <ele>1993.63</ele>
        <time>2022-12-12T12:51:02Z</time>
      </trkpt>
      <trkpt lat="44.89626" lon="6.7982">
        <ele>2050.7</ele>
        <time>2022-12-12T12:51:18Z</time>
      </trkpt>
      <trkpt lat="44.89627" lon="6.79819">
        <ele>1988.17</ele>
        <time>2022-12-12T12:51:54Z</time>
      </trkpt>
      <trkpt lat="44.89629" lon="6.79818">
        <ele>2015.62</ele>
        <time>2022-12-12T12:52:04Z</time>
      </trkpt>
      <trkpt lat="44.89629" lon="6.79817">
        <ele>2027.4</ele>
        <time>2022-12-12T12:52:47Z</time>
      </trkpt>
      <trkpt lat="44.89629" lon="6.79818">
        <ele>2012.06</ele>
        <time>2022-12-12T12:53:39Z</time>
      </trkpt>
      <trkpt lat="44.8963" lon="6.79817">
        <ele>2061.6</ele>
        <time>2022-12-12T12:53:59Z</time>
      </trkpt>
      <trkpt lat="44.8963" lon="6.79819">
        <ele>2109.8</ele>
        <time>2022-12-12T12:55:38Z</time>
      </trkpt>
      <trkpt lat="44.89647" lon="6.79828">
        <ele>2073.55</ele>
        <time>2022-12-12T12:55:47Z</time>
      </trkpt>
      <trkpt lat="44.8969" lon="6.79841">
        <ele>2033.45</ele>
        <time>2022-12-12T12:55:56Z</time>
      </trkpt>
      <trkpt lat="44.89722" lon="6.79838">
        <ele>2005.42</ele>
        <time>2022-12-12T12:56:06Z</time>
      </trkpt>
      <trkpt lat="44.8977" lon="6.79857">
        <ele>2053.2</ele>
        <time>2022-12-12T12:56:16Z</time>
      </trkpt>
      <trkpt lat="44.89776" lon="6.79862">
        <ele>1996.35</ele>
        <time>2022-12-12T12:56:25Z</time>
      </trkpt>
      <trkpt lat="44.89777" lon="6.79863">
        <ele>1984.1</ele>
        <time>2022-12-12T12:56:55Z</time>
      </trkpt>
      <trkpt lat="44.89776" lon="6.79864">
        <ele>2051.55</ele>
        <time>2022-12-12T12:57:10Z</time>
      </trkpt>
      <trkpt lat="44.89777" lon="6.79864">
        <ele>2006.83</ele>
        <time>2022-12-12T12:57:27Z</time>
      </trkpt>
      <trkpt lat="44.89779" lon="6.79863">
        <ele>1987.75</ele>
        <time>2022-12-12T12:57:37Z</time>
      </trkpt>
      <trkpt lat="44.89778" lon="6.79864">
        <ele>2035.74</ele>
        <time>2022-12-12T12:58:12Z</time>
      </trkpt>
      <trkpt lat="44.89779" lon="6.79863">
        <ele>2054.11</ele>
        <time>2022-12-12T12:58:24Z</time>
      </trkpt>
      <trkpt lat="44.8981" lon="6.79857">
        <ele>2029.19</ele>
        <time>2022-12-12T12:58:33Z</time>
      </trkpt>
      <trkpt lat="44.89849" lon="6.79842">
        <ele>2030.56</ele>
        <time>2022-12-12T12:58:42Z</time>
      </trkpt>
      <trkpt lat="44.89876" lon="6.79857">
        <ele>2009.16</ele>
        <time>2022-12-12T12:58:52Z</time>
      </trkpt>
      <trkpt lat="44.89876" lon="6.79858">
        <ele>2064.65</ele>
        <time>2022-12-12T12:59:30Z</time>
      </trkpt>
      <trkpt lat="44.89877" lon="6.79859">
        <ele>2054.8</ele>
        <time>2022-12-12T13:00:35Z</time>
      </trkpt>
      <trkpt lat="44.89876" lon="6.7986">
        <ele>2047.78</ele>
        <time>2022-12-12T13:01:07Z</time>
      </trkpt>
      <trkpt lat="44.89877" lon="6.79861">
        <ele>2032.2</ele>
        <time>2022-12-12T13:01:49Z</time>
      </trkpt>
      <trkpt lat="44.89878" lon="6.7986">
        <ele>2030.13</ele>
        <time>2022-12-12T13:03:11Z</time>
      </trkpt>
      <trkpt lat="44.89901" lon="6.79855">
        <ele>2025.24</ele>
        <time>2022-12-12T13:03:21Z</time>
      </trkpt>
      <trkpt lat="44.8995" lon="6.79835">
        <ele>2023.66</ele>
        <time>2022-12-12T13:03:30Z</time>
      </trkpt>
      <trkpt lat="44.89983" lon="6.79821">
        <ele>2033.39</ele>
        <time>2022-12-12T13:03:40Z</time>
      </trkpt>
      <trkpt lat="44.90025" lon="6.79821">
        <ele>1973.33</ele>
        <time>2022-12-12T13:03:49Z</time>
      </trkpt>
      <trkpt lat="44.90059" lon="6.79821">
        <ele>2000.71</ele>
        <time>2022-12-12T13:03:58Z</time>
      </trkpt>
      <trkpt lat="44.90098" lon="6.79811">
        <ele>2041.56</ele>
        <time>2022-12-12T13:04:08Z</time>
      </trkpt>
      <trkpt lat="44.9013" lon="6.79783">
        <ele>2037.77</ele>
        <time>2022-12-12T13:04:17Z</time>
      </trkpt>
      <trkpt lat="44.90176" lon="6.79752">
        <ele>1998.22</ele>
        <time>2022-12-12T13:04:27Z</time>
      </trkpt>
      <trkpt lat="44.90206" lon="6.79729">
        <ele>1994.38</ele>
        <time>2022-12-12T13:04:36Z</time>
      </trkpt>
      <trkpt lat="44.90206" lon="6.7973">
        <ele>1952.92</ele>
        <time>2022-12-12T13:05:01Z</time>
      </trkpt>
      <trkpt lat="44.90205" lon="6.79729">
        <ele>1959.43</ele>
        <time>2022-12-12T13:05:13Z</time>
      </trkpt>
      <trkpt lat="44.90205" lon="6.79731">
        <ele>1958.53</ele>
        <time>2022-12-12T13:05:30Z</time>
      </trkpt>
      <trkpt lat="44.90204" lon="6.79729">
        <ele>1948.06</ele>
        <time>2022-12-12T13:05:40Z</time>
      </trkpt>
      <trkpt lat="44.90203" lon="6.79728">
        <ele>1954.93</ele>
        <time>2022-12-12T13:05:49Z</time>
      </trkpt>
      <trkpt lat="44.90203" lon="6.79728">
        <ele>1967.15</ele>
        <time>2022-12-12T13:05:59Z</time>
      </trkpt>
      <trkpt lat="44.90201" lon="6.79729">
        <ele>1988.8</ele>
        <time>2022-12-12T13:06:09Z</time>
      </trkpt>
      <trkpt lat="44.90203" lon="6.79729">
        <ele>2000.35</ele>
        <time>2022-12-12T13:06:18Z</time>
      </trkpt>
      <trkpt lat="44.90202" lon="6.79728">
        <ele>2028.15</ele>
        <time>2022-12-12T13:06:45Z</time>
      </trkpt>
      <trkpt lat="44.90217" lon="6.79684">
        <ele>1988.55</ele>
        <time>2022-12-12T13:06:55Z</time>
      </trkpt>
      <trkpt lat="44.90244" lon="6.79638">
        <ele>1982.67</ele>
        <time>2022-12-12T13:07:04Z</time>
      </trkpt>
      <trkpt lat="44.9026" lon="6.79622">
        <ele>1981.14</ele>
        <time>2022-12-12T13:07:13Z</time>
      </trkpt>
      <trkpt lat="44.90262" lon="6.79623">
        <ele>2009.58</ele>
        <time>2022-12-12T13:07:23Z</time>
      </trkpt>
      <trkpt lat="44.90261" lon="6.79623">
        <ele>1991.77</ele>
        <time>2022-12-12T13:07:34Z</time>
      </trkpt>
      <trkpt lat="44.90262" lon="6.79622">
        <ele>1980.2</ele>
        <time>2022-12-12T13:07:48Z</time>
      </trkpt>
      <trkpt lat="44.90261" lon="6.79622">
        <ele>1981</ele>
        <time>2022-12-12T13:08:09Z</time>
      </trkpt>
      <trkpt lat="44.90261" lon="6.79623">
        <ele>2007.01</ele>
        <time>2022-12-12T13:08:18Z</time>
      </trkpt>
      <trkpt lat="44.9026" lon="6.79621">
        <ele>2008.96</ele>
        <time>2022-12-12T13:08:28Z</time>
      </trkpt>
      <trkpt lat="44.90261" lon="6.79622">
        <ele>1996.3</ele>
        <time>2022-12-12T13:08:46Z</time>
      </trkpt>
      <trkpt lat="44.90261" lon="6.79623">
        <ele>2011.72</ele>
        <time>2022-12-12T13:08:59Z</time>
      </trkpt>
      <trkpt lat="44.90261" lon="6.79622">
        <ele>1980.01</ele>
        <time>2022-12-12T13:09:08Z</time>
      </trkpt>
      <trkpt lat="44.90262" lon="6.79623">
        <ele>1980.69</ele>
        <time>2022-12-12T13:09:19Z</time>
      </trkpt>
      <trkpt lat="44.90261" lon="6.79624">
        <ele>1980.53</ele>
        <time>2022-12-12T13:09:31Z</time>
      </trkpt>
      <trkpt lat="44.9026" lon="6.79623">
        <ele>1981.6</ele>
        <time>2022-12-12T13:09:41Z</time>
      </trkpt>
      <trkpt lat="44.90261" lon="6.79621">
        <ele>1982.43</ele>
        <time>2022-12-12T13:09:51Z</time>
      </trkpt>
      <trkpt lat="44.90261" lon="6.79619">
        <ele>2013.55</ele>
        <time>2022-12-12T13:10:01Z</time>
      </trkpt>
      <trkpt lat="44.90261" lon="6.79618">
        <ele>2014.64</ele>
        <time>2022-12-12T13:10:11Z</time>
      </trkpt>
      <trkpt lat="44.90261" lon="6.79619">
        <ele>2014.6</ele>
        <time>2022-12-12T13:10:26Z</time>
      </trkpt>
      <trkpt lat="44.90261" lon="6.79617">
        <ele>2014.47</ele>
        <time>2022-12-12T13:10:36Z</time>
      </trkpt>
      <trkpt lat="44.9026" lon="6.79617">
        <ele>2014.53</ele>
        <time>2022-12-12T13:10:50Z</time>
      </trkpt>
      <trkpt lat="44.90259" lon="6.79617">
        <ele>2015.23</ele>
        <time>2022-12-12T13:11:00Z</time>
      </trkpt>
      <trkpt lat="44.90259" lon="6.79618">
        <ele>1997.1</ele>
        <time>2022-12-12T13:11:14Z</time>
      </trkpt>
      <trkpt lat="44.90259" lon="6.7962">
        <ele>1986.35</ele>
        <time>2022-12-12T13:11:23Z</time>
      </trkpt>
      <trkpt lat="44.90259" lon="6.79619">
        <ele>1984.67</ele>
        <time>2022-12-12T13:11:33Z</time>
      </trkpt>
      <trkpt lat="44.90259" lon="6.7962">
        <ele>1984.04</ele>
        <time>2022-12-12T13:12:48Z</time>
      </trkpt>
      <trkpt lat="44.9026" lon="6.7962">
        <ele>2012.02</ele>
        <time>2022-12-12T13:12:57Z</time>
      </trkpt>
      <trkpt lat="44.90259" lon="6.7962">
        <ele>1990.79</ele>
        <time>2022-12-12T13:13:10Z</time>
      </trkpt>
      <trkpt lat="44.9026" lon="6.79621">
        <ele>1983.83</ele>
        <time>2022-12-12T13:13:20Z</time>
      </trkpt>
      <trkpt lat="44.90262" lon="6.79623">
        <ele>1983.02</ele>
        <time>2022-12-12T13:13:30Z</time>
      </trkpt>
      <trkpt lat="44.90262" lon="6.79625">
        <ele>2013.47</ele>
        <time>2022-12-12T13:13:46Z</time>
      </trkpt>
      <trkpt lat="44.90264" lon="6.79624">
        <ele>1994.07</ele>
        <time>2022-12-12T13:14:07Z</time>
      </trkpt>
      <trkpt lat="44.90268" lon="6.79626">
        <ele>2014.83</ele>
        <time>2022-12-12T13:14:16Z</time>
      </trkpt>
      <trkpt lat="44.90274" lon="6.79631">
        <ele>1985.83</ele>
        <time>2022-12-12T13:14:26Z</time>
      </trkpt>
      <trkpt lat="44.90281" lon="6.79634">
        <ele>1988.48</ele>
        <time>2022-12-12T13:14:36Z</time>
      </trkpt>
      <trkpt lat="44.90282" lon="6.79634">
        <ele>2014.6</ele>
        <time>2022-12-12T13:14:47Z</time>
      </trkpt>
      <trkpt lat="44.90292" lon="6.79636">
        <ele>2016.96</ele>
        <time>2022-12-12T13:14:56Z</time>
      </trkpt>
      <trkpt lat="44.90302" lon="6.79642">
        <ele>2007.56</ele>
        <time>2022-12-12T13:15:05Z</time>
      </trkpt>
      <trkpt lat="44.90322" lon="6.79654">
        <ele>1991.31</ele>
        <time>2022-12-12T13:15:15Z</time>
      </trkpt>
      <trkpt lat="44.90343" lon="6.79661">
        <ele>1998.15</ele>
        <time>2022-12-12T13:15:25Z</time>
      </trkpt>
      <trkpt lat="44.9035" lon="6.79661">
        <ele>1982.33</ele>
        <time>2022-12-12T13:15:34Z</time>
      </trkpt>
      <trkpt lat="44.90358" lon="6.79661">
        <ele>2014.64</ele>
        <time>2022-12-12T13:15:44Z</time>
      </trkpt>
      <trkpt lat="44.90369" lon="6.79661">
        <ele>1986.91</ele>
        <time>2022-12-12T13:15:53Z</time>
      </trkpt>
      <trkpt lat="44.90378" lon="6.79665">
        <ele>1983.97</ele>
        <time>2022-12-12T13:16:02Z</time>
      </trkpt>
      <trkpt lat="44.90385" lon="6.79673">
        <ele>2003.67</ele>
        <time>2022-12-12T13:16:12Z</time>
      </trkpt>
      <trkpt lat="44.90393" lon="6.79684">
        <ele>2015.84</ele>
        <time>2022-12-12T13:16:21Z</time>
      </trkpt>
      <trkpt lat="44.90398" lon="6.79693">
        <ele>1991.98</ele>
        <time>2022-12-12T13:16:31Z</time>
      </trkpt>
      <trkpt lat="44.90404" lon="6.79702">
        <ele>1983.15</ele>
        <time>2022-12-12T13:16:41Z</time>
      </trkpt>
      <trkpt lat="44.90412" lon="6.7971">
        <ele>2016.28</ele>
        <time>2022-12-12T13:16:50Z</time>
      </trkpt>
      <trkpt lat="44.9042" lon="6.79717">
        <ele>1986.31</ele>
        <time>2022-12-12T13:16:59Z</time>
      </trkpt>
      <trkpt lat="44.90431" lon="6.79723">
        <ele>2017.46</ele>
        <time>2022-12-12T13:17:08Z</time>
      </trkpt>
      <trkpt lat="44.9045" lon="6.79733">
        <ele>2009.53</ele>
        <time>2022-12-12T13:17:18Z</time>
      </trkpt>
      <trkpt lat="44.90464" lon="6.7974">
        <ele>1986.15</ele>
        <time>2022-12-12T13:17:27Z</time>
      </trkpt>
      <trkpt lat="44.90474" lon="6.79745">
        <ele>2007.05</ele>
        <time>2022-12-12T13:17:36Z</time>
      </trkpt>
      <trkpt lat="44.90482" lon="6.79748">
        <ele>1999.22</ele>
        <time>2022-12-12T13:17:45Z</time>
      </trkpt>
      <trkpt lat="44.90491" lon="6.7975">
        <ele>1977.62</ele>
        <time>2022-12-12T13:17:54Z</time>
      </trkpt>
      <trkpt lat="44.90507" lon="6.79748">
        <ele>1976.9</ele>
        <time>2022-12-12T13:18:04Z</time>
      </trkpt>
      <trkpt lat="44.90535" lon="6.79775">
        <ele>2012.08</ele>
        <time>2022-12-12T13:18:13Z</time>
      </trkpt>
      <trkpt lat="44.90549" lon="6.79804">
        <ele>2006.96</ele>
        <time>2022-12-12T13:18:23Z</time>
      </trkpt>
      <trkpt lat="44.90558" lon="6.7982">
        <ele>2005.23</ele>
        <time>2022-12-12T13:18:32Z</time>
      </trkpt>
      <trkpt lat="44.90583" lon="6.79855">
        <ele>2002.95</ele>
        <time>2022-12-12T13:18:41Z</time>
      </trkpt>
      <trkpt lat="44.90608" lon="6.79902">
        <ele>2016.78</ele>
        <time>2022-12-12T13:18:51Z</time>
      </trkpt>
      <trkpt lat="44.90627" lon="6.79911">
        <ele>1996.29</ele>
        <time>2022-12-12T13:19:00Z</time>
      </trkpt>
      <trkpt lat="44.90627" lon="6.79913">
        <ele>1995.37</ele>
        <time>2022-12-12T13:19:09Z</time>
      </trkpt>
      <trkpt lat="44.90628" lon="6.79913">
        <ele>1996.26</ele>
        <time>2022-12-12T13:19:31Z</time>
      </trkpt>
      <trkpt lat="44.90628" lon="6.79912">
        <ele>1995</ele>
        <time>2022-12-12T13:19:57Z</time>
      </trkpt>
      <trkpt lat="44.90627" lon="6.79912">
        <ele>1994.19</ele>
        <time>2022-12-12T13:20:08Z</time>
      </trkpt>
      <trkpt lat="44.90656" lon="6.79898">
        <ele>1992.21</ele>
        <time>2022-12-12T13:20:18Z</time>
      </trkpt>
      <trkpt lat="44.90688" lon="6.79911">
        <ele>1989.34</ele>
        <time>2022-12-12T13:20:28Z</time>
      </trkpt>
      <trkpt lat="44.90703" lon="6.79926">
        <ele>1985.39</ele>
        <time>2022-12-12T13:20:37Z</time>
      </trkpt>
      <trkpt lat="44.90754" lon="6.7991">
        <ele>1983.54</ele>
        <time>2022-12-12T13:20:47Z</time>
      </trkpt>
      <trkpt lat="44.90784" lon="6.79922">
        <ele>1965.82</ele>
        <time>2022-12-12T13:20:57Z</time>
      </trkpt>
      <trkpt lat="44.90801" lon="6.79929">
        <ele>1996.89</ele>
        <time>2022-12-12T13:21:06Z</time>
      </trkpt>
      <trkpt lat="44.9081" lon="6.7993">
        <ele>1992.51</ele>
        <time>2022-12-12T13:21:16Z</time>
      </trkpt>
      <trkpt lat="44.90818" lon="6.7993">
        <ele>1975.38</ele>
        <time>2022-12-12T13:21:25Z</time>
      </trkpt>
      <trkpt lat="44.90825" lon="6.79931">
        <ele>1986.02</ele>
        <time>2022-12-12T13:21:34Z</time>
      </trkpt>
      <trkpt lat="44.90833" lon="6.7993">
        <ele>1936.22</ele>
        <time>2022-12-12T13:21:43Z</time>
      </trkpt>
      <trkpt lat="44.90838" lon="6.79929">
        <ele>1999.73</ele>
        <time>2022-12-12T13:21:53Z</time>
      </trkpt>
      <trkpt lat="44.90845" lon="6.79927">
        <ele>1983.96</ele>
        <time>2022-12-12T13:22:02Z</time>
      </trkpt>
      <trkpt lat="44.90857" lon="6.79928">
        <ele>1984.58</ele>
        <time>2022-12-12T13:22:11Z</time>
      </trkpt>
      <trkpt lat="44.90862" lon="6.79931">
        <ele>1986.81</ele>
        <time>2022-12-12T13:22:20Z</time>
      </trkpt>
      <trkpt lat="44.90866" lon="6.79933">
        <ele>1998.18</ele>
        <time>2022-12-12T13:22:29Z</time>
      </trkpt>
      <trkpt lat="44.90874" lon="6.7994">
        <ele>1987.14</ele>
        <time>2022-12-12T13:22:39Z</time>
      </trkpt>
      <trkpt lat="44.90897" lon="6.79958">
        <ele>1991.19</ele>
        <time>2022-12-12T13:22:48Z</time>
      </trkpt>
      <trkpt lat="44.90933" lon="6.79989">
        <ele>1981.92</ele>
        <time>2022-12-12T13:22:58Z</time>
      </trkpt>
      <trkpt lat="44.90959" lon="6.79999">
        <ele>1982.71</ele>
        <time>2022-12-12T13:23:07Z</time>
      </trkpt>
      <trkpt lat="44.90984" lon="6.80017">
        <ele>1978.22</ele>
        <time>2022-12-12T13:23:16Z</time>
      </trkpt>
      <trkpt lat="44.91007" lon="6.80028">
        <ele>1968.47</ele>
        <time>2022-12-12T13:23:25Z</time>
      </trkpt>
      <trkpt lat="44.91026" lon="6.80026">
        <ele>1967.4</ele>
        <time>2022-12-12T13:23:34Z</time>
      </trkpt>
      <trkpt lat="44.91057" lon="6.80019">
        <ele>1960.82</ele>
        <time>2022-12-12T13:23:43Z</time>
      </trkpt>
      <trkpt lat="44.91095" lon="6.80034">
        <ele>1972.39</ele>
        <time>2022-12-12T13:23:52Z</time>
      </trkpt>
      <trkpt lat="44.91128" lon="6.80008">
        <ele>1966.96</ele>
        <time>2022-12-12T13:24:02Z</time>
      </trkpt>
      <trkpt lat="44.91166" lon="6.79977">
        <ele>1959.97</ele>
        <time>2022-12-12T13:24:11Z</time>
      </trkpt>
      <trkpt lat="44.912" lon="6.79947">
        <ele>1965.25</ele>
        <time>2022-12-12T13:24:21Z</time>
      </trkpt>
      <trkpt lat="44.91229" lon="6.79929">
        <ele>1960.23</ele>
        <time>2022-12-12T13:24:30Z</time>
      </trkpt>
      <trkpt lat="44.91235" lon="6.79926">
        <ele>1960.95</ele>
        <time>2022-12-12T13:24:39Z</time>
      </trkpt>
      <trkpt lat="44.91235" lon="6.79924">
        <ele>1960.83</ele>
        <time>2022-12-12T13:24:55Z</time>
      </trkpt>
      <trkpt lat="44.91234" lon="6.79923">
        <ele>1952.13</ele>
        <time>2022-12-12T13:25:42Z</time>
      </trkpt>
      <trkpt lat="44.91233" lon="6.79923">
        <ele>1958.08</ele>
        <time>2022-12-12T13:25:54Z</time>
      </trkpt>
      <trkpt lat="44.91234" lon="6.79923">
        <ele>1958.37</ele>
        <time>2022-12-12T13:26:07Z</time>
      </trkpt>
      <trkpt lat="44.91269" lon="6.7992">
        <ele>1879.98</ele>
        <time>2022-12-12T13:26:17Z</time>
      </trkpt>
      <trkpt lat="44.91292" lon="6.79965">
        <ele>1949.6</ele>
        <time>2022-12-12T13:26:27Z</time>
      </trkpt>
      <trkpt lat="44.913" lon="6.8001">
        <ele>1935.63</ele>
        <time>2022-12-12T13:26:37Z</time>
      </trkpt>
      <trkpt lat="44.9132" lon="6.80041">
        <ele>1934.76</ele>
        <time>2022-12-12T13:26:46Z</time>
      </trkpt>
      <trkpt lat="44.91337" lon="6.80053">
        <ele>1930.76</ele>
        <time>2022-12-12T13:26:55Z</time>
      </trkpt>
      <trkpt lat="44.91337" lon="6.80051">
        <ele>1930.33</ele>
        <time>2022-12-12T13:27:05Z</time>
      </trkpt>
      <trkpt lat="44.91337" lon="6.80053">
        <ele>1930.74</ele>
        <time>2022-12-12T13:27:20Z</time>
      </trkpt>
      <trkpt lat="44.91349" lon="6.80068">
        <ele>1941.41</ele>
        <time>2022-12-12T13:27:30Z</time>
      </trkpt>
      <trkpt lat="44.91386" lon="6.80087">
        <ele>1916.7</ele>
        <time>2022-12-12T13:27:40Z</time>
      </trkpt>
      <trkpt lat="44.91419" lon="6.80112">
        <ele>1904.4</ele>
        <time>2022-12-12T13:27:50Z</time>
      </trkpt>
      <trkpt lat="44.91418" lon="6.80119">
        <ele>1920.76</ele>
        <time>2022-12-12T13:27:59Z</time>
      </trkpt>
      <trkpt lat="44.91419" lon="6.8012">
        <ele>1934.42</ele>
        <time>2022-12-12T13:28:08Z</time>
      </trkpt>
      <trkpt lat="44.91424" lon="6.80126">
        <ele>1930.95</ele>
        <time>2022-12-12T13:28:18Z</time>
      </trkpt>
      <trkpt lat="44.91444" lon="6.80128">
        <ele>1931.56</ele>
        <time>2022-12-12T13:28:28Z</time>
      </trkpt>
      <trkpt lat="44.91473" lon="6.80129">
        <ele>1930.48</ele>
        <time>2022-12-12T13:28:37Z</time>
      </trkpt>
      <trkpt lat="44.91492" lon="6.80155">
        <ele>1927.36</ele>
        <time>2022-12-12T13:28:47Z</time>
      </trkpt>
      <trkpt lat="44.91514" lon="6.80153">
        <ele>1925.22</ele>
        <time>2022-12-12T13:28:57Z</time>
      </trkpt>
      <trkpt lat="44.91551" lon="6.80164">
        <ele>1921.93</ele>
        <time>2022-12-12T13:29:07Z</time>
      </trkpt>
      <trkpt lat="44.91568" lon="6.80158">
        <ele>1919.34</ele>
        <time>2022-12-12T13:29:16Z</time>
      </trkpt>
      <trkpt lat="44.9159" lon="6.8018">
        <ele>1912.65</ele>
        <time>2022-12-12T13:29:25Z</time>
      </trkpt>
      <trkpt lat="44.91595" lon="6.80209">
        <ele>1903.75</ele>
        <time>2022-12-12T13:29:34Z</time>
      </trkpt>
      <trkpt lat="44.91592" lon="6.80229">
        <ele>1905.07</ele>
        <time>2022-12-12T13:29:44Z</time>
      </trkpt>
      <trkpt lat="44.91582" lon="6.80258">
        <ele>1906.66</ele>
        <time>2022-12-12T13:29:54Z</time>
      </trkpt>
      <trkpt lat="44.91566" lon="6.80287">
        <ele>1897.84</ele>
        <time>2022-12-12T13:30:03Z</time>
      </trkpt>
      <trkpt lat="44.91564" lon="6.8032">
        <ele>1897.53</ele>
        <time>2022-12-12T13:30:13Z</time>
      </trkpt>
      <trkpt lat="44.91567" lon="6.80325">
        <ele>1899.78</ele>
        <time>2022-12-12T13:30:23Z</time>
      </trkpt>
      <trkpt lat="44.91567" lon="6.80326">
        <ele>1900.17</ele>
        <time>2022-12-12T13:30:40Z</time>
      </trkpt>
      <trkpt lat="44.91568" lon="6.80327">
        <ele>1899.3</ele>
        <time>2022-12-12T13:30:52Z</time>
      </trkpt>
      <trkpt lat="44.91569" lon="6.80329">
        <ele>1898.58</ele>
        <time>2022-12-12T13:31:01Z</time>
      </trkpt>
      <trkpt lat="44.91573" lon="6.80337">
        <ele>1897.97</ele>
        <time>2022-12-12T13:31:11Z</time>
      </trkpt>
      <trkpt lat="44.91618" lon="6.80342">
        <ele>1837.53</ele>
        <time>2022-12-12T13:31:21Z</time>
      </trkpt>
      <trkpt lat="44.9165" lon="6.80317">
        <ele>1750.48</ele>
        <time>2022-12-12T13:31:30Z</time>
      </trkpt>
      <trkpt lat="44.91678" lon="6.80339">
        <ele>1778.05</ele>
        <time>2022-12-12T13:31:40Z</time>
      </trkpt>
      <trkpt lat="44.9169" lon="6.80363">
        <ele>1892.95</ele>
        <time>2022-12-12T13:31:49Z</time>
      </trkpt>
      <trkpt lat="44.91707" lon="6.80364">
        <ele>1890.5</ele>
        <time>2022-12-12T13:31:58Z</time>
      </trkpt>
      <trkpt lat="44.91718" lon="6.80341">
        <ele>1887.01</ele>
        <time>2022-12-12T13:32:08Z</time>
      </trkpt>
      <trkpt lat="44.91738" lon="6.80359">
        <ele>1889.2</ele>
        <time>2022-12-12T13:32:17Z</time>
      </trkpt>
      <trkpt lat="44.9175" lon="6.80402">
        <ele>1893.07</ele>
        <time>2022-12-12T13:32:27Z</time>
      </trkpt>
      <trkpt lat="44.91766" lon="6.80444">
        <ele>1900.65</ele>
        <time>2022-12-12T13:32:37Z</time>
      </trkpt>
      <trkpt lat="44.91749" lon="6.80484">
        <ele>1833.58</ele>
        <time>2022-12-12T13:32:47Z</time>
      </trkpt>
      <trkpt lat="44.91745" lon="6.8052">
        <ele>1850.56</ele>
        <time>2022-12-12T13:32:57Z</time>
      </trkpt>
      <trkpt lat="44.91746" lon="6.80555">
        <ele>1878.37</ele>
        <time>2022-12-12T13:33:07Z</time>
      </trkpt>
      <trkpt lat="44.91749" lon="6.80576">
        <ele>1870.59</ele>
        <time>2022-12-12T13:33:16Z</time>
      </trkpt>
      <trkpt lat="44.91749" lon="6.80579">
        <ele>1868.35</ele>
        <time>2022-12-12T13:33:26Z</time>
      </trkpt>
      <trkpt lat="44.91748" lon="6.8058">
        <ele>1867.68</ele>
        <time>2022-12-12T13:33:37Z</time>
      </trkpt>
      <trkpt lat="44.91748" lon="6.80582">
        <ele>1875.48</ele>
        <time>2022-12-12T13:33:59Z</time>
      </trkpt>
      <trkpt lat="44.91765" lon="6.80604">
        <ele>1866.83</ele>
        <time>2022-12-12T13:34:08Z</time>
      </trkpt>
      <trkpt lat="44.91806" lon="6.80603">
        <ele>1807.68</ele>
        <time>2022-12-12T13:34:18Z</time>
      </trkpt>
      <trkpt lat="44.91844" lon="6.80602">
        <ele>1736.57</ele>
        <time>2022-12-12T13:34:27Z</time>
      </trkpt>
      <trkpt lat="44.91868" lon="6.80557">
        <ele>1752.41</ele>
        <time>2022-12-12T13:34:37Z</time>
      </trkpt>
      <trkpt lat="44.91883" lon="6.80527">
        <ele>1734.44</ele>
        <time>2022-12-12T13:34:46Z</time>
      </trkpt>
      <trkpt lat="44.9191" lon="6.80534">
        <ele>1742.23</ele>
        <time>2022-12-12T13:34:55Z</time>
      </trkpt>
      <trkpt lat="44.91929" lon="6.80551">
        <ele>1739.35</ele>
        <time>2022-12-12T13:35:04Z</time>
      </trkpt>
      <trkpt lat="44.91952" lon="6.80574">
        <ele>1732.61</ele>
        <time>2022-12-12T13:35:13Z</time>
      </trkpt>
      <trkpt lat="44.91978" lon="6.806">
        <ele>1742.49</ele>
        <time>2022-12-12T13:35:23Z</time>
      </trkpt>
      <trkpt lat="44.92007" lon="6.80612">
        <ele>1737.23</ele>
        <time>2022-12-12T13:35:32Z</time>
      </trkpt>
      <trkpt lat="44.92036" lon="6.80617">
        <ele>1749.04</ele>
        <time>2022-12-12T13:35:41Z</time>
      </trkpt>
      <trkpt lat="44.92062" lon="6.80615">
        <ele>1758.73</ele>
        <time>2022-12-12T13:35:50Z</time>
      </trkpt>
      <trkpt lat="44.92088" lon="6.80607">
        <ele>1760.27</ele>
        <time>2022-12-12T13:35:59Z</time>
      </trkpt>
      <trkpt lat="44.92123" lon="6.80621">
        <ele>1742.61</ele>
        <time>2022-12-12T13:36:09Z</time>
      </trkpt>
      <trkpt lat="44.92148" lon="6.80644">
        <ele>1754.78</ele>
        <time>2022-12-12T13:36:18Z</time>
      </trkpt>
      <trkpt lat="44.92155" lon="6.8065">
        <ele>1752.84</ele>
        <time>2022-12-12T13:36:27Z</time>
      </trkpt>
      <trkpt lat="44.92153" lon="6.80649">
        <ele>1707.55</ele>
        <time>2022-12-12T13:36:37Z</time>
      </trkpt>
      <trkpt lat="44.92154" lon="6.80648">
        <ele>1734.98</ele>
        <time>2022-12-12T13:36:46Z</time>
      </trkpt>
      <trkpt lat="44.92161" lon="6.80654">
        <ele>1742.89</ele>
        <time>2022-12-12T13:36:56Z</time>
      </trkpt>
      <trkpt lat="44.92188" lon="6.80679">
        <ele>1749.37</ele>
        <time>2022-12-12T13:37:05Z</time>
      </trkpt>
      <trkpt lat="44.92205" lon="6.80716">
        <ele>1745.87</ele>
        <time>2022-12-12T13:37:15Z</time>
      </trkpt>
      <trkpt lat="44.92201" lon="6.80738">
        <ele>1742.92</ele>
        <time>2022-12-12T13:37:24Z</time>
      </trkpt>
      <trkpt lat="44.92202" lon="6.80738">
        <ele>1696.34</ele>
        <time>2022-12-12T13:37:56Z</time>
      </trkpt>
      <trkpt lat="44.92201" lon="6.8074">
        <ele>1716.17</ele>
        <time>2022-12-12T13:38:16Z</time>
      </trkpt>
      <trkpt lat="44.92201" lon="6.80741">
        <ele>1698.27</ele>
        <time>2022-12-12T13:38:26Z</time>
      </trkpt>
      <trkpt lat="44.92201" lon="6.80743">
        <ele>1741.72</ele>
        <time>2022-12-12T13:39:30Z</time>
      </trkpt>
      <trkpt lat="44.92186" lon="6.8077">
        <ele>1738.24</ele>
        <time>2022-12-12T13:39:39Z</time>
      </trkpt>
      <trkpt lat="44.92147" lon="6.80795">
        <ele>1734.74</ele>
        <time>2022-12-12T13:39:49Z</time>
      </trkpt>
      <trkpt lat="44.9211" lon="6.80758">
        <ele>1731.3</ele>
        <time>2022-12-12T13:39:58Z</time>
      </trkpt>
      <trkpt lat="44.92096" lon="6.80778">
        <ele>1729.31</ele>
        <time>2022-12-12T13:40:08Z</time>
      </trkpt>
      <trkpt lat="44.92124" lon="6.80822">
        <ele>1726.16</ele>
        <time>2022-12-12T13:40:17Z</time>
      </trkpt>
      <trkpt lat="44.9215" lon="6.80858">
        <ele>1723.39</ele>
        <time>2022-12-12T13:40:26Z</time>
      </trkpt>
      <trkpt lat="44.92186" lon="6.809">
        <ele>1706.26</ele>
        <time>2022-12-12T13:40:36Z</time>
      </trkpt>
      <trkpt lat="44.92221" lon="6.8093">
        <ele>1721.86</ele>
        <time>2022-12-12T13:40:45Z</time>
      </trkpt>
      <trkpt lat="44.92255" lon="6.80987">
        <ele>1675.31</ele>
        <time>2022-12-12T13:40:55Z</time>
      </trkpt>
      <trkpt lat="44.92284" lon="6.81045">
        <ele>1686.64</ele>
        <time>2022-12-12T13:41:05Z</time>
      </trkpt>
      <trkpt lat="44.92316" lon="6.81094">
        <ele>1683.67</ele>
        <time>2022-12-12T13:41:15Z</time>
      </trkpt>
      <trkpt lat="44.92318" lon="6.81094">
        <ele>1675.25</ele>
        <time>2022-12-12T13:41:24Z</time>
      </trkpt>
      <trkpt lat="44.92319" lon="6.81096">
        <ele>1673.74</ele>
        <time>2022-12-12T13:41:34Z</time>
      </trkpt>
      <trkpt lat="44.92319" lon="6.81097">
        <ele>1682.52</ele>
        <time>2022-12-12T13:41:43Z</time>
      </trkpt>
      <trkpt lat="44.9232" lon="6.81098">
        <ele>1680.94</ele>
        <time>2022-12-12T13:41:54Z</time>
      </trkpt>
      <trkpt lat="44.92326" lon="6.81107">
        <ele>1683.48</ele>
        <time>2022-12-12T13:42:03Z</time>
      </trkpt>
      <trkpt lat="44.92372" lon="6.81131">
        <ele>1693.46</ele>
        <time>2022-12-12T13:42:13Z</time>
      </trkpt>
      <trkpt lat="44.92411" lon="6.81163">
        <ele>1690.62</ele>
        <time>2022-12-12T13:42:23Z</time>
      </trkpt>
      <trkpt lat="44.92446" lon="6.81193">
        <ele>1687.53</ele>
        <time>2022-12-12T13:42:33Z</time>
      </trkpt>
      <trkpt lat="44.92495" lon="6.81222">
        <ele>1688.51</ele>
        <time>2022-12-12T13:42:43Z</time>
      </trkpt>
      <trkpt lat="44.92536" lon="6.81259">
        <ele>1679.31</ele>
        <time>2022-12-12T13:42:53Z</time>
      </trkpt>
      <trkpt lat="44.92586" lon="6.81289">
        <ele>1670.36</ele>
        <time>2022-12-12T13:43:03Z</time>
      </trkpt>
      <trkpt lat="44.92628" lon="6.81319">
        <ele>1646.48</ele>
        <time>2022-12-12T13:43:13Z</time>
      </trkpt>
      <trkpt lat="44.92675" lon="6.81341">
        <ele>1652.74</ele>
        <time>2022-12-12T13:43:23Z</time>
      </trkpt>
      <trkpt lat="44.92722" lon="6.81367">
        <ele>1650.78</ele>
        <time>2022-12-12T13:43:33Z</time>
      </trkpt>
      <trkpt lat="44.92762" lon="6.81366">
        <ele>1647.16</ele>
        <time>2022-12-12T13:43:42Z</time>
      </trkpt>
      <trkpt lat="44.92809" lon="6.8136">
        <ele>1627.8</ele>
        <time>2022-12-12T13:43:52Z</time>
      </trkpt>
      <trkpt lat="44.92846" lon="6.81358">
        <ele>1626.64</ele>
        <time>2022-12-12T13:44:01Z</time>
      </trkpt>
      <trkpt lat="44.9287" lon="6.81361">
        <ele>1638.8</ele>
        <time>2022-12-12T13:44:11Z</time>
      </trkpt>
      <trkpt lat="44.92872" lon="6.81358">
        <ele>1639.82</ele>
        <time>2022-12-12T13:44:21Z</time>
      </trkpt>
      <trkpt lat="44.92872" lon="6.81357">
        <ele>1630.11</ele>
        <time>2022-12-12T13:44:30Z</time>
      </trkpt>
      <trkpt lat="44.92878" lon="6.81361">
        <ele>1637.06</ele>
        <time>2022-12-12T13:44:40Z</time>
      </trkpt>
      <trkpt lat="44.92917" lon="6.81354">
        <ele>1636.5</ele>
        <time>2022-12-12T13:44:49Z</time>
      </trkpt>
      <trkpt lat="44.9295" lon="6.81321">
        <ele>1632.12</ele>
        <time>2022-12-12T13:44:59Z</time>
      </trkpt>
      <trkpt lat="44.92975" lon="6.8129">
        <ele>1629.74</ele>
        <time>2022-12-12T13:45:08Z</time>
      </trkpt>
      <trkpt lat="44.92994" lon="6.81274">
        <ele>1630.37</ele>
        <time>2022-12-12T13:45:17Z</time>
      </trkpt>
      <trkpt lat="44.93032" lon="6.81251">
        <ele>1627.92</ele>
        <time>2022-12-12T13:45:27Z</time>
      </trkpt>
      <trkpt lat="44.93067" lon="6.81226">
        <ele>1621.39</ele>
        <time>2022-12-12T13:45:37Z</time>
      </trkpt>
      <trkpt lat="44.931" lon="6.81199">
        <ele>1621.76</ele>
        <time>2022-12-12T13:45:46Z</time>
      </trkpt>
      <trkpt lat="44.93118" lon="6.81165">
        <ele>1605.68</ele>
        <time>2022-12-12T13:45:55Z</time>
      </trkpt>
      <trkpt lat="44.9313" lon="6.81143">
        <ele>1598.23</ele>
        <time>2022-12-12T13:46:04Z</time>
      </trkpt>
      <trkpt lat="44.93135" lon="6.81103">
        <ele>1611.22</ele>
        <time>2022-12-12T13:46:14Z</time>
      </trkpt>
      <trkpt lat="44.93114" lon="6.81064">
        <ele>1572.3</ele>
        <time>2022-12-12T13:46:23Z</time>
      </trkpt>
      <trkpt lat="44.93113" lon="6.81028">
        <ele>1578.83</ele>
        <time>2022-12-12T13:46:33Z</time>
      </trkpt>
      <trkpt lat="44.93112" lon="6.81019">
        <ele>1603.95</ele>
        <time>2022-12-12T13:46:43Z</time>
      </trkpt>
      <trkpt lat="44.93109" lon="6.81017">
        <ele>1603.5</ele>
        <time>2022-12-12T13:46:53Z</time>
      </trkpt>
      <trkpt lat="44.93106" lon="6.81014">
        <ele>1604.98</ele>
        <time>2022-12-12T13:47:02Z</time>
      </trkpt>
      <trkpt lat="44.93106" lon="6.81015">
        <ele>1605</ele>
        <time>2022-12-12T13:47:12Z</time>
      </trkpt>
      <trkpt lat="44.93105" lon="6.81014">
        <ele>1604.35</ele>
        <time>2022-12-12T13:47:28Z</time>
      </trkpt>
      <trkpt lat="44.93107" lon="6.81015">
        <ele>1603.89</ele>
        <time>2022-12-12T13:47:37Z</time>
      </trkpt>
      <trkpt lat="44.93106" lon="6.81016">
        <ele>1603.4</ele>
        <time>2022-12-12T13:47:49Z</time>
      </trkpt>
      <trkpt lat="44.93107" lon="6.81017">
        <ele>1603.96</ele>
        <time>2022-12-12T13:47:59Z</time>
      </trkpt>
      <trkpt lat="44.93108" lon="6.81016">
        <ele>1604.79</ele>
        <time>2022-12-12T13:48:11Z</time>
      </trkpt>
      <trkpt lat="44.93108" lon="6.81015">
        <ele>1603.85</ele>
        <time>2022-12-12T13:48:21Z</time>
      </trkpt>
      <trkpt lat="44.93109" lon="6.81014">
        <ele>1604.46</ele>
        <time>2022-12-12T13:48:37Z</time>
      </trkpt>
      <trkpt lat="44.93108" lon="6.81016">
        <ele>1603.65</ele>
        <time>2022-12-12T13:48:46Z</time>
      </trkpt>
      <trkpt lat="44.93107" lon="6.81016">
        <ele>1603.19</ele>
        <time>2022-12-12T13:48:56Z</time>
      </trkpt>
      <trkpt lat="44.93107" lon="6.81015">
        <ele>1604.44</ele>
        <time>2022-12-12T13:49:10Z</time>
      </trkpt>
      <trkpt lat="44.93106" lon="6.81016">
        <ele>1604.49</ele>
        <time>2022-12-12T13:49:20Z</time>
      </trkpt>
      <trkpt lat="44.93106" lon="6.81017">
        <ele>1605.38</ele>
        <time>2022-12-12T13:49:51Z</time>
      </trkpt>
      <trkpt lat="44.93106" lon="6.81015">
        <ele>1605.32</ele>
        <time>2022-12-12T13:50:02Z</time>
      </trkpt>
      <trkpt lat="44.93107" lon="6.81013">
        <ele>1604.81</ele>
        <time>2022-12-12T13:50:11Z</time>
      </trkpt>
      <trkpt lat="44.93108" lon="6.81012">
        <ele>1603.93</ele>
        <time>2022-12-12T13:50:26Z</time>
      </trkpt>
      <trkpt lat="44.93121" lon="6.80993">
        <ele>1602.86</ele>
        <time>2022-12-12T13:50:35Z</time>
      </trkpt>
      <trkpt lat="44.93145" lon="6.80974">
        <ele>1598.43</ele>
        <time>2022-12-12T13:50:45Z</time>
      </trkpt>
      <trkpt lat="44.93187" lon="6.80976">
        <ele>1595.74</ele>
        <time>2022-12-12T13:50:54Z</time>
      </trkpt>
      <trkpt lat="44.9322" lon="6.81017">
        <ele>1591.8</ele>
        <time>2022-12-12T13:51:03Z</time>
      </trkpt>
      <trkpt lat="44.9324" lon="6.81071">
        <ele>1590.43</ele>
        <time>2022-12-12T13:51:13Z</time>
      </trkpt>
      <trkpt lat="44.93262" lon="6.81129">
        <ele>1562.93</ele>
        <time>2022-12-12T13:51:22Z</time>
      </trkpt>
      <trkpt lat="44.93242" lon="6.81193">
        <ele>1588.29</ele>
        <time>2022-12-12T13:51:32Z</time>
      </trkpt>
      <trkpt lat="44.93247" lon="6.81238">
        <ele>1533.34</ele>
        <time>2022-12-12T13:51:41Z</time>
      </trkpt>
      <trkpt lat="44.93251" lon="6.813">
        <ele>1541.83</ele>
        <time>2022-12-12T13:51:51Z</time>
      </trkpt>
      <trkpt lat="44.93242" lon="6.81374">
        <ele>1548.02</ele>
        <time>2022-12-12T13:52:01Z</time>
      </trkpt>
      <trkpt lat="44.93216" lon="6.81436">
        <ele>1546.79</ele>
        <time>2022-12-12T13:52:11Z</time>
      </trkpt>
      <trkpt lat="44.932" lon="6.815">
        <ele>1541.79</ele>
        <time>2022-12-12T13:52:20Z</time>
      </trkpt>
      <trkpt lat="44.9319" lon="6.8156">
        <ele>1533.52</ele>
        <time>2022-12-12T13:52:29Z</time>
      </trkpt>
      <trkpt lat="44.9319" lon="6.8161">
        <ele>1530.35</ele>
        <time>2022-12-12T13:52:39Z</time>
      </trkpt>
      <trkpt lat="44.93186" lon="6.81671">
        <ele>1526.9</ele>
        <time>2022-12-12T13:52:49Z</time>
      </trkpt>
      <trkpt lat="44.93163" lon="6.81716">
        <ele>1527.26</ele>
        <time>2022-12-12T13:52:59Z</time>
      </trkpt>
      <trkpt lat="44.93134" lon="6.81767">
        <ele>1524.45</ele>
        <time>2022-12-12T13:53:08Z</time>
      </trkpt>
      <trkpt lat="44.93101" lon="6.81807">
        <ele>1518.95</ele>
        <time>2022-12-12T13:53:18Z</time>
      </trkpt>
      <trkpt lat="44.93075" lon="6.81851">
        <ele>1516.39</ele>
        <time>2022-12-12T13:53:27Z</time>
      </trkpt>
      <trkpt lat="44.93044" lon="6.81903">
        <ele>1513.62</ele>
        <time>2022-12-12T13:53:37Z</time>
      </trkpt>
      <trkpt lat="44.93015" lon="6.81938">
        <ele>1508.85</ele>
        <time>2022-12-12T13:53:46Z</time>
      </trkpt>
      <trkpt lat="44.93024" lon="6.81973">
        <ele>1504.02</ele>
        <time>2022-12-12T13:53:56Z</time>
      </trkpt>
      <trkpt lat="44.9305" lon="6.81992">
        <ele>1501.9</ele>
        <time>2022-12-12T13:54:05Z</time>
      </trkpt>
      <trkpt lat="44.93089" lon="6.82007">
        <ele>1499.54</ele>
        <time>2022-12-12T13:54:15Z</time>
      </trkpt>
      <trkpt lat="44.93132" lon="6.82023">
        <ele>1496.58</ele>
        <time>2022-12-12T13:54:24Z</time>
      </trkpt>
      <trkpt lat="44.93163" lon="6.82038">
        <ele>1492.31</ele>
        <time>2022-12-12T13:54:34Z</time>
      </trkpt>
      <trkpt lat="44.93177" lon="6.82054">
        <ele>1492.83</ele>
        <time>2022-12-12T13:54:44Z</time>
      </trkpt>
      <trkpt lat="44.93182" lon="6.82056">
        <ele>1493.43</ele>
        <time>2022-12-12T13:54:54Z</time>
      </trkpt>
      <trkpt lat="44.93183" lon="6.82057">
        <ele>1489.94</ele>
        <time>2022-12-12T13:55:05Z</time>
      </trkpt>
      <trkpt lat="44.93182" lon="6.82055">
        <ele>1489.51</ele>
        <time>2022-12-12T13:55:32Z</time>
      </trkpt>
      <trkpt lat="44.93183" lon="6.82056">
        <ele>1489.62</ele>
        <time>2022-12-12T13:55:42Z</time>
      </trkpt>
      <trkpt lat="44.93182" lon="6.82058">
        <ele>1489.35</ele>
        <time>2022-12-12T13:56:01Z</time>
      </trkpt>
      <trkpt lat="44.93182" lon="6.82056">
        <ele>1490.92</ele>
        <time>2022-12-12T13:56:16Z</time>
      </trkpt>
      <trkpt lat="44.93183" lon="6.82054">
        <ele>1492.59</ele>
        <time>2022-12-12T13:56:26Z</time>
      </trkpt>
      <trkpt lat="44.93183" lon="6.82055">
        <ele>1487.83</ele>
        <time>2022-12-12T13:58:02Z</time>
      </trkpt>
      <trkpt lat="44.93183" lon="6.82056">
        <ele>1488.41</ele>
        <time>2022-12-12T14:00:45Z</time>
      </trkpt>
      <trkpt lat="44.93183" lon="6.82058">
        <ele>1488.57</ele>
        <time>2022-12-12T14:01:14Z</time>
      </trkpt>
      <trkpt lat="44.93183" lon="6.82059">
        <ele>1489.29</ele>
        <time>2022-12-12T14:04:27Z</time>
      </trkpt>
      <trkpt lat="44.93181" lon="6.82059">
        <ele>1489.52</ele>
        <time>2022-12-12T14:04:37Z</time>
      </trkpt>
      <trkpt lat="44.93182" lon="6.82059">
        <ele>1488.42</ele>
        <time>2022-12-12T14:04:47Z</time>
      </trkpt>
      <trkpt lat="44.93183" lon="6.8206">
        <ele>1490.38</ele>
        <time>2022-12-12T14:08:01Z</time>
      </trkpt>
      <trkpt lat="44.93182" lon="6.8206">
        <ele>1490.11</ele>
        <time>2022-12-12T14:10:17Z</time>
      </trkpt>
      <trkpt lat="44.93181" lon="6.8206">
        <ele>1490.13</ele>
        <time>2022-12-12T14:10:55Z</time>
      </trkpt>
      <trkpt lat="44.9318" lon="6.82062">
        <ele>1489.72</ele>
        <time>2022-12-12T14:11:04Z</time>
      </trkpt>
      <trkpt lat="44.9318" lon="6.82061">
        <ele>1486.54</ele>
        <time>2022-12-12T14:11:14Z</time>
      </trkpt>
      <trkpt lat="44.93182" lon="6.8206">
        <ele>1486.79</ele>
        <time>2022-12-12T14:11:23Z</time>
      </trkpt>
      <trkpt lat="44.93184" lon="6.82061">
        <ele>1487.99</ele>
        <time>2022-12-12T14:11:32Z</time>
      </trkpt>
      <trkpt lat="44.93183" lon="6.82061">
        <ele>1488.98</ele>
        <time>2022-12-12T14:11:42Z</time>
      </trkpt>
      <trkpt lat="44.93179" lon="6.8206">
        <ele>1487.82</ele>
        <time>2022-12-12T14:11:52Z</time>
      </trkpt>
      <trkpt lat="44.9318" lon="6.8206">
        <ele>1487.19</ele>
        <time>2022-12-12T14:12:19Z</time>
      </trkpt>
      <trkpt lat="44.9319" lon="6.8206">
        <ele>1487.57</ele>
        <time>2022-12-12T14:12:28Z</time>
      </trkpt>
      <trkpt lat="44.93203" lon="6.82057">
        <ele>1485.26</ele>
        <time>2022-12-12T14:12:38Z</time>
      </trkpt>
      <trkpt lat="44.93288" lon="6.82053">
        <ele>1485.56</ele>
        <time>2022-12-12T14:12:48Z</time>
      </trkpt>
      <trkpt lat="44.93315" lon="6.82054">
        <ele>1487.41</ele>
        <time>2022-12-12T14:12:57Z</time>
      </trkpt>
      <trkpt lat="44.93335" lon="6.82016">
        <ele>1487.38</ele>
        <time>2022-12-12T14:13:07Z</time>
      </trkpt>
      <trkpt lat="44.93381" lon="6.81959">
        <ele>1485.99</ele>
        <time>2022-12-12T14:13:16Z</time>
      </trkpt>
      <trkpt lat="44.93395" lon="6.81846">
        <ele>1485.82</ele>
        <time>2022-12-12T14:13:26Z</time>
      </trkpt>
      <trkpt lat="44.93431" lon="6.81749">
        <ele>1485.77</ele>
        <time>2022-12-12T14:13:36Z</time>
      </trkpt>
      <trkpt lat="44.93443" lon="6.81697">
        <ele>1514.11</ele>
        <time>2022-12-12T14:13:41Z</time>
      </trkpt>
    </trkseg>
  </trk>
</gpx>